[[{"header":{"parameterUnit":"m.s-1","parameterCategory":1,"la1":30.6,"la2":29.2853,"lo1":-89.7004,"lo2":-87.6739,"dy":0.0162,"dx":0.0183,"nx":112,"ny":82,"refTime":"2025-07-11T12:00:00:Z","depth":0,"parameterNumber":2,"parameterNumberName":"U-component_of_WINDS"},"data":[0.0,0.0,0.0,0.0,0.0,0.0,0.0,0.0,0.0,0.0,0.0,0.0,0.0,0.0,0.0,0.0,0.0,0.0,0.0,0.0,0.0,0.0,0.0,0.0,0.0,0.0,0.0,0.0,0.0,0.0,0.0,0.0,0.0,0.0,0.0,0.0,0.0,0.0,0.0,0.0,0.0,0.0,0.0,0.0,0.0,0.0,0.0,0.0,0.0,0.0,0.0,0.0,0.0,0.0,0.0,0.0,0.0,0.0,0.0,0.0,0.0,0.0,0.0,0.0,0.0,0.0,0.0,0.0,0.0,0.0,0.0,0.0,0.0,0.0,0.0,0.0,0.0,0.0,0.0,0.0,0.0,0.0,0.0,0.0,0.0,0.0,0.0,0.0,0.0,0.0,0.0,-1.201,-1.4824,-1.6616,-1.6616,-1.7605,-1.6738,-1.3282,0.0,0.0,0.0,0.0,0.0,0.0,0.0,0.0,0.0,0.0,0.0,0.0,0.0,0.0,0.0,0.0,0.0,0.0,0.0,0.0,0.0,0.0,0.0,0.0,0.0,0.0,0.0,0.0,0.0,0.0,0.0,0.0,0.0,0.0,0.0,0.0,0.0,0.0,0.0,0.0,0.0,0.0,0.0,0.0,0.0,0.0,0.0,0.0,0.0,0.0,0.0,0.0,0.0,0.0,0.0,0.0,0.0,0.0,0.0,0.0,0.0,0.0,0.0,0.0,0.0,0.0,0.0,0.0,0.0,0.0,0.0,0.0,0.0,0.0,0.0,0.0,0.0,0.0,0.0,0.0,0.0,0.0,0.0,0.0,0.0,0.0,0.0,0.0,0.0,0.0,0.0,0.0,0.0,0.0,0.0,0.0,0.0,0.0,0.0,0.0,0.0,0.0,0.0,0.0,-1.1549,-1.4709,-1.6327,-1.7167,-1.7167,-1.8165,-1.736,-1.4046,0.0,0.0,0.0,0.0,0.0,0.0,0.0,0.0,0.0,0.0,0.0,0.0,0.0,0.0,0.0,0.0,0.0,0.0,0.0,0.0,0.0,0.0,0.0,0.0,0.0,0.0,0.0,0.0,0.0,0.0,0.0,0.0,0.0,0.0,0.0,0.0,0.0,0.0,0.0,0.0,0.0,0.0,0.0,0.0,0.0,0.0,0.0,0.0,0.0,0.0,0.0,0.0,0.0,0.0,0.0,0.0,0.0,0.0,0.0,0.0,0.0,0.0,0.0,0.0,0.0,0.0,0.0,0.0,0.0,0.0,0.0,0.0,0.0,0.0,0.0,0.0,0.0,0.0,0.0,0.0,0.0,0.0,0.0,0.0,0.0,0.0,0.0,0.0,0.0,0.0,0.0,0.0,0.0,0.0,0.0,0.0,0.0,0.0,0.0,0.0,0.0,0.0,0.0,-1.0907,-1.2563,-1.618,-1.6754,-1.7097,-1.7686,-1.8185,-1.7274,-1.4444,-1.36,0.0,0.0,0.0,0.0,0.0,0.0,0.0,0.0,0.0,0.0,0.0,0.0,0.0,0.0,0.0,0.0,0.0,0.0,0.0,0.0,0.0,0.0,0.0,0.0,0.0,0.0,0.0,0.0,0.0,0.0,0.0,0.0,0.0,0.0,0.0,0.0,0.0,0.0,0.0,0.0,0.0,0.0,0.0,0.0,0.0,0.0,0.0,0.0,0.0,0.0,0.0,0.0,0.0,0.0,0.0,0.0,0.0,0.0,0.0,0.0,0.0,0.0,0.0,0.0,0.0,0.0,0.0,0.0,0.0,0.0,0.0,0.0,0.0,0.0,0.0,0.0,0.0,0.0,0.0,0.0,0.0,0.0,0.0,0.0,0.0,0.0,0.0,0.0,0.0,0.0,0.0,0.0,0.0,0.0,0.0,0.0,0.0,0.0,0.0,0.0,0.0,0.0,-1.2538,-1.3901,-1.6974,-1.7146,-1.7415,-1.8224,-1.807,-1.6962,-1.4719,-1.3333,0.0,0.0,0.0,0.0,0.0,0.0,0.0,0.0,0.0,0.0,0.0,0.0,0.0,0.0,0.0,0.0,0.0,0.0,0.0,0.0,0.0,0.0,0.0,0.0,0.0,0.0,0.0,0.0,0.0,0.0,0.0,0.0,0.0,0.0,0.0,0.0,0.0,0.0,0.0,0.0,0.0,0.0,0.0,0.0,0.0,0.0,0.0,0.0,0.0,0.0,0.0,0.0,0.0,0.0,0.0,0.0,0.0,0.0,0.0,0.0,0.0,0.0,0.0,0.0,0.0,0.0,0.0,0.0,0.0,0.0,0.0,0.0,0.0,0.0,0.0,0.0,0.0,0.0,0.0,0.0,0.0,0.0,0.0,0.0,0.0,0.0,0.0,0.0,0.0,0.0,0.0,0.0,0.0,0.0,0.0,0.0,0.0,0.0,0.0,0.0,0.0,0.0,-1.3882,-1.5906,-1.718,-1.8165,-1.8746,-1.8836,-1.7927,-1.662,-1.4883,-1.2332,0.0,0.0,0.0,0.0,0.0,0.0,0.0,0.0,0.0,0.0,0.0,0.0,0.0,0.0,0.0,0.0,0.0,0.0,0.0,0.0,0.0,0.0,0.0,0.0,0.0,0.0,0.0,0.0,0.0,0.0,0.0,0.0,0.0,0.0,0.0,0.0,0.0,0.0,0.0,0.0,0.0,0.0,0.0,0.0,0.0,0.0,0.0,0.0,0.0,0.0,0.0,0.0,0.0,0.0,0.0,0.0,0.0,0.0,0.0,0.0,0.0,0.0,0.0,0.0,0.0,0.0,0.0,0.0,0.0,0.0,0.0,0.0,0.0,0.0,0.0,0.0,0.0,0.0,0.0,0.0,0.0,0.0,0.0,0.0,0.0,0.0,0.0,0.0,0.0,0.0,0.0,0.0,0.0,0.0,0.0,0.0,0.0,0.0,0.0,0.0,0.0,0.0,-1.3589,-1.5586,0.0,-1.8066,-1.8185,-1.8836,-1.7921,-1.6437,-1.4433,0.0,0.0,0.0,0.0,0.0,0.0,0.0,0.0,0.0,0.0,0.0,0.0,0.0,0.0,0.0,0.0,0.0,0.0,0.0,0.0,0.0,0.0,0.0,0.0,0.0,0.0,0.0,0.0,0.0,0.0,0.0,0.0,0.0,0.0,0.0,0.0,0.0,0.0,0.0,0.0,0.0,0.0,0.0,0.0,0.0,0.0,0.0,0.0,0.0,0.0,0.0,0.0,0.0,0.0,0.0,0.0,0.0,0.0,0.0,0.0,0.0,0.0,0.0,0.0,0.0,0.0,0.0,0.0,0.0,0.0,0.0,0.0,0.0,0.0,0.0,0.0,0.0,0.0,0.0,0.0,0.0,0.0,0.0,0.0,0.0,0.0,0.0,0.0,0.0,0.0,0.0,0.0,0.0,0.0,0.0,0.0,0.0,0.0,0.0,0.0,0.0,0.0,-1.2072,-1.3792,-1.5855,0.0,-1.8243,-1.8106,-1.8836,-1.7611,-1.5923,-1.3885,0.0,0.0,0.0,0.0,0.0,0.0,0.0,0.0,0.0,0.0,0.0,0.0,0.0,0.0,0.0,0.0,0.0,0.0,0.0,0.0,0.0,0.0,0.0,0.0,0.0,0.0,0.0,0.0,0.0,0.0,0.0,0.0,0.0,0.0,0.0,0.0,0.0,0.0,0.0,0.0,0.0,0.0,0.0,0.0,0.0,0.0,0.0,0.0,0.0,0.0,0.0,0.0,0.0,0.0,0.0,0.0,0.0,0.0,0.0,0.0,0.0,0.0,0.0,0.0,0.0,0.0,0.0,0.0,0.0,0.0,0.0,0.0,0.0,0.0,0.0,0.0,0.0,0.0,0.0,0.0,0.0,0.0,0.0,0.0,0.0,0.0,0.0,0.0,0.0,0.0,0.0,0.0,0.0,0.0,0.0,0.0,0.0,0.0,0.0,0.0,0.0,0.0,-1.2179,-1.4805,-1.711,-1.873,-1.8893,-1.8874,-1.8874,-1.6927,-1.4981,0.0,0.0,0.0,0.0,0.0,0.0,0.0,0.0,0.0,0.0,0.0,0.0,0.0,0.0,0.0,0.0,0.0,0.0,0.0,0.0,0.0,0.0,0.0,0.0,0.0,0.0,0.0,0.0,0.0,0.0,0.0,0.0,0.0,0.0,0.0,0.0,0.0,0.0,0.0,0.0,0.0,0.0,0.0,0.0,0.0,0.0,0.0,0.0,0.0,0.0,0.0,0.0,0.0,0.0,0.0,0.0,0.0,0.0,0.0,0.0,0.0,0.0,0.0,0.0,0.0,0.0,0.0,0.0,0.0,0.0,0.0,0.0,0.0,0.0,0.0,0.0,0.0,0.0,0.0,0.0,0.0,0.0,0.0,0.0,0.0,0.0,0.0,0.0,0.0,0.0,0.0,0.0,0.0,0.0,0.0,0.0,0.0,0.0,0.0,0.0,0.0,0.0,0.0,0.0,-1.495,-1.702,-1.8711,-1.8224,-1.7767,-1.7767,-1.6846,-1.5395,-1.3327,0.0,0.0,0.0,0.0,0.0,0.0,0.0,0.0,0.0,0.0,0.0,0.0,0.0,0.0,0.0,0.0,0.0,0.0,0.0,0.0,0.0,0.0,0.0,0.0,0.0,0.0,0.0,0.0,0.0,0.0,0.0,0.0,0.0,0.0,0.0,0.0,0.0,0.0,0.0,0.0,0.0,0.0,0.0,0.0,0.0,0.0,0.0,0.0,0.0,0.0,0.0,0.0,0.0,0.0,0.0,0.0,0.0,0.0,0.0,0.0,0.0,0.0,0.0,0.0,0.0,0.0,0.0,0.0,0.0,0.0,0.0,0.0,0.0,0.0,0.0,0.0,0.0,0.0,0.0,0.0,0.0,0.0,0.0,0.0,0.0,0.0,0.0,0.0,0.0,0.0,0.0,0.0,0.0,0.0,0.0,0.0,0.0,0.0,0.0,0.0,0.0,0.0,-1.3301,-1.5378,-1.7268,-1.874,-1.7947,-1.7312,-1.7312,-1.6816,-1.5628,-1.3617,0.0,0.0,0.0,0.0,0.0,0.0,0.0,0.0,0.0,0.0,0.0,0.0,0.0,0.0,0.0,0.0,0.0,0.0,0.0,0.0,0.0,0.0,0.0,0.0,0.0,0.0,0.0,0.0,0.0,0.0,0.0,0.0,0.0,0.0,0.0,0.0,0.0,0.0,0.0,0.0,0.0,0.0,0.0,0.0,0.0,0.0,0.0,0.0,0.0,0.0,0.0,0.0,0.0,0.0,0.0,0.0,0.0,0.0,0.0,0.0,0.0,0.0,0.0,0.0,0.0,0.0,0.0,0.0,0.0,0.0,0.0,0.0,0.0,0.0,0.0,0.0,0.0,0.0,0.0,0.0,0.0,0.0,0.0,0.0,0.0,0.0,0.0,0.0,0.0,0.0,0.0,0.0,0.0,0.0,0.0,0.0,0.0,0.0,0.0,0.0,0.0,0.0,-1.3713,-1.589,-1.7656,-1.865,-1.7847,-1.7229,-1.7229,-1.6774,-1.5807,-1.4158,0.0,0.0,0.0,0.0,0.0,0.0,0.0,0.0,0.0,0.0,0.0,0.0,0.0,0.0,0.0,0.0,0.0,0.0,0.0,0.0,0.0,0.0,0.0,0.0,0.0,0.0,0.0,0.0,0.0,0.0,0.0,0.0,0.0,0.0,0.0,0.0,0.0,0.0,0.0,0.0,0.0,0.0,0.0,0.0,0.0,0.0,0.0,0.0,0.0,0.0,0.0,0.0,0.0,0.0,0.0,0.0,0.0,0.0,0.0,0.0,-1.4168,0.0,0.0,0.0,0.0,0.0,0.0,0.0,0.0,0.0,0.0,0.0,0.0,0.0,0.0,0.0,0.0,0.0,0.0,0.0,0.0,0.0,0.0,0.0,0.0,0.0,0.0,0.0,0.0,0.0,0.0,0.0,0.0,0.0,0.0,0.0,0.0,0.0,0.0,0.0,0.0,0.0,-1.3259,-1.5579,-1.7276,-1.7612,-1.7055,-1.668,-1.668,-1.6573,-1.6158,-1.5361,0.0,0.0,0.0,0.0,0.0,0.0,0.0,0.0,0.0,0.0,0.0,0.0,0.0,0.0,0.0,0.0,0.0,0.0,0.0,0.0,0.0,0.0,0.0,0.0,0.0,0.0,0.0,0.0,0.0,0.0,0.0,0.0,0.0,0.0,0.0,0.0,0.0,0.0,0.0,0.0,0.0,0.0,0.0,0.0,0.0,0.0,0.0,0.0,0.0,0.0,0.0,0.0,0.0,0.0,0.0,0.0,0.0,0.0,0.0,0.0,0.0,-1.6637,0.0,0.0,0.0,0.0,0.0,0.0,0.0,0.0,0.0,0.0,0.0,0.0,0.0,0.0,0.0,0.0,0.0,0.0,0.0,0.0,0.0,0.0,0.0,0.0,0.0,0.0,0.0,0.0,0.0,0.0,0.0,0.0,0.0,0.0,0.0,0.0,0.0,0.0,0.0,0.0,-1.391,-1.6077,-1.7507,-1.7313,-1.6816,-1.65,-1.65,-1.6731,-1.663,-1.6039,-1.5069,0.0,0.0,0.0,0.0,0.0,0.0,0.0,0.0,0.0,0.0,0.0,0.0,0.0,0.0,0.0,0.0,0.0,0.0,0.0,0.0,0.0,0.0,0.0,0.0,0.0,0.0,0.0,0.0,0.0,0.0,0.0,0.0,0.0,0.0,0.0,0.0,0.0,0.0,0.0,0.0,0.0,0.0,0.0,0.0,0.0,0.0,0.0,0.0,0.0,0.0,0.0,0.0,0.0,0.0,0.0,-2.3708,-2.411,-2.4266,-2.4098,-2.1741,-2.0625,-2.0354,0.0,0.0,0.0,0.0,0.0,0.0,0.0,0.0,0.0,0.0,0.0,0.0,0.0,0.0,0.0,0.0,0.0,0.0,0.0,0.0,0.0,0.0,0.0,0.0,0.0,-1.9308,-1.8939,0.0,0.0,0.0,0.0,0.0,0.0,0.0,0.0,0.0,0.0,0.0,0.0,-1.4778,-1.6661,-1.7767,-1.7209,-1.6752,-1.65,-1.65,-1.6909,-1.6971,-1.6487,-1.5781,-1.5134,0.0,0.0,0.0,0.0,0.0,0.0,0.0,0.0,0.0,0.0,0.0,0.0,0.0,0.0,0.0,0.0,0.0,0.0,0.0,0.0,0.0,0.0,0.0,0.0,0.0,0.0,0.0,0.0,0.0,0.0,0.0,0.0,-1.0837,-1.2159,0.0,0.0,0.0,0.0,0.0,0.0,0.0,0.0,0.0,0.0,0.0,0.0,0.0,0.0,-2.2843,-2.4665,-2.5644,-2.5824,-2.6505,-2.6852,-2.6881,-2.6368,-2.6399,-2.6828,-2.7058,0.0,-2.2833,-2.1736,0.0,0.0,0.0,0.0,0.0,0.0,0.0,0.0,0.0,0.0,0.0,0.0,0.0,0.0,0.0,0.0,0.0,0.0,0.0,0.0,0.0,0.0,-2.1949,-2.2149,-2.2622,-2.2602,0.0,-1.7992,-1.5426,-1.4936,0.0,0.0,0.0,0.0,0.0,0.0,0.0,0.0,-1.4821,-1.6362,-1.7188,-1.6659,-1.6531,-1.65,-1.65,-1.6552,-1.6769,-1.7145,-1.6527,-1.6048,-1.586,-1.4572,0.0,0.0,0.0,0.0,0.0,0.0,0.0,0.0,0.0,0.0,0.0,0.0,0.0,0.0,0.0,0.0,0.0,0.0,0.0,0.0,0.0,0.0,0.0,0.0,0.0,0.0,0.0,0.0,0.0,-1.0774,-1.2622,-1.3575,-1.4113,-1.4236,0.0,0.0,0.0,0.0,0.0,0.0,0.0,0.0,0.0,-2.1974,-2.361,-2.5076,-2.6393,-2.7275,-2.8083,-2.8801,-2.947,-2.9966,-3.0321,-3.0412,-3.0271,-3.0057,-3.0379,-2.9477,-2.765,-2.5774,-2.4611,-2.3857,0.0,0.0,0.0,0.0,0.0,-2.2637,-2.3849,0.0,0.0,0.0,0.0,0.0,0.0,0.0,0.0,0.0,0.0,0.0,0.0,0.0,0.0,-2.4318,-2.4573,-2.4589,-2.4088,-2.2281,-2.0171,0.0,-1.7378,-1.6231,-1.3818,0.0,0.0,0.0,0.0,0.0,-1.5795,-1.698,-1.7592,-1.7065,-1.671,-1.65,-1.65,-1.6774,-1.6909,-1.6858,-1.6863,-1.6703,-1.6335,-1.5205,-1.4037,0.0,0.0,0.0,0.0,0.0,0.0,0.0,0.0,0.0,0.0,0.0,0.0,0.0,0.0,0.0,0.0,0.0,0.0,0.0,0.0,0.0,0.0,0.0,0.0,0.0,0.0,0.0,0.0,-1.277,-1.4597,-1.5694,-1.6786,-1.7186,0.0,0.0,0.0,0.0,0.0,0.0,-2.137,-2.3047,-2.456,-2.583,-2.7171,-2.8427,-2.9594,-2.9774,-3.0328,-3.127,-3.175,-3.2258,-3.2781,-3.3275,-3.3161,-3.2521,-3.2521,-3.2261,-3.1622,-2.926,-2.8018,-2.747,-2.6129,-2.5621,-2.5651,-2.5989,-2.5914,-2.5905,-2.7919,-2.8263,-2.772,-2.6886,0.0,-2.4993,-2.3071,0.0,0.0,0.0,0.0,-2.3961,-2.5091,0.0,-2.5495,-2.5989,-2.6108,-2.6063,-2.5899,-2.5457,-2.4253,0.0,-2.0576,-1.9483,-1.6324,0.0,0.0,0.0,0.0,-1.7059,-1.6939,-1.7679,-1.8061,-1.7657,-1.7087,-1.6735,-1.6735,-1.6956,-1.6942,-1.6543,-1.6879,-1.6909,-1.6522,-1.5731,-1.4984,0.0,0.0,0.0,0.0,0.0,0.0,0.0,0.0,0.0,0.0,0.0,0.0,0.0,0.0,0.0,0.0,0.0,0.0,0.0,0.0,0.0,0.0,0.0,0.0,0.0,0.0,0.0,0.0,0.0,0.0,-1.9454,-2.0051,0.0,0.0,0.0,0.0,-2.133,-2.291,-2.4526,-2.6162,-2.6956,-2.7974,-2.9322,-3.0584,-3.1585,-3.2317,-3.2946,-3.329,-3.335,-3.338,-3.341,-3.344,-3.3484,-3.3499,-3.3423,-3.3423,-3.3408,-3.3228,-3.1053,-3.0207,-3.0178,-2.8906,-2.8397,-2.8323,-2.772,-2.7874,-2.8427,-2.8547,-2.8577,-2.8637,-2.9205,-2.8513,-2.742,-2.7285,-2.6348,0.0,0.0,-2.6387,-2.6581,-2.727,-2.745,-2.7465,-2.748,-2.7495,-2.733,-2.6701,-2.6512,-2.5884,0.0,-2.2942,-2.2069,-2.0609,0.0,-1.8816,-1.8618,-1.7887,-1.7569,-1.8053,-1.8165,-1.819,-1.8166,-1.7664,-1.736,-1.736,-1.6857,-1.6543,-1.65,-1.6543,-1.6543,-1.65,-1.645,-1.5932,-1.4871,-1.3241,0.0,0.0,0.0,0.0,0.0,0.0,0.0,0.0,0.0,0.0,0.0,0.0,0.0,0.0,0.0,0.0,0.0,0.0,0.0,0.0,0.0,0.0,0.0,0.0,0.0,0.0,0.0,0.0,-2.2277,-2.3487,0.0,0.0,-2.3923,-2.4147,-2.541,-2.6062,-2.7028,-2.8453,-2.9535,-3.0537,-3.145,-3.2332,-3.2901,-3.314,-3.338,-3.3709,-3.4159,-3.4159,-3.4367,-3.4786,-3.4786,-3.4786,-3.4786,-3.4786,-3.4786,-3.4724,-3.3964,-3.3164,-3.2392,-3.1928,-3.1749,-3.1719,-3.148,-3.1539,-3.1689,-3.127,-3.112,-3.1016,-3.0372,-2.9579,-2.8888,-2.8888,-2.8532,-2.8203,-2.8442,-2.8543,-2.8603,-2.8828,-2.8573,-2.8233,-2.8233,-2.7914,-2.7525,-2.73,-2.724,-2.6911,-2.5734,-2.4298,-2.2918,-2.1742,-2.0478,-1.936,-1.8617,-1.8458,-1.8505,-1.8682,-1.8707,-1.8707,-1.8707,-1.8242,-1.7765,-1.7436,-1.7187,-1.6911,-1.6525,-1.65,-1.65,-1.65,-1.65,-1.615,-1.5371,-1.4122,-1.2497,0.0,0.0,0.0,0.0,0.0,0.0,0.0,0.0,0.0,0.0,0.0,0.0,0.0,0.0,0.0,0.0,0.0,0.0,0.0,0.0,0.0,0.0,0.0,0.0,0.0,0.0,-2.25,-2.498,-2.6406,-2.7356,-2.7855,-2.729,-2.7456,-2.8839,-2.8941,-2.949,-3.0821,-3.1734,-3.2467,-3.3155,-3.3604,-3.3948,-3.4173,-3.4173,-3.4397,-3.4848,-3.4848,-3.5055,-3.5504,-3.5504,-3.5504,-3.5504,-3.5504,-3.5504,-3.5504,-3.5504,-3.4981,-3.4143,-3.3918,-3.3829,-3.3799,-3.3574,-3.3499,-3.344,-3.2991,-3.2706,-3.2333,-3.1465,-3.0746,-3.0238,-3.0238,-3.0238,-3.0238,-3.0238,-3.0238,-3.0193,-2.9953,-2.9564,-2.919,-2.8981,-2.8412,-2.7944,-2.7944,-2.7764,-2.7465,-2.7031,-2.5674,-2.4231,-2.3044,-2.173,-2.0521,-1.9558,-1.9346,-1.9259,-1.9259,-1.9259,-1.9259,-1.9259,-1.8782,-1.8254,-1.7725,-1.7511,-1.7137,-1.6538,-1.65,-1.65,-1.65,-1.6303,-1.6008,-1.561,-1.4201,-1.2572,-1.0691,0.0,0.0,0.0,0.0,0.0,0.0,0.0,0.0,0.0,0.0,0.0,0.0,0.0,0.0,0.0,0.0,0.0,0.0,0.0,0.0,0.0,0.0,0.0,-2.0409,-2.263,-2.5163,-2.762,-2.8798,-2.9439,-2.9455,-2.9612,-3.0254,-3.1585,-3.1619,-3.2123,-3.3455,-3.3529,-3.3829,-3.4518,-3.4533,-3.4831,-3.5489,-3.5504,-3.5504,-3.5504,-3.5504,-3.5504,-3.5504,-3.5504,-3.5504,-3.5504,-3.5504,-3.5504,-3.5504,-3.5504,-3.5504,-3.5444,-3.4771,-3.4533,-3.4459,-3.3784,-3.3544,-3.3529,-3.3529,-3.3095,-3.2542,-3.2542,-3.2079,-3.157,-3.154,-3.1525,-3.1525,-3.1511,-3.1511,-3.1346,-3.0717,-3.0522,-3.0357,-2.9786,-2.9086,-2.8607,-2.8607,-2.8053,-2.76,-2.76,-2.7091,-2.6174,-2.476,-2.3502,-2.2453,-2.1718,-2.0579,0.0,-1.9798,-1.9798,-1.9798,-1.9798,-1.9334,-1.8807,-1.8279,-1.7727,-1.7162,-1.6563,-1.65,-1.65,-1.65,-1.593,-1.561,-1.5565,-1.3552,-1.1799,-1.0342,0.0,0.0,0.0,0.0,0.0,0.0,0.0,0.0,0.0,0.0,0.0,0.0,0.0,0.0,0.0,0.0,0.0,0.0,0.0,0.0,0.0,0.0,-2.3055,-2.3055,-2.5892,-2.8517,-3.0087,-3.1443,-3.2492,-3.3013,-3.269,-3.2796,-3.3726,-3.3259,-3.332,-3.4189,-3.4234,-3.4517,-3.519,-3.522,-3.531,-3.5504,-3.5504,-3.5504,-3.5504,-3.5504,-3.5504,-3.5504,-3.5504,-3.5504,-3.5504,-3.5504,-3.5504,-3.5504,-3.5504,-3.5504,-3.5489,-3.5295,-3.522,-3.519,-3.5026,-3.4637,-3.4234,-3.4234,-3.3784,-3.323,-3.323,-3.3095,-3.2871,-3.2363,-3.2213,-3.2108,-3.1645,-3.1511,-3.1466,-3.1271,-3.0853,-3.0462,-3.0298,-2.94,-2.8607,-2.8607,-2.8053,-2.76,-2.76,-2.745,-2.6867,-2.5474,-2.3699,-2.2273,-2.1693,0.0,0.0,-1.9861,-1.9798,-1.9798,-1.9798,-1.9673,-1.9346,-1.882,-1.8292,-1.7739,0.0,-1.6748,-1.65,-1.65,-1.6337,-1.5854,-1.4971,-1.3347,-1.2088,0.0,0.0,0.0,0.0,0.0,0.0,0.0,0.0,0.0,0.0,0.0,0.0,0.0,0.0,0.0,0.0,0.0,0.0,0.0,0.0,0.0,0.0,-2.4812,-2.6823,-2.7445,-2.9049,-3.0747,-3.2388,-3.3339,-3.4286,-3.5351,-3.4562,-3.4367,-3.5384,-3.4524,-3.4203,-3.4876,-3.4906,-3.51,-3.5489,-3.5504,-3.5504,-3.5504,-3.5504,-3.5504,-3.5504,-3.5504,-3.5504,-3.5504,-3.5504,-3.5504,0.0,-3.5504,-3.5504,-3.5504,-3.5504,-3.5504,0.0,0.0,0.0,0.0,0.0,-3.5445,-3.5351,-3.5018,-3.4472,-3.3903,-3.3903,-3.3724,-3.3425,-3.3036,-3.2736,-3.2407,-3.2019,-3.172,-3.1511,-3.1511,-3.1212,-3.0913,-3.0913,-3.0148,-2.94,-2.94,-2.8667,-2.8034,-2.8034,0.0,0.0,-2.5637,-2.4255,-2.2951,-2.2014,-2.1415,-2.083,0.0,-2.0189,-2.0075,-1.9823,-1.9798,-1.9597,-1.9045,-1.8707,0.0,0.0,0.0,-1.6651,-1.6129,0.0,0.0,0.0,0.0,0.0,0.0,0.0,0.0,0.0,-1.0929,-1.0843,0.0,0.0,0.0,0.0,0.0,0.0,0.0,0.0,0.0,0.0,0.0,0.0,0.0,0.0,0.0,0.0,-2.8483,-3.0869,-3.2344,-3.1989,-3.229,-3.4269,-3.4573,-3.516,-3.6527,-3.5486,-3.5229,-3.6485,-3.5339,-3.4861,-3.5474,0.0,0.0,0.0,0.0,-3.5504,-3.5504,-3.5504,-3.5504,-3.5504,-3.5504,-3.5504,-3.5504,-3.5504,-3.5504,-3.5504,-3.5504,-3.5504,-3.5504,-3.5504,-3.5504,-3.5504,-3.5504,-3.5504,-3.5504,-3.5504,-3.5911,0.0,0.0,0.0,0.0,-3.4623,-3.4203,-3.3709,-3.3634,-3.314,-3.2617,-3.2512,-3.2019,-3.1511,-3.1511,-3.1511,-3.1511,-3.1511,-3.0972,-3.0507,-3.0507,-2.9505,-2.8607,-2.8607,-2.753,-2.6363,-2.5536,-2.4874,-2.3973,-2.2512,-2.1895,0.0,-2.0855,-2.0729,-2.049,-1.9962,0.0,0.0,-1.9133,-1.9033,-1.8581,-1.7626,-1.7524,-1.7,-1.5946,-1.5371,-1.4974,-1.4726,-1.4129,-1.3931,-1.4228,-1.4131,-1.4133,-1.4143,-1.2612,-1.2494,0.0,0.0,0.0,0.0,0.0,0.0,0.0,0.0,0.0,0.0,0.0,0.0,0.0,0.0,0.0,-2.8922,-3.0717,-3.2395,-3.3884,-3.3947,-3.4015,-3.4438,-3.503,-3.5496,-3.5802,-3.558,-3.551,-3.5724,-3.5457,-3.537,-3.5489,-3.5504,0.0,-3.5504,-3.5504,-3.5504,-3.5504,-3.5504,-3.5504,-3.5504,0.0,0.0,-3.5504,-3.5504,-3.5504,-3.5504,-3.5504,-3.5504,-3.5504,-3.5504,-3.5504,-3.5504,-3.5504,-3.5504,-3.5504,-3.5504,-3.5587,-3.5701,-3.5554,-3.5415,-3.531,-3.531,-3.522,-3.5011,-3.4488,-3.3829,0.0,-3.2662,-3.2019,-3.1511,-3.1511,-3.1511,-3.1511,-3.1511,-3.0972,-3.0507,-3.0507,-2.9505,-2.8607,-2.8607,-2.7935,-2.6967,-2.5618,-2.4799,-2.3863,-2.2517,-2.2221,-2.1945,-2.1393,-2.0968,-2.0654,-2.0541,-2.0075,-1.9761,-1.966,-1.9246,-1.8907,-1.8694,-1.8268,-1.7944,-1.7702,-1.7585,-1.7278,-1.6747,-1.6031,-1.5444,-1.4987,-1.4387,-1.4289,-1.4648,-1.3929,-1.3743,0.0,0.0,0.0,0.0,0.0,0.0,0.0,0.0,0.0,0.0,0.0,-2.4423,0.0,0.0,-3.0006,-3.1512,-3.2679,-3.38,-3.4895,-3.5064,-3.5064,-3.5064,-3.5371,-3.5741,-3.6107,-3.5778,-3.5685,-3.6042,-3.5713,-3.5504,-3.5504,-3.5504,-3.5504,-3.5504,-3.5504,-3.5504,-3.5504,-3.5504,-3.5504,-3.5504,-3.5504,-3.5504,-3.5504,-3.5504,-3.5504,-3.5504,-3.5504,-3.5701,-3.6054,-3.6054,-3.6054,-3.6006,-3.5636,-3.5733,-3.6006,-3.5651,-3.5718,-3.6006,-3.5651,-3.5504,-3.5504,-3.5504,-3.5504,-3.5444,-3.51,-3.4517,-3.3844,-3.3185,-3.2527,-3.1914,-3.1585,-3.1511,-3.1511,-3.1511,-3.1241,-3.0987,-3.0987,-3.0253,-2.946,-2.9146,-2.8547,-2.7654,-2.6206,-2.5646,-2.4799,-2.2955,-2.2694,-2.2493,-2.197,-2.1656,-2.1307,-2.0754,-2.0427,-2.0138,-1.9823,-1.9309,-1.9008,-1.9008,-1.8505,-1.8204,-1.8204,-1.7918,-1.7703,-1.7599,-1.6575,-1.5977,-1.5836,-1.5347,-1.5215,-1.5449,-1.543,-1.5284,0.0,0.0,0.0,0.0,0.0,0.0,0.0,0.0,-2.2773,-2.4388,-2.6371,-2.818,-2.9416,-3.0855,-3.2222,-3.3423,-3.4235,-3.4928,-3.5515,-3.56,-3.56,-3.56,-3.5602,-3.5828,-3.6437,-3.5899,-3.5763,-3.6353,-3.5846,-3.5504,-3.5504,-3.5504,-3.5504,-3.5504,-3.5504,-3.5504,-3.5504,-3.5504,-3.5504,-3.5504,-3.5504,-3.5504,-3.5504,-3.5504,-3.5504,-3.5504,-3.5636,-3.6149,-3.6813,-3.6813,-3.6813,-3.6768,-3.6006,-3.6086,-3.6492,-3.5782,-3.5863,-3.6306,-3.5701,-3.5504,-3.5504,-3.5504,-3.5504,-3.5504,-3.5504,-3.5026,-3.4399,-3.3844,-3.3125,-3.2392,-3.1824,-3.16,-3.1511,-3.1511,-3.1511,-3.1511,-3.1511,-3.0957,-3.0357,-2.9864,-2.9131,-2.8203,-2.6917,-2.6597,-2.5837,-2.3842,-2.3412,-2.317,-2.2756,-2.2459,-2.197,-2.1106,-2.0918,-2.0666,-2.0162,-1.9722,-1.9484,-1.9484,-1.9095,-1.8844,-1.8844,-1.8265,-1.8161,-1.8602,-1.7299,-1.6746,-1.7013,-1.6626,-1.6365,-1.6232,-1.6562,-1.6543,-1.7456,-1.8078,0.0,-2.123,-2.1005,-2.1463,0.0,0.0,-2.6862,-2.9,-3.0627,-3.1735,-3.1904,-3.3139,-3.4167,-3.4336,-3.5013,-3.5498,-3.5583,-3.56,-3.56,-3.56,-3.5599,-3.564,-3.5733,-3.5625,-3.5618,-3.561,-3.5569,-3.5504,-3.5504,-3.5504,-3.5504,-3.5504,-3.5504,-3.5504,-3.5504,-3.5504,-3.5504,-3.5504,-3.5504,-3.5504,-3.5504,-3.5504,-3.5504,-3.5537,-3.6196,-3.6919,-3.7661,-3.7661,-3.7661,-3.7573,-3.6798,-3.6523,-3.6492,-3.5782,-3.5554,-3.5619,-3.5537,-3.5504,-3.5504,-3.5504,-3.5504,-3.5504,-3.5504,-3.5026,-3.4488,-3.4414,-3.3469,-3.2467,-3.2392,-3.1944,-3.1511,-3.1511,-3.1511,-3.1511,-3.1511,-3.0957,-3.0477,-3.0417,-2.943,-2.8352,-2.7523,-2.6885,-2.6203,-2.5287,-2.4595,-2.415,-2.4084,-2.3036,-2.2259,-2.2133,-2.1681,-2.1368,-2.1333,-2.1242,-2.1217,-2.1217,-2.1154,-2.1117,-2.1117,-2.0625,-2.0559,-2.1081,-1.9844,-1.9061,-1.8807,-1.8123,-1.74,-1.6629,-1.6677,-1.6677,-2.0822,0.0,0.0,0.0,-2.467,-2.5521,-2.7566,-2.8755,-2.9679,-3.0634,-3.2293,-3.3596,-3.3596,-3.4438,-3.5148,0.0,-3.5791,-3.6129,-3.5667,-3.6011,-3.6129,-3.565,-3.56,-3.5604,-3.5582,-3.5562,-3.5534,-3.5494,-3.5504,-3.5504,-3.5504,-3.5504,-3.5504,-3.5504,-3.5504,-3.5504,-3.5504,-3.5504,-3.5504,-3.5504,-3.5504,-3.5504,-3.5504,-3.5504,-3.5718,-3.6196,-3.7424,-3.8145,-3.8442,-3.8442,-3.8206,-3.7719,-3.6904,-3.6337,-3.5926,-3.5619,-3.5504,-3.5504,-3.5504,-3.5504,-3.5504,-3.5504,-3.5504,-3.5504,-3.5504,-3.5295,-3.4996,-3.4623,-3.4114,-3.3484,-3.2706,-3.2273,-3.1974,-3.1585,-3.1511,-3.1511,-3.1511,-3.1271,-3.0957,-3.0582,-3.0073,-2.9379,-2.8326,-2.7918,-2.7489,-2.6791,-2.5701,-2.4794,-2.435,-2.3822,-2.3145,-2.2376,-2.182,-2.1493,-2.1493,-2.1493,-2.1493,-2.1493,-2.1493,-2.1493,-2.1493,-2.1295,-2.1282,-2.1509,-2.056,-1.9996,-1.986,-1.9342,-1.8904,-1.8573,-1.885,-1.8977,-2.3357,0.0,0.0,-2.6566,-2.7889,-2.8867,-2.9204,-3.0615,-3.1922,-3.2149,-3.3434,-3.4489,-3.4489,-3.4776,0.0,-3.5245,-3.596,-3.6265,-3.5667,-3.6282,-3.6485,-3.5701,-3.56,-3.5521,-3.5337,-3.5446,-3.5429,-3.5224,-3.54,-3.5504,-3.5504,-3.5504,-3.5504,-3.5504,-3.5504,-3.5504,-3.5504,-3.5504,-3.5504,-3.5504,-3.5504,-3.5504,-3.5504,-3.5701,-3.6212,-3.6994,-3.8342,-3.9032,-3.9193,-3.8989,-3.858,-3.7991,-3.6994,-3.6275,-3.5782,-3.5587,-3.5504,-3.5504,-3.5504,-3.5504,-3.5504,-3.5504,-3.5504,-3.5504,-3.5504,-3.5504,-3.54,-3.4906,-3.4653,-3.4249,-3.308,-3.2647,-3.2318,-3.166,-3.1511,-3.1511,-3.1511,-3.1511,-3.1361,-3.0881,-3.0627,-3.0208,-2.928,-2.8831,-2.8427,-2.7959,-2.6823,-2.5755,-2.5007,-2.4538,-2.3845,-2.2644,-2.2184,-2.1945,-2.1945,-2.1945,-2.1945,-2.1945,-2.1945,-2.1945,-2.1945,-2.1794,-2.1782,-2.1945,-2.1285,-2.0897,-2.0807,-2.056,-2.0333,-2.0095,-2.0454,-2.0719,0.0,0.0,-2.7495,-2.9634,-3.0342,-3.0856,-3.2151,-3.3013,-3.3713,-3.4369,-3.4509,-3.4489,-3.4489,-3.3931,-3.3711,-3.4421,-3.5165,-3.5616,-3.56,-3.6282,-3.6485,-3.5701,-3.56,-3.5328,0.0,-3.5218,-3.5303,-3.4568,-3.513,-3.5504,-3.5504,-3.5504,-3.5504,-3.5504,-3.5504,-3.5504,-3.5504,-3.5504,-3.5504,-3.5504,-3.5504,-3.5504,-3.5537,-3.6259,-3.6994,-3.7806,-3.858,-3.9342,-3.9995,-3.9219,-3.8881,-3.8718,-3.7188,-3.6584,-3.6477,-3.575,-3.5504,-3.5504,-3.5504,-3.5504,-3.5504,-3.5504,-3.5504,-3.5504,-3.5504,-3.5504,-3.5504,-3.5489,-3.4996,-3.4354,-3.3649,-3.2991,-3.2318,-3.166,-3.1511,-3.1511,-3.1511,-3.1511,-3.1496,-3.1481,-3.0928,-3.0492,-3.0447,-2.9415,-2.8592,-2.8577,-2.7968,-2.728,-2.6537,-2.5175,-2.3989,-2.316,-2.3058,-2.3058,-2.3058,-2.3058,-2.3058,-2.3058,-2.3058,-2.3058,-2.3058,-2.2543,-2.2506,-2.3045,-2.2531,-2.2122,-2.1861,-2.1854,-2.1404,-2.0568,-2.0579,-2.1037,0.0,0.0,-2.9617,-3.1271,-3.2141,-3.2709,-3.3173,-3.4134,-3.4726,-3.4027,-3.3818,-3.3626,-3.3139,-3.2852,-3.2899,-3.3643,-3.525,-3.64,-3.64,-3.7466,-3.7787,-3.6535,-3.6355,0.0,0.0,0.0,0.0,-3.4508,-3.4728,-3.5026,-3.5489,-3.5504,-3.5504,-3.5504,-3.5504,-3.5504,-3.5504,-3.5504,-3.5504,-3.5504,-3.5504,-3.5504,-3.5537,-3.6829,-3.7544,-3.7863,-3.9129,-3.9833,-4.0045,-3.9236,-3.8608,-3.8076,-3.7024,-3.6306,-3.5831,-3.5587,-3.5504,-3.5504,-3.5504,-3.5504,-3.5504,-3.5504,-3.5504,-3.5504,-3.5504,-3.5504,-3.5504,-3.5504,-3.534,-3.4996,-3.4354,-3.3664,-3.3006,-3.2303,-3.1824,-3.1511,-3.1511,-3.1511,-3.1511,-3.1511,-3.1316,-3.1017,-3.0582,-3.0148,-2.9579,-2.8727,-2.7605,-2.6602,-2.5864,-2.4894,-2.4002,-2.3198,-2.3108,-2.3108,-2.3108,-2.3108,-2.3108,-2.3108,-2.3108,-2.3108,-2.3108,-2.2932,-2.292,-2.3108,-2.292,-2.2787,-2.2702,-2.2702,-2.2537,-2.2249,-2.2249,-2.264,0.0,-3.0398,-3.142,-3.3123,-3.3933,-3.4313,-3.4308,-3.4782,-3.4885,-3.3712,-3.2811,-3.2002,-3.1261,-3.0668,-3.0821,-3.2357,-3.4286,-3.5881,-3.6694,-3.8082,-3.8441,-3.693,-3.6729,0.0,0.0,0.0,0.0,-3.4508,-3.4728,-3.504,-3.5489,-3.5504,-3.5504,-3.5504,-3.5504,-3.5504,-3.5504,-3.5504,-3.5504,-3.5504,-3.5504,-3.5504,-3.5554,-3.7101,-3.7632,-3.7456,-3.9005,-3.9532,-3.9226,-3.8398,-3.7803,-3.7308,-3.6508,-3.5926,-3.5504,-3.5504,-3.5504,-3.5504,-3.5504,-3.5504,-3.5504,-3.5504,-3.5504,-3.5504,-3.5504,-3.5504,-3.5504,-3.5504,-3.5504,-3.5355,-3.4651,-3.3978,-3.332,-3.2677,-3.1989,-3.1511,-3.1511,-3.1511,-3.1511,-3.1511,-3.1511,-3.1361,-3.0913,-3.0672,-3.0073,-2.8786,-2.7838,-2.6796,-2.5564,-2.4979,-2.4279,-2.3215,-2.3108,-2.3108,-2.3108,-2.3108,-2.3108,-2.3108,-2.3108,-2.3108,-2.3108,-2.3108,-2.3108,-2.3108,-2.3108,-2.3108,-2.3108,-2.3108,-2.3208,-2.3409,-2.3409,-2.3722,-3.07,-3.1887,-3.2987,-3.5076,-3.56,-3.5583,-3.5549,-3.4945,-3.4172,-3.341,-3.1478,-2.9685,0.0,0.0,-2.7689,-3.056,-3.2384,-3.4187,-3.6432,-3.7986,-3.8338,0.0,0.0,0.0,0.0,0.0,0.0,-3.4535,0.0,-3.5474,-3.5504,-3.5504,-3.5504,-3.5504,-3.5504,-3.5504,-3.5504,-3.5504,-3.5504,-3.5504,-3.5504,-3.5537,-3.5619,-3.7115,-3.7381,-3.6813,-3.827,-3.8497,-3.7777,-3.6934,-3.6615,-3.6523,-3.5782,-3.5504,-3.5504,-3.5504,-3.5504,-3.5504,-3.5504,-3.5504,-3.5504,-3.5504,-3.5504,-3.5504,-3.5504,-3.5504,-3.5504,-3.5504,-3.5504,-3.5355,-3.4728,-3.4038,-3.338,-3.2721,-3.2034,-3.154,-3.1511,-3.1511,-3.1511,-3.1511,-3.1511,-3.1511,-3.1511,-3.0928,-3.0088,-2.8876,-2.8611,-2.7797,-2.573,-2.5453,-2.4866,-2.3335,-2.3155,-2.3125,-2.3108,-2.3108,-2.3108,-2.3108,-2.3108,-2.3108,-2.3108,-2.3108,-2.3108,-2.3108,-2.3108,-2.312,-2.3145,-2.3145,-2.3446,-2.4042,-2.4042,-2.4343,-3.2374,-3.3795,-3.4873,-3.5447,-3.56,-3.5447,-3.4912,-3.3778,-3.2561,-3.1471,-2.9292,-2.725,0.0,0.0,0.0,-2.8602,-3.1399,0.0,-3.5756,-3.6787,0.0,0.0,0.0,-3.6258,-3.5332,-3.5262,0.0,0.0,-3.4936,-3.4966,-3.5474,-3.5504,-3.5504,-3.5504,-3.5504,-3.5504,-3.5504,-3.5504,-3.5504,-3.5504,-3.5504,-3.5782,-3.6368,-3.7338,-3.8007,-3.8342,-3.8728,-3.8799,-3.8509,-3.7158,-3.6615,-3.6523,-3.5782,-3.5504,-3.5504,-3.5504,-3.5504,-3.5504,-3.5504,-3.5504,-3.5504,-3.5504,-3.5504,-3.5504,-3.5504,-3.5504,-3.5504,-3.5504,-3.5504,-3.5459,-3.5295,-3.4741,-3.4099,-3.3395,-3.2736,-3.2108,-3.1615,-3.1511,-3.1511,-3.1511,-3.1511,-3.1511,-3.1511,-3.0928,-3.0387,-3.0058,-2.8744,-2.7393,-2.6342,-2.6229,-2.5646,-2.4134,-2.4002,-2.3738,-2.3155,-2.3108,-2.3108,-2.3108,-2.3108,-2.3108,-2.3108,-2.3108,-2.3108,-2.3108,-2.3108,-2.3321,-2.3778,-2.3778,-2.4067,-2.4587,-2.4587,-2.4895,-3.3575,-3.4726,-3.56,-3.56,-3.5346,-3.4844,-3.3778,-3.2482,-3.0936,-2.8956,-2.6899,0.0,0.0,0.0,0.0,0.0,0.0,0.0,-3.5309,-3.6313,-3.6745,0.0,-3.6609,0.0,-3.5568,-3.5507,-3.5504,0.0,0.0,-3.51,-3.5489,-3.5504,-3.5504,-3.5504,-3.5504,-3.5504,-3.5504,-3.5504,-3.5504,-3.5504,-3.5504,-3.5894,-3.663,-3.7427,-3.8035,-3.8442,0.0,-3.8718,-3.833,-3.7098,-3.6615,-3.6523,-3.5782,-3.5504,-3.5504,-3.5504,-3.5504,-3.5504,-3.5504,-3.5504,-3.5504,-3.5504,-3.5504,-3.5504,-3.5504,-3.5504,-3.5504,-3.5504,-3.5504,-3.5504,-3.5504,-3.4996,-3.4414,-3.4039,-3.32,-3.2392,-3.2019,-3.1705,-3.1511,-3.1511,-3.1511,-3.1511,-3.1511,-3.0908,-3.0293,-3.0013,-2.9013,-2.8051,-2.739,-2.6257,-2.5231,-2.4408,-2.3972,-2.3603,-2.3125,-2.3108,-2.3108,-2.3108,-2.3108,-2.3108,-2.3108,-2.3108,-2.3221,-2.3471,-2.3484,-2.3791,-2.4356,-2.4356,-2.4644,-2.5159,-2.5159,-2.5448,-3.4421,-3.5115,-3.56,-3.56,-3.4979,-3.3964,-3.2496,-3.0986,-2.911,-2.6333,0.0,0.0,-2.169,0.0,-2.3391,-2.6118,0.0,-3.1254,-3.4692,-3.5846,-3.6337,-3.6322,-3.6384,-3.6196,-3.5554,-3.5504,-3.5504,-3.5504,-3.5504,-3.5504,-3.5504,-3.5504,-3.5504,-3.5504,-3.5504,-3.5504,-3.5504,-3.5504,-3.5554,-3.5636,-3.5636,-3.6086,-3.6934,-3.7544,-3.7892,-3.8121,0.0,0.0,-3.7719,-3.6934,-3.6554,-3.6384,-3.575,-3.5504,-3.5504,-3.5504,-3.5504,-3.5504,-3.5504,-3.5504,-3.5504,-3.5504,-3.5504,-3.5504,-3.5504,-3.5504,-3.5504,-3.5504,-3.5504,-3.5504,-3.5504,-3.5055,-3.4623,-3.4533,-3.3529,-3.2617,-3.2512,-3.19,-3.138,-3.1467,-3.1409,-3.138,-3.1467,-3.0925,-3.0261,-2.9696,-2.9434,-2.916,-2.8641,-2.6397,-2.4801,-2.46,-2.3865,-2.3335,-2.3138,-2.3108,-2.3108,-2.3108,-2.3108,-2.3108,-2.3108,-2.3183,-2.3459,-2.3991,-2.4067,-2.4381,-2.4888,-2.4888,-2.5197,-2.5711,-2.5711,-2.6009,-3.5025,-3.5498,-3.56,-3.56,-3.4585,-3.3203,-3.1715,-2.8987,0.0,0.0,0.0,-2.1275,-2.1049,-2.2394,0.0,-2.5618,0.0,0.0,0.0,0.0,-3.4226,0.0,0.0,0.0,0.0,0.0,0.0,0.0,0.0,0.0,-3.5504,-3.5504,-3.5504,-3.5504,-3.5504,-3.5504,-3.5504,-3.5504,-3.5814,-3.6415,-3.6415,-3.7128,-3.8481,-3.7991,-3.8502,-3.9653,0.0,0.0,-3.7719,-3.6934,-3.6259,-3.5668,-3.5554,-3.5504,-3.5504,-3.5504,-3.5504,-3.5504,-3.5504,-3.5504,-3.5504,-3.5504,-3.5504,-3.5504,-3.5504,-3.5504,-3.5504,-3.5504,-3.5504,-3.5504,-3.5504,-3.5415,-3.519,-3.4638,-3.3888,-3.317,-3.2632,-3.1456,-3.0703,-3.138,-3.097,-3.0718,-3.138,-3.138,-3.1248,-3.1129,-3.0134,-2.9551,-3.0048,-2.8786,-2.7397,-2.6172,-2.542,-2.4496,-2.3215,-2.3108,-2.3108,-2.3108,-2.3108,-2.3108,-2.3108,-2.359,-2.3891,-2.4004,-2.4443,-2.4946,-2.546,-2.546,-2.5749,-2.6348,-2.6348,-2.6399,-3.4844,-3.5318,-3.56,-3.56,-3.4201,-3.2385,-3.0658,0.0,0.0,0.0,0.0,-2.0331,-1.9802,0.0,0.0,0.0,0.0,0.0,0.0,0.0,0.0,0.0,0.0,0.0,0.0,0.0,0.0,0.0,0.0,0.0,-3.5504,-3.5504,-3.5504,-3.5504,-3.5504,-3.5504,-3.5504,-3.5504,-3.5668,-3.6023,-3.6415,-3.6978,-3.77,-3.7777,-3.8206,-3.8859,0.0,0.0,-3.7719,-3.6934,-3.6384,-3.6023,-3.5636,-3.5504,-3.5504,-3.5504,-3.5504,-3.5504,-3.5504,-3.5504,-3.5504,-3.5504,-3.5504,-3.5504,-3.5504,-3.5504,-3.5504,-3.5504,-3.5504,-3.5504,-3.5504,-3.5504,-3.5429,-3.51,-3.4233,-3.3124,-3.1676,-3.0802,-3.0419,-3.0807,-3.0554,-3.0554,-3.1351,-3.1161,-3.0866,-3.0866,-3.0308,-3.0016,-3.0353,-2.9913,-2.9049,-2.7598,-2.6445,-2.5341,-2.4296,-2.4176,-2.385,-2.315,-2.3752,-2.3837,-2.312,-2.3935,-2.4431,-2.4431,-2.4946,-2.5498,-2.6084,-2.6084,-2.6223,-2.6499,-2.6499,-2.6499,-3.4404,-3.5047,-3.56,-3.56,-3.3829,-3.1596,-2.9815,-2.7046,0.0,0.0,0.0,-1.9777,-1.8988,0.0,0.0,0.0,0.0,0.0,0.0,0.0,0.0,0.0,0.0,0.0,0.0,0.0,0.0,0.0,0.0,0.0,0.0,-3.5504,-3.5504,-3.5504,-3.5504,-3.5504,-3.5504,-3.5504,-3.5587,-3.5718,-3.6337,-3.6691,-3.6873,-3.7322,-3.7632,-3.7777,0.0,0.0,0.0,-3.6843,-3.6492,-3.6306,-3.5733,-3.5504,-3.5504,-3.5504,-3.5504,-3.5504,-3.5504,-3.5504,-3.5504,-3.5504,-3.5504,-3.5504,-3.5504,-3.5504,-3.5504,-3.5504,-3.5504,-3.5504,-3.5504,-3.5504,-3.5429,-3.5145,-3.4122,-3.2698,-3.0725,-3.0011,-2.9858,-3.0238,-3.0133,-3.0329,-3.1322,-3.097,-3.0554,-3.0554,-3.0554,-3.0554,-3.0554,-3.0658,-3.0283,-2.9186,-2.7569,-2.6344,-2.5711,-2.5595,-2.5123,-2.4082,-2.4998,-2.511,-2.4039,-2.4985,-2.5537,-2.5537,-2.6064,-2.6478,-2.6748,-2.6748,-2.6692,-2.6499,-2.6499,-2.6499,-3.4155,-3.5047,-3.56,-3.56,-3.344,-3.0966,-2.9678,0.0,0.0,0.0,-2.0279,-1.9423,-1.9566,0.0,0.0,0.0,0.0,0.0,0.0,0.0,0.0,0.0,0.0,0.0,0.0,0.0,0.0,0.0,0.0,0.0,0.0,-3.5504,-3.5504,-3.5504,-3.5504,-3.5504,-3.5504,-3.5504,-3.5846,-3.6492,-3.6584,-3.6964,-3.7661,-3.6994,-3.7114,-3.7748,0.0,0.0,0.0,-3.663,-3.6196,-3.5587,-3.5537,-3.5504,-3.5504,-3.5504,-3.5504,-3.5504,-3.5504,-3.5504,-3.5504,-3.5504,-3.5504,-3.5504,-3.5504,-3.5504,-3.5504,-3.5504,-3.5504,-3.5504,-3.5504,-3.5504,-3.519,-3.3963,-3.2985,-3.1936,-3.0603,-2.9066,-2.8395,-2.9981,-2.9659,-2.9628,-3.1219,-3.1438,-3.138,-3.138,-3.138,-3.138,-3.138,-3.1393,-3.1347,-3.123,-2.9405,-2.7897,-2.7157,-2.7098,-2.7055,-2.6927,-2.7041,-2.7041,-2.6927,-2.7528,-2.7899,-2.7899,-2.8414,-2.8341,-2.7571,-2.7571,-2.7196,-2.6499,-2.6499,-2.6499,-3.2829,-3.4032,-3.4945,-3.4945,-3.273,-3.0275,-2.9276,0.0,0.0,-2.1696,-2.0278,-1.9099,-1.9059,-1.9275,0.0,0.0,0.0,0.0,0.0,0.0,0.0,0.0,0.0,0.0,0.0,0.0,0.0,0.0,0.0,0.0,0.0,-3.5504,-3.5504,-3.5504,-3.5504,-3.5504,-3.5504,-3.5504,-3.5636,-3.5943,-3.6384,-3.6538,-3.643,-3.6538,-3.6538,-3.6399,0.0,0.0,0.0,-3.5943,-3.575,-3.5504,-3.5504,-3.5504,-3.5504,-3.5504,-3.5504,-3.5504,-3.5504,-3.5504,-3.5504,-3.5504,-3.5504,-3.5504,-3.5504,-3.5504,-3.5504,-3.5504,-3.5504,-3.5504,-3.5504,-3.5504,-3.516,-3.3814,-3.3223,-3.2328,-3.0021,-2.938,-2.9317,-2.9473,-2.9659,-3.0133,-3.1307,-3.1511,-3.1511,-3.1511,-3.1511,-3.1511,-3.1511,-3.1511,-3.1511,-3.1511,-3.0338,-2.9274,-2.8639,-2.8522,-2.8161,-2.7357,-2.8046,-2.8147,-2.7343,-2.8196,-2.8526,-2.8196,-2.873,-2.8844,-2.8492,-2.8492,-2.8051,-2.7229,-2.7229,-2.6973,-3.1083,-3.2629,-3.3795,-3.3575,-3.1693,-2.957,0.0,0.0,-2.1904,-2.1425,-2.0081,-1.8896,-1.8547,-1.8756,-1.9195,0.0,0.0,0.0,0.0,0.0,0.0,0.0,0.0,0.0,0.0,0.0,0.0,0.0,0.0,0.0,0.0,0.0,-3.5973,-3.5504,-3.5504,-3.5504,-3.5504,-3.5504,-3.5504,-3.5504,-3.6038,-3.6006,-3.5537,-3.6023,-3.6006,0.0,0.0,0.0,0.0,-3.5504,-3.5504,-3.5504,-3.5504,-3.5504,-3.5504,-3.5504,-3.5504,-3.5504,-3.5504,-3.5504,-3.5504,-3.5504,-3.5504,-3.5504,-3.5504,-3.5504,-3.5504,-3.5504,-3.5504,-3.5504,-3.5504,-3.5504,-3.516,-3.3814,-3.3285,-3.2436,-2.9927,-2.9659,-2.9827,-2.9442,-2.9889,-3.0554,-3.1351,-3.1511,-3.1511,-3.1511,-3.1511,-3.1511,-3.1511,-3.1511,-3.1511,-3.1511,-3.0999,-3.0484,-3.0075,-2.9959,-2.9566,-2.8609,-2.9435,-2.9522,-2.8595,-2.9314,-2.9553,-2.9174,-2.9539,-2.9628,-2.938,-2.9129,-2.8556,-2.7703,-2.7451,-2.704,-2.9007,-3.0849,-3.2158,-3.141,-3.032,-2.8901,0.0,-2.4389,-2.1978,-2.0526,-1.9569,-1.8852,-1.83,-1.8215,-1.8592,-1.9798,0.0,0.0,0.0,0.0,0.0,0.0,0.0,0.0,0.0,0.0,0.0,0.0,0.0,0.0,0.0,0.0,-3.7071,-3.5569,-3.5504,-3.5504,-3.5504,-3.5504,-3.5504,-3.5504,-3.5504,-3.5504,-3.5504,-3.5504,0.0,0.0,0.0,0.0,0.0,-3.5504,-3.5504,-3.5504,-3.5504,-3.5504,-3.5504,-3.5504,-3.5504,-3.5504,-3.5504,-3.5504,-3.5504,-3.5504,-3.5504,-3.5504,-3.5504,-3.5504,-3.5504,-3.5504,-3.5504,-3.5504,-3.5504,-3.5504,-3.516,-3.3814,-3.2851,-3.1873,-3.0573,-2.9628,-2.9286,-3.0103,-3.0299,-3.0554,-3.1351,-3.1511,-3.1511,-3.1511,-3.1511,-3.1511,-3.1511,-3.1511,-3.1511,-3.1511,-3.1511,-3.1467,-3.1496,-3.1496,-3.1452,-3.1452,-3.1452,-3.1452,-3.1452,-3.1467,-3.1467,-3.1467,-3.1467,-3.1087,-3.0269,-2.9411,-2.8556,-2.767,-2.6871,-2.6499,-2.6382,-2.7816,-2.8899,-2.8122,-2.7278,-2.6276,-2.4797,-2.3012,-2.138,-2.0399,-1.9398,-1.8614,-1.827,-1.8057,-1.8728,-2.1177,-2.1569,0.0,0.0,0.0,0.0,0.0,0.0,0.0,0.0,0.0,0.0,0.0,0.0,0.0,0.0,0.0,-3.7589,-3.7101,-3.6554,-3.6244,-3.6244,-3.575,-3.5504,-3.5504,-3.5504,-3.5504,-3.5504,-3.5504,0.0,0.0,0.0,0.0,0.0,-3.5504,-3.5504,-3.5504,-3.5504,-3.5504,-3.5504,-3.5504,-3.5504,-3.5504,-3.5504,-3.5504,-3.5504,-3.5504,-3.5504,-3.5504,-3.5504,-3.5504,-3.5504,-3.5504,-3.5504,-3.5504,-3.5504,-3.5504,-3.516,-3.3814,-3.3285,-3.2575,-3.0694,-3.0524,-3.0614,-3.0359,-3.0748,-3.119,-3.1467,-3.1511,-3.1511,-3.1511,-3.1511,-3.1511,-3.1511,-3.1511,-3.1511,-3.1511,-3.1511,-3.1511,-3.1511,-3.1511,-3.1511,-3.1511,-3.1511,-3.1511,-3.1511,-3.1511,-3.1511,-3.1511,-3.1511,-3.138,-3.1117,-3.0299,-2.9129,-2.767,-2.6871,-2.6782,0.0,-2.4998,-2.61,-2.5316,-2.4905,-2.4247,-2.2561,-2.1278,-2.0228,-1.9336,-1.8545,-1.8041,-1.8041,-1.7905,-1.8594,-2.1045,-2.1434,0.0,0.0,0.0,0.0,0.0,0.0,0.0,0.0,0.0,0.0,0.0,0.0,0.0,0.0,0.0,-3.8668,-3.8668,-3.7616,-3.7054,-3.7054,-3.629,-3.5926,-3.5926,-3.5926,-3.5782,-3.5504,0.0,0.0,0.0,0.0,0.0,0.0,-3.5504,-3.5504,-3.5504,-3.5504,-3.5504,-3.5504,-3.5504,-3.5504,-3.5504,-3.5504,-3.5504,-3.5504,-3.5504,-3.5504,-3.5504,-3.5504,-3.5504,-3.5504,-3.5504,-3.5504,-3.5504,-3.5504,-3.531,-3.4846,-3.3754,-3.3305,-3.2706,-3.1101,-3.1161,-3.1351,-3.0837,-3.1161,-3.1511,-3.1511,-3.1511,-3.1511,-3.1511,-3.1511,-3.1511,-3.1511,-3.1511,-3.1511,-3.1511,-3.1511,-3.1511,-3.1511,-3.1511,-3.1511,-3.1511,-3.1511,-3.1511,-3.1511,-3.1511,-3.1511,-3.1511,-3.1511,-3.1511,-3.1511,-3.0359,-2.8939,-2.7229,-2.6714,-2.6782,0.0,-2.2205,-2.3483,-2.2746,-2.2838,-2.2518,-2.0267,-1.9362,0.0,-1.7524,-1.7183,-1.7258,-1.7771,-1.7884,-1.8408,-2.0052,-2.0356,0.0,0.0,0.0,0.0,0.0,0.0,0.0,0.0,0.0,0.0,0.0,0.0,0.0,0.0,0.0,0.0,-4.0096,-3.8723,-3.7937,-3.7863,-3.7084,-3.6707,-3.6707,-3.6707,-3.6337,-3.5668,0.0,0.0,0.0,0.0,0.0,0.0,-3.5619,-3.5619,-3.5587,-3.5651,-3.5619,-3.5587,-3.5587,-3.5569,-3.5504,-3.5504,-3.5504,-3.5504,-3.5504,-3.5504,-3.5504,-3.5554,-3.5537,-3.5504,-3.5504,-3.5504,-3.5489,-3.5444,-3.4966,-3.4339,-3.3589,-3.2961,-3.2303,-3.1645,-3.1511,-3.1511,-3.1511,-3.1511,-3.1511,-3.1511,-3.1511,-3.1511,-3.1511,-3.1511,-3.1511,-3.1511,-3.1511,-3.1511,-3.1511,-3.1511,-3.1511,-3.1511,-3.1511,-3.1511,-3.1511,-3.1511,-3.1511,-3.1511,-3.1511,-3.1511,-3.1511,-3.1511,-3.1467,-3.1409,-2.9797,-2.8182,-2.6589,-2.6521,-2.6521,-1.6858,0.0,-1.9313,-1.8534,-1.8736,-1.882,0.0,-1.7691,-1.7637,-1.6545,0.0,0.0,-1.8444,-1.864,-1.9688,0.0,0.0,0.0,0.0,0.0,0.0,0.0,0.0,0.0,0.0,0.0,0.0,0.0,0.0,0.0,0.0,0.0,0.0,-4.0096,-3.9731,-3.9279,-3.8635,-3.7905,-3.7515,-3.7515,-3.7515,-3.7442,-3.7235,0.0,0.0,0.0,0.0,0.0,-3.5587,-3.6768,-3.6905,-3.6384,-3.7025,-3.6874,-3.6337,-3.6337,-3.5975,-3.5504,-3.5504,-3.5504,-3.5504,-3.5504,-3.5504,-3.5619,-3.6165,-3.5943,-3.5504,-3.5504,-3.5504,-3.5385,-3.4861,-3.4638,-3.4219,-3.3021,-3.2617,-3.2303,-3.1645,-3.1511,-3.1511,-3.1511,-3.1511,-3.1511,-3.1511,-3.1511,-3.1511,-3.1511,-3.1511,-3.1511,-3.1511,-3.1511,-3.1511,-3.1511,-3.1511,-3.1511,-3.1511,-3.1511,-3.1511,-3.1511,-3.1511,-3.1511,-3.1511,-3.1511,-3.1511,-3.1511,-3.1511,-3.119,-3.0584,-2.9504,-2.846,-2.7384,-2.6782,-2.685,-1.5141,-1.6867,-1.8555,-1.8108,-1.8448,-1.87,-1.788,0.0,0.0,0.0,0.0,0.0,0.0,0.0,0.0,0.0,0.0,0.0,0.0,0.0,0.0,0.0,0.0,0.0,0.0,0.0,0.0,0.0,0.0,0.0,0.0,0.0,0.0,0.0,-4.0096,-3.9901,-3.9463,-3.8707,-3.8302,-3.8302,-3.8302,-3.8149,-3.7793,0.0,0.0,0.0,0.0,0.0,-3.6631,-3.7472,-3.7544,-3.7174,-3.7632,-3.7544,-3.71,-3.6737,-3.6368,-3.5943,-3.5619,-3.5504,-3.5504,-3.5504,-3.5733,-3.6086,-3.6477,-3.6337,-3.6006,-3.6006,-3.5778,-3.5365,-3.4688,-3.4054,-3.3395,-3.2677,-3.2258,-3.1929,-3.1585,-3.1511,-3.1511,-3.1511,-3.1511,-3.1511,-3.1511,-3.1511,-3.1511,-3.1511,-3.1511,-3.1511,-3.1511,-3.1511,-3.1511,-3.1511,-3.1511,-3.1511,-3.1511,-3.1511,-3.1511,-3.1511,-3.1511,-3.1511,-3.1511,-3.1511,-3.1511,-3.1511,-3.1511,-3.1087,-3.0299,-2.9827,-2.916,-2.8298,-2.7855,-2.7887,-1.4805,-1.7005,-1.918,-1.8924,-1.9376,-1.9704,-1.9022,0.0,0.0,0.0,0.0,0.0,0.0,0.0,0.0,0.0,0.0,0.0,0.0,0.0,0.0,0.0,0.0,0.0,0.0,0.0,0.0,0.0,0.0,0.0,0.0,0.0,0.0,0.0,-4.0096,-4.0096,-4.0096,-3.9437,-3.9086,-3.9086,-3.9086,-3.8761,-3.8177,-3.8663,0.0,0.0,0.0,0.0,-3.7822,-3.8064,-3.8092,-3.7978,-3.8092,-3.8064,-3.7892,-3.7188,-3.6813,-3.6492,-3.575,-3.5554,-3.5668,-3.5668,-3.6086,-3.663,-3.6873,-3.6873,-3.6783,-3.6783,-3.6119,-3.5262,-3.4556,-3.3425,-3.2452,-3.2363,-3.1914,-3.1511,-3.1511,-3.1511,-3.1511,-3.1511,-3.1511,-3.1511,-3.1511,-3.1511,-3.1511,-3.1511,-3.1511,-3.1511,-3.1511,-3.1511,-3.1511,-3.1511,-3.1511,-3.1511,-3.1511,-3.1511,-3.1511,-3.1511,-3.1511,-3.1511,-3.1511,-3.1511,-3.1511,-3.1511,-3.1511,-3.1161,-3.0494,-3.0359,-2.9919,-2.9192,-2.9066,-2.9002,-1.6156,-1.7718,-1.8624,-1.7205,-1.7638,-1.8388,-1.8274,0.0,0.0,0.0,0.0,0.0,0.0,0.0,0.0,0.0,0.0,0.0,0.0,0.0,0.0,0.0,0.0,0.0,0.0,0.0,0.0,0.0,0.0,0.0,0.0,0.0,0.0,0.0,0.0,-4.0096,-4.0096,-3.9978,-3.9927,-3.9927,-3.9927,-3.9876,-3.9731,-3.9166,-3.8827,0.0,0.0,-3.8386,-3.7892,-3.9199,-3.9358,-3.8799,-3.948,-3.9332,-3.8718,-3.8591,-3.7729,-3.6492,-3.575,-3.5926,-3.6446,-3.6446,-3.6492,-3.6828,-3.8157,-3.8088,-3.7602,-3.7602,-3.6195,-3.451,-3.3815,-3.308,-3.2348,-3.1795,-3.157,-3.1511,-3.1511,-3.1511,-3.1511,-3.1511,-3.1511,-3.1511,-3.1511,-3.1511,-3.1511,-3.1511,-3.1511,-3.1511,-3.1511,-3.1511,-3.1511,-3.1511,-3.1511,-3.1511,-3.1511,-3.1511,-3.1511,-3.1511,-3.1511,-3.1511,-3.1511,-3.1511,-3.1511,-3.1511,-3.1511,-3.1438,-3.1307,-3.0614,-3.0238,-3.0072,-2.9348,-2.9002,-1.4756,-1.6222,-1.7579,-1.7723,-1.921,-2.0633,-2.0586,0.0,0.0,0.0,0.0,0.0,0.0,0.0,0.0,0.0,0.0,0.0,0.0,0.0,0.0,0.0,0.0,0.0,0.0,0.0,0.0,0.0,0.0,0.0,0.0,0.0,0.0,0.0,0.0,0.0,-4.0096,-4.0096,-4.0096,-4.0096,-4.0096,-4.0096,-4.007,-3.9731,-3.9542,0.0,0.0,-3.9358,-3.9119,-3.9825,-3.9876,-3.9584,-3.9952,-3.9859,-3.9489,-3.9059,-3.793,-3.6554,-3.6228,-3.6054,-3.6054,-3.6477,-3.6873,-3.7381,-3.8076,-3.8064,-3.769,-3.7263,-3.5917,-3.4425,-3.3682,-3.2736,-3.1884,-3.157,-3.1511,-3.1511,-3.1511,-3.1511,-3.1511,-3.1511,-3.1511,-3.1511,-3.1511,-3.1511,-3.1511,-3.1511,-3.1511,-3.1511,-3.1511,-3.1511,-3.1511,-3.1511,-3.1511,-3.1511,-3.1511,-3.1511,-3.1511,-3.1511,-3.1511,-3.1511,-3.1511,-3.1511,-3.1511,-3.1511,-3.1511,-3.1511,-3.1511,-3.1117,-3.097,-3.094,-3.0554,-3.0359,-1.3991,-1.5214,-1.6791,-1.8708,0.0,-2.2489,-2.3107,0.0,0.0,0.0,0.0,0.0,0.0,0.0,0.0,0.0,0.0,0.0,0.0,0.0,0.0,0.0,0.0,0.0,0.0,0.0,0.0,0.0,0.0,0.0,0.0,0.0,0.0,0.0,0.0,0.0,-4.0096,-4.0096,-4.0096,-4.0096,-4.0096,-4.0096,-4.0096,-4.0096,-4.0096,-4.0096,-4.0096,-4.0096,-4.0096,-4.0096,-4.0096,-4.0096,-4.0096,-4.0096,-3.9995,-3.9209,-3.827,-3.7365,-3.7024,-3.6631,-3.6384,-3.6964,-3.7557,-3.8064,-3.8064,-3.7921,-3.76,-3.6626,-3.556,-3.4486,-3.3698,-3.2631,-3.1768,-3.1768,-3.1768,-3.1768,-3.1768,-3.1611,-3.1511,-3.1511,-3.1511,-3.1511,-3.1511,-3.1511,-3.1553,-3.1739,-3.1768,-3.1809,-3.1964,-3.1992,-3.1992,-3.1992,-3.1838,-3.1697,-3.1496,-3.1511,-3.1511,-3.1511,-3.1511,-3.1511,-3.1511,-3.1511,-3.1511,-3.1511,-3.1511,-3.1511,-3.1511,-3.1511,-3.1511,-3.1511,-3.1511,-3.1511,-1.6034,-1.6399,-1.6747,-1.9353,-2.0487,0.0,-2.4247,-2.5,0.0,-2.7097,0.0,0.0,0.0,0.0,0.0,0.0,0.0,0.0,0.0,0.0,0.0,0.0,0.0,0.0,0.0,0.0,0.0,0.0,0.0,0.0,0.0,0.0,0.0,0.0,0.0,0.0,-4.0096,-4.0096,-4.0096,-4.0096,-4.0096,-4.0096,-4.0096,-4.0096,-4.0096,-4.0096,-4.0096,-4.0096,-4.0096,-4.0096,-4.0096,-4.0096,-4.0096,-4.0096,-3.9995,-3.9209,-3.9315,-3.9636,-3.8206,-3.8133,-3.8646,-3.8701,-3.8772,-3.8827,-3.8827,-3.833,-3.7504,-3.6079,-3.5098,-3.4352,-3.3683,-3.3011,-3.252,-3.252,-3.252,-3.252,-3.252,-3.1979,-3.1511,-3.1511,-3.1511,-3.1511,-3.1511,-3.1511,-3.1739,-3.241,-3.252,-3.2734,-3.3365,-3.3469,-3.3469,-3.3469,-3.2879,-3.2244,-3.1553,-3.1511,-3.1511,-3.1511,-3.1511,-3.1511,-3.1511,-3.1511,-3.1511,-3.1511,-3.1511,-3.1511,-3.1511,-3.1511,-3.1511,-3.1511,-3.1511,-3.1511,-1.4285,-1.5612,-1.7083,-1.9105,-2.1075,0.0,0.0,-2.6298,-2.7667,-2.9265,0.0,0.0,0.0,0.0,0.0,0.0,0.0,0.0,0.0,0.0,0.0,0.0,0.0,0.0,0.0,0.0,0.0,0.0,0.0,0.0,0.0,0.0,0.0,0.0,0.0,0.0,0.0,-4.0096,-4.0096,-4.0096,-4.0096,-4.0096,-4.0096,-4.0096,-4.0096,-4.0096,-4.0096,-4.0096,-4.0096,-4.0096,-4.0096,-4.0096,-4.0096,-4.0096,-4.007,-3.9756,-3.9516,-3.9262,-3.869,-3.8358,-3.8274,-3.8745,-3.858,-3.8234,-3.8234,-3.7371,-3.6232,-3.5187,-3.4406,-3.382,-3.3563,-3.3364,-3.3209,-3.3209,-3.3209,-3.3119,-3.2695,-3.2707,-3.2555,-3.1653,-3.2201,-3.2664,-3.2272,-3.2516,-3.2906,-3.3182,-3.3209,-3.3313,-3.3572,-3.3582,-3.3582,-3.3582,-3.2986,-3.2299,-3.1553,-3.1511,-3.1511,-3.1511,-3.1511,-3.1511,-3.1511,-3.1511,-3.1511,-3.1511,-3.1511,-3.1511,-3.1511,-3.1511,-3.1511,-3.1511,-3.1511,-3.1511,-1.3904,-1.577,-1.7942,0.0,0.0,0.0,-2.605,-2.756,-2.9213,0.0,0.0,0.0,0.0,0.0,0.0,0.0,0.0,0.0,0.0,0.0,0.0,0.0,0.0,0.0,0.0,0.0,0.0,0.0,0.0,0.0,0.0,0.0,0.0,0.0,0.0,0.0,0.0,-4.0096,-4.0096,-4.0096,-4.0096,-4.0096,-4.0096,-4.0096,-4.0096,-4.0096,-4.0096,-4.0096,-4.0096,-4.0096,-4.0096,-4.0096,-4.0096,-4.0096,-4.0096,-4.0096,-3.9756,-3.9289,-3.9289,-3.8951,-3.8596,-3.9113,-3.8924,-3.8486,-3.8218,-3.7294,-3.6088,-3.5152,-3.4532,-3.4103,-3.3909,-3.3866,-3.3912,-3.3912,-3.3912,-3.3786,-3.3339,-3.3443,-3.3313,-3.2351,-3.2944,-3.3469,-3.2986,-3.3287,-3.3659,-3.3887,-3.3912,-3.3987,-3.4186,-3.4227,-3.4078,-3.3633,-3.3198,-3.2516,-3.1582,-3.1511,-3.1511,-3.1511,-3.1511,-3.1511,-3.1511,-3.1511,-3.1511,-3.1511,-3.1511,-3.1511,-3.1511,-3.1511,-3.1511,-3.1511,-3.1511,-3.1511,-1.5698,-1.7315,0.0,0.0,0.0,0.0,0.0,-2.8886,-3.0264,0.0,0.0,0.0,0.0,0.0,0.0,0.0,0.0,0.0,0.0,0.0,0.0,0.0,0.0,0.0,0.0,0.0,0.0,0.0,0.0,0.0,0.0,0.0,0.0,0.0,0.0,0.0,0.0,-4.0079,-4.0079,-4.0079,-4.0096,-4.0096,-4.0096,-4.0096,-4.0096,-4.0096,-4.0096,-4.0096,-4.0096,-4.0096,-4.0096,-4.0096,-4.0096,-4.0096,-4.0096,-4.0096,-4.0096,-4.0096,-4.0096,-4.0096,-4.0096,-4.0096,-4.0096,-3.9927,-3.9123,-3.8371,-3.7488,-3.6077,-3.5633,-3.544,-3.4773,-3.46,-3.46,-3.46,-3.46,-3.46,-3.46,-3.4087,-3.3624,-3.3582,-3.3608,-3.3624,-3.3608,-3.3608,-3.3836,-3.4503,-3.46,-3.4847,-3.5515,-3.56,-3.5091,-3.3735,-3.3608,-3.3024,-3.164,-3.1496,-3.1511,-3.1511,-3.1511,-3.1511,-3.1511,-3.1511,-3.1511,-3.1511,-3.1511,-3.1511,-3.1511,-3.1511,-3.1511,-3.1511,-3.1511,-3.1511,-1.486,0.0,0.0,0.0,0.0,0.0,0.0,0.0,0.0,0.0,0.0,0.0,0.0,0.0,0.0,0.0,0.0,0.0,0.0,0.0,0.0,0.0,0.0,0.0,0.0,0.0,0.0,0.0,0.0,0.0,0.0,0.0,0.0,0.0,0.0,0.0,0.0,0.0,-3.8548,-3.8565,-3.9073,-3.9605,-4.0096,-4.0096,-4.0096,-4.0096,-4.0096,-4.0096,-4.0096,-4.0096,-4.0096,-4.0096,-4.0096,-4.0096,-4.0096,-4.0096,-4.0096,-4.0096,-4.0096,-4.0096,-4.0096,-4.0096,-3.9378,-3.8437,-3.8193,-3.6926,-3.5454,-3.5033,-3.4913,-3.4831,-3.4642,-3.4941,-3.5316,-3.5316,-3.5316,-3.5184,-3.4712,-3.4823,-3.4728,-3.3786,-3.435,-3.4864,-3.4382,-3.4688,-3.5052,-3.5276,-3.5316,-3.5385,-3.5577,-3.56,-3.527,-3.4406,-3.3887,-3.3235,-3.2355,-3.1796,-3.1511,-3.1511,-3.1511,-3.1511,-3.1511,-3.1511,-3.1511,-3.1511,-3.1511,-3.1511,-3.1511,-3.1511,-3.1511,-3.1511,-3.1511,-3.1511,-1.6224,0.0,0.0,0.0,0.0,0.0,0.0,0.0,0.0,0.0,0.0,0.0,0.0,0.0,0.0,0.0,0.0,0.0,0.0,0.0,0.0,0.0,0.0,0.0,0.0,0.0,0.0,0.0,0.0,0.0,0.0,0.0,0.0,0.0,0.0,0.0,0.0,0.0,0.0,-3.7922,-3.8345,-3.8802,-3.9266,-3.9842,-4.0096,-4.0096,-4.0096,-4.0096,-4.0096,-4.0096,-4.0096,-4.0096,-4.0096,-4.0096,-4.0096,-4.0096,-3.991,-3.9673,-3.9673,-3.9462,-3.9249,-3.9249,-3.8597,-3.7835,-3.7835,-3.6736,-3.5454,-3.5454,-3.5242,-3.4988,-3.4988,-3.5316,-3.56,-3.56,-3.56,-3.5492,-3.5075,-3.5299,-3.5362,-3.4544,-3.5045,-3.547,-3.5075,-3.5339,-3.56,-3.56,-3.56,-3.56,-3.56,-3.56,-3.5339,-3.4688,-3.4235,-3.3735,-3.3039,-3.2355,-3.1923,-3.1923,-3.1668,-3.1511,-3.1511,-3.1511,-3.1511,-3.1511,-3.1511,-3.1511,-3.1511,-3.1511,-3.1511,-3.1511,-3.1511,-3.1511,0.0,0.0,0.0,0.0,0.0,0.0,0.0,0.0,0.0,0.0,0.0,0.0,0.0,0.0,0.0,0.0,0.0,0.0,0.0,0.0,0.0,0.0,0.0,0.0,0.0,0.0,0.0,0.0,0.0,0.0,0.0,0.0,0.0,0.0,0.0,0.0,0.0,0.0,0.0,0.0,-3.777,-3.7804,-3.7855,-3.9242,-3.991,-3.991,-3.9977,-4.0011,-4.0011,-4.0011,-4.0045,-4.0096,-4.0096,-4.0096,-4.0096,-4.0028,-3.9588,-3.8988,-3.892,-3.8464,-3.7905,-3.7905,-3.7855,-3.7804,-3.7804,-3.728,-3.6694,-3.6694,-3.6163,-3.56,-3.56,-3.56,-3.56,-3.56,-3.56,-3.56,-3.56,-3.56,-3.56,-3.56,-3.56,-3.56,-3.56,-3.56,-3.56,-3.56,-3.56,-3.56,-3.56,-3.56,-3.5362,-3.4759,-3.464,-3.4358,-3.3735,-3.3066,-3.2668,-3.2586,-3.1951,-3.1582,-3.1511,-3.1511,-3.1511,-3.1511,-3.1511,-3.1511,-3.1511,-3.1511,-3.1511,-3.1511,-3.1511,-3.1511,0.0,0.0,0.0,0.0,0.0,0.0,0.0,0.0,0.0,0.0,0.0,0.0,0.0,0.0,0.0,0.0,0.0,0.0,0.0,0.0,0.0,0.0,0.0,0.0,0.0,0.0,0.0,0.0,0.0,0.0,0.0,0.0,0.0,0.0,0.0,0.0,-3.609,-3.609,-3.609,0.0,-3.6721,-3.7049,-3.7083,-3.7956,-3.8379,-3.8413,-3.8988,-3.9225,-3.9225,-3.9225,-3.9588,-4.0096,-4.0096,-4.0096,-4.0028,-3.9445,-3.9123,-3.8903,-3.8345,-3.8041,-3.7905,-3.7905,-3.7499,-3.7049,-3.7049,-3.6485,-3.5853,-3.5853,-3.5718,-3.56,-3.56,-3.56,-3.56,-3.56,-3.56,-3.56,-3.56,-3.56,-3.56,-3.56,-3.56,-3.56,-3.56,-3.56,-3.56,-3.56,-3.56,-3.56,-3.56,-3.56,-3.5538,-3.5385,-3.4918,-3.4528,-3.4406,-3.3761,-3.3172,-3.2641,-3.2465,-3.2092,-3.1524,-3.1511,-3.1511,-3.1511,-3.1511,-3.1511,-3.1511,-3.1511,-3.1511,-3.1511,-3.1511,-3.1511,0.0,0.0,0.0,0.0,0.0,0.0,0.0,0.0,0.0,0.0,0.0,0.0,0.0,0.0,0.0,0.0,0.0,0.0,0.0,0.0,0.0,0.0,0.0,0.0,0.0,0.0,0.0,0.0,0.0,0.0,0.0,0.0,0.0,0.0,0.0,0.0,-3.56,-3.56,-3.56,-3.56,-3.6028,-3.6231,-3.6265,-3.7398,-3.7905,-3.7922,-3.8311,-3.8464,-3.8464,-3.8464,-3.87,-3.9039,-3.9039,-3.9039,-3.8988,-3.8616,-3.8244,-3.7872,-3.7499,-3.7127,-3.6783,-3.6783,-3.6552,-3.6231,-3.6231,-3.5943,-3.56,-3.56,-3.56,-3.56,-3.56,-3.56,-3.56,-3.56,-3.56,-3.56,-3.56,-3.56,-3.56,-3.56,-3.56,-3.56,-3.56,-3.56,-3.56,-3.56,-3.56,-3.56,-3.56,-3.56,-3.56,-3.56,-3.5293,-3.5075,-3.5075,-3.4455,-3.3937,-3.3582,-3.3277,-3.2906,-3.2501,-3.2516,-3.2173,-3.1496,-3.1511,-3.1511,-3.1511,-3.1511,-3.1511,-3.1511,-3.1511,-3.1511,0.0,0.0,0.0,0.0,0.0,0.0,0.0,0.0,0.0,0.0,0.0,0.0,0.0,0.0,0.0,0.0,0.0,0.0,0.0,0.0,0.0,0.0,0.0,0.0,0.0,0.0,0.0,0.0,0.0,0.0,0.0,0.0,0.0,0.0,0.0,-3.56,-3.56,-3.56,-3.56,-3.56,-3.56,-3.56,-3.5633,-3.6918,-3.7493,-3.7516,-3.7652,-3.7719,-3.7719,-3.7719,-3.7787,-3.7905,-3.7905,-3.7905,-3.7889,-3.777,-3.7313,-3.6778,-3.6643,-3.6163,-3.56,-3.56,-3.56,-3.56,-3.56,-3.56,-3.56,-3.56,-3.56,-3.56,-3.56,-3.56,-3.56,-3.56,-3.56,-3.56,-3.56,-3.56,-3.56,-3.56,-3.56,-3.56,-3.56,-3.56,-3.56,-3.56,-3.56,-3.56,-3.56,-3.56,-3.56,-3.56,-3.56,-3.56,-3.56,-3.5098,-3.4712,-3.46,-3.4087,-3.371,-3.3608,-3.3582,-3.305,-3.1894,-3.1739,-3.1697,-3.1697,-3.1553,-3.1511,-3.1511,-3.1511,-3.1511,0.0,0.0,0.0,0.0,0.0,0.0,0.0,0.0,0.0,0.0,0.0,0.0,0.0,0.0,0.0,0.0,0.0,0.0,0.0,0.0,0.0,0.0,0.0,0.0,0.0,0.0,0.0,0.0,0.0,0.0,0.0,0.0,-3.5139,-3.4663,-3.5261,0.0,-3.56,-3.56,-3.56,-3.56,-3.56,-3.56,-3.56,-3.5802,-3.5904,-3.5938,-3.6637,-3.6948,-3.6948,-3.6948,-3.7313,-3.7905,-3.7905,-3.7905,-3.7821,-3.7161,-3.688,-3.6711,-3.6011,-3.5684,-3.56,-3.56,-3.56,-3.56,-3.56,-3.56,-3.56,-3.56,-3.56,-3.56,-3.56,-3.56,-3.56,-3.56,-3.56,-3.56,-3.56,-3.56,-3.56,-3.56,-3.56,-3.56,-3.56,-3.56,-3.56,-3.56,-3.56,-3.56,-3.56,-3.56,-3.56,-3.56,-3.56,-3.56,-3.56,-3.5515,-3.523,-3.464,-3.4503,-3.4211,-3.3608,-3.3582,-3.3505,-3.3323,-3.2761,-3.2465,-3.2465,-3.1796,-3.1511,-3.1511,-3.1511,-3.1511,0.0,0.0,0.0,0.0,0.0,0.0,0.0,0.0,0.0,0.0,0.0,0.0,0.0,0.0,0.0,0.0,0.0,0.0,0.0,0.0,0.0,0.0,0.0,0.0,0.0,0.0,0.0,0.0,0.0,0.0,0.0,-3.5314,-3.5038,-3.4305,-3.459,0.0,-3.4979,-3.4979,-3.5199,-3.56,-3.56,-3.56,-3.56,-3.56,-3.56,-3.5616,-3.5977,-3.6129,-3.6129,-3.6129,-3.6332,-3.6597,-3.6597,-3.6597,-3.6563,-3.6248,-3.6129,-3.6079,-3.5718,-3.56,-3.56,-3.56,-3.56,-3.56,-3.56,-3.56,-3.56,-3.56,-3.56,-3.56,-3.56,-3.56,-3.56,-3.56,-3.56,-3.56,-3.56,-3.56,-3.56,-3.56,-3.56,-3.56,-3.56,-3.56,-3.56,-3.56,-3.56,-3.56,-3.56,-3.56,-3.56,-3.56,-3.56,-3.56,-3.56,-3.56,-3.547,-3.5184,-3.5161,-3.5028,-3.4728,-3.4728,-3.4728,-3.4728,-3.3313,-3.2586,-3.2586,-3.1853,-3.1511,-3.1511,-3.1511,-3.1511,0.0,0.0,0.0,0.0,0.0,0.0,0.0,0.0,0.0,0.0,0.0,0.0,0.0,0.0,0.0,0.0,0.0,0.0,0.0,0.0,0.0,0.0,0.0,0.0,0.0,0.0,0.0,0.0,0.0,0.0,-3.4934,-3.4986,-3.464,-3.385,-3.4002,-3.4143,-3.4218,-3.4404,-3.4776,-3.5312,-3.5498,-3.56,-3.56,-3.56,-3.56,-3.56,-3.56,-3.56,-3.56,-3.56,-3.56,-3.56,-3.56,-3.56,-3.56,-3.56,-3.56,-3.56,-3.56,-3.56,-3.56,-3.56,-3.56,-3.56,-3.56,-3.56,-3.56,-3.56,-3.56,-3.56,-3.56,-3.56,-3.56,-3.56,-3.56,-3.56,-3.56,-3.56,-3.56,-3.56,-3.56,-3.56,-3.56,-3.56,-3.56,-3.56,-3.56,-3.56,-3.56,-3.56,-3.56,-3.56,-3.56,-3.56,-3.56,-3.56,-3.56,-3.56,-3.56,-3.56,-3.56,-3.56,-3.56,-3.56,-3.3953,-3.3013,-3.2841,-3.1951,-3.1511,-3.1511,-3.1511,-3.1511,0.0,0.0,0.0,0.0,0.0,0.0,0.0,0.0,0.0,0.0,0.0,0.0,0.0,0.0,0.0,0.0,0.0,0.0,0.0,0.0,0.0,0.0,0.0,0.0,0.0,0.0,0.0,0.0,0.0,0.0,-3.3325,-3.3565,-3.3495,-3.3072,-3.3744,-3.3885,-3.3457,-3.415,-3.4506,-3.4556,-3.5261,-3.56,-3.56,-3.56,-3.56,-3.56,-3.56,-3.56,-3.56,-3.56,-3.56,-3.56,-3.56,-3.56,-3.56,-3.56,-3.56,-3.56,-3.56,-3.56,-3.56,-3.56,-3.56,-3.56,-3.56,-3.56,-3.56,-3.56,-3.56,-3.56,-3.56,-3.56,-3.56,-3.56,-3.56,-3.56,-3.56,-3.56,-3.56,-3.56,-3.56,-3.56,-3.56,-3.56,-3.56,-3.56,-3.56,-3.56,-3.56,-3.56,-3.56,-3.56,-3.56,-3.56,-3.56,-3.56,-3.56,-3.56,-3.56,-3.56,-3.56,-3.56,-3.56,-3.56,-3.4871,-3.4186,-3.3531,-3.2173,-3.1511,-3.1511,-3.1511,-3.1511,0.0,0.0,0.0,0.0,0.0,0.0,0.0,0.0,0.0,0.0,0.0,0.0,0.0,0.0,0.0,0.0,0.0,0.0,0.0,0.0,0.0,0.0,0.0,0.0,0.0,0.0,0.0,0.0,0.0,0.0,-3.3578,-3.3691,-3.3409,-3.2704,-3.295,-3.2955,-3.2699,-3.3423,-3.3795,-3.3795,-3.4044,-3.418,-3.4218,-3.4675,-3.4895,-3.4928,-3.538,-3.56,-3.56,-3.56,-3.56,-3.56,-3.56,-3.56,-3.56,-3.56,-3.56,-3.56,-3.56,-3.56,-3.56,-3.56,-3.56,-3.56,-3.56,-3.56,-3.56,-3.56,-3.56,-3.56,-3.56,-3.56,-3.56,-3.56,-3.56,-3.56,-3.56,-3.56,-3.56,-3.56,-3.56,-3.56,-3.56,-3.56,-3.56,-3.56,-3.56,-3.56,-3.56,-3.56,-3.56,-3.56,-3.56,-3.56,-3.56,-3.56,-3.56,-3.56,-3.5165,-3.4895,-3.4895,-3.4895,-3.4895,-3.4895,-3.4708,-3.4479,-3.4235,-3.2879,-3.1974,-3.1546,-3.1091,-3.0657,-1.2401,0.0,0.0,0.0,0.0,0.0,0.0,0.0,0.0,0.0,0.0,0.0,0.0,0.0,0.0,0.0,0.0,0.0,0.0,0.0,0.0,0.0,0.0,0.0,0.0,0.0,0.0,0.0,0.0,0.0,-3.3775,-3.368,-3.3255,-3.2517,-3.2231,-3.201,-3.1921,-3.2645,-3.3034,-3.3034,-3.3288,-3.3406,-3.3423,-3.3914,-3.4269,-3.4523,-3.503,-3.5363,-3.56,-3.56,-3.56,-3.56,-3.56,-3.56,-3.56,-3.56,-3.56,-3.56,-3.56,-3.56,-3.56,-3.56,-3.56,-3.56,-3.56,-3.56,-3.56,-3.56,-3.56,-3.56,-3.56,-3.56,-3.56,-3.56,-3.56,-3.56,-3.56,-3.56,-3.56,-3.56,-3.56,-3.56,-3.56,-3.56,-3.5515,-3.5261,-3.5228,-3.5228,-3.5228,-3.5228,-3.5329,-3.5566,-3.56,-3.56,-3.56,-3.5363,-3.5228,-3.5228,-3.4539,-3.4134,-3.4134,-3.4134,-3.4134,-3.4134,-3.4158,-3.4187,-3.4187,-3.2905,-3.1905,-3.1197,-3.0534,-2.9968,0.0,0.0,0.0,0.0,0.0,0.0,0.0,0.0,0.0,0.0,0.0,0.0,0.0,0.0,0.0,0.0,0.0,0.0,0.0,0.0,0.0,0.0,0.0,0.0,0.0,0.0,0.0,0.0,0.0,-3.3335,-3.372,-3.3368,-3.295,-3.2517,-3.1657,-3.119,-3.119,-3.1921,-3.2276,-3.2276,-3.2983,-3.3339,-3.3339,-3.3372,-3.3761,-3.4438,-3.4455,-3.4878,-3.5532,-3.5583,-3.56,-3.56,-3.56,-3.56,-3.56,-3.56,-3.56,-3.56,-3.56,-3.56,-3.56,-3.56,-3.56,-3.56,-3.56,-3.56,-3.56,-3.5622,-3.5605,-3.5622,-3.5627,-3.5644,-3.5605,-3.5605,-3.5622,-3.56,-3.56,-3.56,-3.56,-3.56,-3.56,-3.5583,-3.5566,-3.5566,-3.5312,-3.4573,-3.4455,-3.4455,-3.4455,-3.4455,-3.4742,-3.5447,-3.5532,-3.5532,-3.5532,-3.4878,-3.4455,-3.4455,-3.3778,-3.3372,-3.3372,-3.3372,-3.3372,-3.3372,-3.3389,-3.3389,-3.3351,-3.2174,-3.1244,-3.051,-2.9879,-2.9574,-1.1618,0.0,0.0,0.0,0.0,0.0,0.0,0.0,0.0,0.0,0.0,0.0,0.0,0.0,0.0,0.0,0.0,0.0,0.0,0.0,0.0,0.0,0.0,0.0,0.0,0.0,0.0,0.0,0.0,-3.1955,-3.2063,-3.1902,-3.2046,-3.2483,-3.1657,-3.119,-3.119,-3.1393,-3.1495,-3.1495,-3.1715,-3.1799,-3.1833,-3.2357,-3.2716,-3.2936,-3.3474,-3.3829,-3.4078,-3.516,-3.56,-3.56,-3.56,-3.56,-3.56,-3.56,-3.56,-3.56,-3.56,-3.56,-3.56,-3.56,-3.56,-3.56,-3.56,-3.56,-3.5672,-3.6075,-3.6182,-3.627,-3.6664,-3.646,-3.6182,-3.6182,-3.5876,-3.56,-3.56,-3.56,-3.56,-3.56,-3.56,-3.543,-3.4895,-3.4793,-3.4556,-3.3829,-3.3711,-3.3711,-3.3711,-3.3711,-3.3795,-3.3977,-3.4015,-3.4015,-3.4015,-3.3829,-3.3711,-3.3711,-3.3,-3.2615,-3.2615,-3.2615,-3.2615,-3.2615,-3.3136,-3.3136,-3.2594,-3.2311,-3.1817,-3.1112,-2.9529,-2.8805,0.0,0.0,0.0,0.0,0.0,0.0,0.0,0.0,0.0,0.0,0.0,0.0,0.0,0.0,0.0,0.0,0.0,0.0,0.0,0.0,0.0,0.0,0.0,0.0,0.0,0.0,0.0,0.0,-3.1397,-3.1397,-3.1397,-3.1207,-3.1384,-3.1988,-3.1321,-3.1028,-3.121,-3.119,-3.119,-3.119,-3.119,-3.119,-3.1207,-3.165,-3.2125,-3.2613,-3.3037,-3.3499,-3.4005,-3.4863,-3.5027,-3.4704,-3.503,-3.5148,-3.5182,-3.5481,-3.56,-3.56,-3.56,-3.5739,-3.5941,-3.5941,-3.6097,-3.627,-3.627,-3.627,-3.6316,-3.6643,-3.6724,-3.6803,-3.7133,-3.698,-3.6724,-3.6724,-3.6333,-3.5941,-3.5941,-3.5506,-3.5228,-3.5532,-3.56,-3.5363,-3.4624,-3.4489,-3.415,-3.3102,-3.2933,-3.2933,-3.2933,-3.2933,-3.3051,-3.3372,-3.3406,-3.3406,-3.3406,-3.3119,-3.2933,-3.2933,-3.2259,-3.1853,-3.1853,-3.1853,-3.1853,-3.1853,-3.2256,-3.2273,-3.1853,-3.1938,-3.1478,-3.0538,-2.9416,-2.8873,0.0,0.0,0.0,0.0,0.0,0.0,0.0,-1.9063,0.0,0.0,0.0,0.0,0.0,0.0,0.0,0.0,0.0,0.0,0.0,0.0,0.0,0.0,0.0,0.0,0.0,0.0,0.0,-3.114,-3.114,-3.1176,-3.1268,-3.0889,-3.084,-3.1221,-3.0836,-3.0778,-3.1133,-3.1196,-3.119,-3.119,-3.119,-3.123,-3.1271,-3.1271,-3.1882,-3.2939,-3.2939,-3.3525,-3.4465,-3.4465,-3.411,-3.3607,-3.427,-3.4508,-3.4593,-3.5251,-3.5489,-3.5506,-3.5591,-3.5887,-3.6235,-3.6322,-3.6611,-3.6943,-3.7032,-3.6978,-3.6926,-3.7,-3.7126,-3.7235,-3.7235,-3.7251,-3.7267,-3.7267,-3.6812,-3.6318,-3.6295,-3.5313,-3.4621,-3.525,-3.5363,-3.5109,-3.437,-3.4252,-3.3778,-3.2395,-3.2175,-3.2175,-3.2175,-3.2175,-3.2429,-3.3085,-3.3169,-3.3169,-3.3169,-3.2544,-3.2175,-3.2175,-3.1546,-3.119,-3.119,-3.119,-3.119,-3.119,-3.119,-3.119,-3.119,-3.1312,-3.0773,-2.9607,-2.954,-2.9496,0.0,0.0,0.0,0.0,0.0,0.0,0.0,-1.658,0.0,0.0,0.0,0.0,0.0,0.0,0.0,0.0,0.0,0.0,0.0,0.0,0.0,0.0,0.0,0.0,0.0,0.0,-2.9464,-2.9464,-2.9464,-2.9739,-3.0393,-3.0041,-3.016,-3.088,-3.0706,-3.0645,-3.0729,-3.1045,-3.119,-3.119,-3.119,-3.137,-3.1678,-3.1678,-3.202,-3.2596,-3.2596,-3.2717,-3.2926,-3.2926,-3.353,-3.4474,-3.4596,-3.4649,-3.4684,-3.4824,-3.4894,-3.4981,-3.5631,-3.5495,-3.5148,-3.58,-3.5627,-3.5295,-3.5949,-3.5702,-3.5279,-3.5715,-3.66,-3.7432,-3.7432,-3.7611,-3.7755,-3.7755,-3.6844,-3.5917,-3.5581,-3.4809,-3.4123,-3.3859,-3.3846,-3.3592,-3.2869,-3.2733,-3.2429,-3.1565,-3.141,-3.141,-3.141,-3.141,-3.1461,-3.1613,-3.163,-3.163,-3.163,-3.1495,-3.141,-3.141,-3.1275,-3.119,-3.119,-3.119,-3.119,-3.119,-3.119,-3.119,-3.119,-3.1227,-3.111,-3.0838,-3.0351,-3.0123,0.0,0.0,0.0,-2.0023,0.0,0.0,0.0,0.0,0.0,0.0,0.0,0.0,0.0,0.0,0.0,0.0,0.0,0.0,0.0,0.0,0.0,0.0,0.0,0.0,0.0,0.0,-2.7959,-2.8374,-2.8411,-2.876,-2.9555,-2.9405,-2.958,-3.0183,-3.014,-3.0187,-3.0346,-3.0942,-3.1126,-3.0905,-3.1524,-3.1824,-3.1825,-3.2039,-3.2417,-3.284,-3.284,-3.295,-3.3148,-3.3148,-3.3586,-3.4229,-3.4195,-3.4147,-3.42,-3.4553,-3.4694,-3.4747,-3.5171,-3.5208,-3.5185,-3.5578,-3.5605,-3.557,-3.5984,-3.5822,-3.5546,-3.582,-3.6394,-3.6905,-3.6905,-3.6997,-3.7116,-3.7116,-3.6381,-3.5651,-3.5438,-3.4436,-3.3477,-3.3259,-3.2709,-3.229,-3.231,-3.2293,-3.2056,-3.1309,-3.119,-3.119,-3.119,-3.119,-3.119,-3.119,-3.119,-3.119,-3.119,-3.119,-3.119,-3.119,-3.119,-3.119,-3.119,-3.119,-3.119,-3.119,-3.119,-3.119,-3.119,-3.119,-3.119,-3.119,-3.0878,-3.074,0.0,0.0,0.0,0.0,0.0,-2.0677,0.0,0.0,0.0,0.0,0.0,0.0,0.0,0.0,0.0,0.0,0.0,0.0,0.0,0.0,0.0,0.0,0.0,0.0,0.0,0.0,-2.6539,-2.7493,-2.7273,-2.7585,-2.8712,-2.8767,-2.8985,-2.9479,-2.9562,-2.9729,-2.9999,-3.0698,-3.0964,-3.0751,-3.1788,-3.2191,-3.2074,-3.245,-3.2872,-3.3317,-3.3317,-3.3508,-3.3807,-3.3807,-3.3807,-3.3776,-3.3679,-3.3655,-3.371,-3.4299,-3.453,-3.4548,-3.4708,-3.4942,-3.5209,-3.5354,-3.5693,-3.6028,-3.5862,-3.5936,-3.6028,-3.5862,-3.5936,-3.6046,-3.6046,-3.6174,-3.6303,-3.6303,-3.5851,-3.5377,-3.5297,-3.4107,-3.2998,-3.2796,-3.1993,-3.1477,-3.2009,-3.209,-3.1887,-3.1275,-3.119,-3.119,-3.119,-3.119,-3.119,-3.119,-3.119,-3.119,-3.119,-3.119,-3.119,-3.119,-3.119,-3.119,-3.119,-3.119,-3.119,-3.119,-3.119,-3.119,-3.119,-3.119,-3.119,-3.119,-3.119,-3.119,0.0,0.0,0.0,0.0,-2.3163,0.0,0.0,0.0,0.0,0.0,0.0,0.0,0.0,0.0,0.0,0.0,0.0,0.0,0.0,0.0,0.0,0.0,0.0,0.0,0.0,0.0,0.0,-2.6631,-2.5419,-2.5585,-2.7824,-2.7934,-2.8278,-2.9038,-2.9404,-2.9616,-2.9651,-3.0041,-3.0566,-3.1219,-3.1373,-3.2005,-3.3045,-3.309,-3.3346,-3.3734,-3.3734,-3.3748,-3.3807,-3.3807,-3.3807,-3.3793,-3.3785,-3.378,-3.378,-3.3872,-3.3908,-3.4,-3.4717,-3.454,-3.4106,-3.4824,-3.509,-3.5004,-3.4302,-3.4582,-3.5004,-3.4284,-3.4601,-3.5151,-3.5151,-3.5734,-3.6303,-3.6303,-3.5655,-3.4958,-3.4597,-3.3826,-3.2936,-3.2108,-3.184,-3.1638,-3.137,-3.1309,-3.1292,-3.1207,-3.119,-3.119,-3.119,-3.119,-3.119,-3.119,-3.119,-3.119,-3.119,-3.119,-3.119,-3.119,-3.119,-3.119,-3.119,-3.119,-3.119,-3.119,-3.119,-3.119,-3.119,-3.119,-3.119,-3.119,-3.119,-3.119,0.0,0.0,0.0,0.0,0.0,0.0,0.0,0.0,-2.0212,0.0,0.0,0.0,0.0,0.0,0.0,0.0,0.0,0.0,0.0,0.0,0.0,0.0,0.0,0.0,0.0,0.0,0.0,0.0,0.0,-2.4423,-2.6418,-2.7337,-2.7952,-2.8301,-2.8919,-2.9253,-2.9253,-2.9857,-3.021,-3.032,-3.1012,-3.1747,-3.2498,-3.2746,-3.32,-3.3807,-3.3807,-3.3807,-3.3807,-3.3807,-3.3807,-3.3807,-3.3807,-3.3807,-3.3807,-3.3807,-3.3807,-3.3844,-3.4192,-3.4082,-3.3862,-3.4192,-3.4289,-3.4247,-3.3899,-3.4045,-3.4215,-3.3899,-3.4045,-3.4289,-3.4289,-3.4578,-3.4853,-3.4853,-3.4578,-3.4248,-3.4089,-3.3597,-3.3075,-3.2679,-3.2383,-3.2161,-3.1986,-3.1524,-3.119,-3.119,-3.119,-3.119,-3.119,-3.119,-3.119,-3.119,-3.119,-3.119,-3.119,-3.119,-3.119,-3.119,-3.119,-3.119,-3.119,-3.119,-3.119,-3.119,-3.119,-3.119,-3.119,-3.119,-3.119,-3.119,-3.119,-3.119,-2.5308,0.0,0.0,0.0,0.0,0.0,0.0,0.0,0.0,0.0,0.0,0.0,0.0,0.0,0.0,0.0,0.0,0.0,0.0,0.0,0.0,0.0,0.0,0.0,0.0,0.0,0.0,0.0,0.0,0.0,-2.5152,-2.6247,-2.7119,-2.778,-2.8374,-2.8785,-2.9005,-2.9574,-2.9838,-2.9784,-3.0636,-3.1349,-3.1859,-3.2373,-3.2913,-3.3476,-3.3697,-3.3807,-3.3807,-3.3807,-3.3807,-3.3807,-3.3807,-3.3807,-3.3807,-3.3807,-3.3807,-3.3807,-3.3807,-3.3807,-3.3807,-3.3807,-3.3807,-3.3807,-3.3807,-3.3807,-3.3807,-3.3807,-3.3807,-3.3807,-3.3807,-3.3807,-3.3807,-3.3807,-3.3807,-3.3807,-3.3807,-3.3564,-3.3332,-3.3229,-3.2919,-3.2648,-3.2517,-3.186,-3.137,-3.137,-3.1271,-3.119,-3.119,-3.119,-3.119,-3.119,-3.119,-3.119,-3.119,-3.119,-3.119,-3.119,-3.119,-3.119,-3.119,-3.119,-3.119,-3.119,-3.119,-3.119,-3.119,-3.119,-3.119,-3.119,-3.119,-3.119,0.0,0.0,0.0,0.0,0.0,0.0,0.0,0.0,-2.1466,0.0,0.0,0.0,0.0,0.0,0.0,-1.9223,0.0,0.0,0.0,0.0,0.0,0.0,0.0,0.0,0.0,0.0,0.0,0.0,0.0,0.0,-2.4231,-2.4358,-2.5383,-2.7725,-2.7835,-2.8209,-2.8987,-2.9023,-2.9427,-3.0179,-3.0216,-3.065,-3.1445,-3.2234,-3.2601,-3.2674,-3.3458,-3.3807,-3.3807,-3.3807,-3.3807,-3.3807,-3.3807,-3.3807,-3.3807,-3.3807,-3.3807,-3.3807,-3.3807,-3.3807,-3.3807,-3.3807,-3.3807,-3.3807,-3.3807,-3.3807,-3.3807,-3.3807,-3.3807,-3.3807,-3.3807,-3.3807,-3.3807,-3.3807,-3.3807,-3.3807,-3.3807,-3.3775,-3.3666,-3.3273,-3.3184,-3.3029,-3.2583,-3.2092,-3.1789,-3.1789,-3.1449,-3.119,-3.119,-3.119,-3.119,-3.119,-3.119,-3.119,-3.119,-3.119,-3.119,-3.119,-3.119,-3.119,-3.119,-3.119,-3.119,-3.119,-3.119,-3.119,-3.119,-3.119,-3.119,-3.119,-3.119,-3.119,0.0,0.0,-2.5038,-2.3932,0.0,0.0,0.0,0.0,0.0,0.0,0.0,0.0,0.0,0.0,0.0,-2.0042,0.0,0.0,0.0,0.0,0.0,0.0,0.0,0.0,0.0,0.0,0.0,0.0,0.0,0.0,0.0,-2.4247,-2.5613,-2.6961,-2.7512,-2.8191,-2.8987,-2.9005,-2.9133,-2.9409,-2.9409,-2.9831,-3.0613,-3.0889,-3.1311,-3.1843,-3.2669,-3.3005,-3.3041,-3.3587,-3.3807,-3.3807,-3.3807,-3.3807,-3.3807,-3.3807,-3.3807,-3.3807,-3.3807,-3.3807,-3.3807,-3.3807,-3.3807,-3.3807,-3.3807,-3.3807,-3.3807,-3.3807,-3.3807,-3.3807,-3.3807,-3.3807,-3.3807,-3.3807,-3.3807,-3.3807,-3.3807,-3.3807,-3.3762,-3.362,-3.3592,-3.355,-3.339,-3.3011,-3.2614,-3.2298,-3.1879,-3.1603,-3.1603,-3.137,-3.119,-3.119,-3.119,-3.119,-3.119,-3.119,-3.119,-3.119,-3.119,-3.119,-3.119,-3.119,-3.119,-3.119,-3.119,-3.119,-3.119,-3.119,-3.119,-3.119,-3.119,-3.119,-2.5329,-2.5339,0.0,0.0,-2.3687,0.0,0.0,0.0,0.0,0.0,0.0,0.0,0.0,0.0,0.0,-2.0538,-1.91,0.0,0.0,0.0,0.0,0.0,0.0,0.0,0.0,0.0,-1.7083,-1.8876,0.0,0.0,0.0,0.0,-2.475,-2.6135,-2.6943,-2.7769,-2.8565,-2.8858,-2.9005,-2.9005,-2.9005,-2.9262,-2.9776,-3.0081,-3.0485,-3.1017,-3.1825,-3.2173,-3.221,-3.2724,-3.3109,-3.3366,-3.3366,-3.355,-3.3807,-3.3807,-3.3807,-3.3807,-3.3807,-3.3807,-3.3807,-3.3807,-3.3807,-3.3807,-3.3807,-3.3807,-3.3807,-3.3807,-3.3807,-3.3807,-3.3807,-3.3807,-3.3807,-3.3807,-3.3807,-3.3807,-3.3807,-3.3807,-3.3807,-3.3807,-3.3807,-3.3807,-3.3807,-3.3578,-3.3273,-3.2809,-3.2349,-3.2039,-3.2039,-3.1677,-3.1411,-3.1411,-3.1291,-3.119,-3.119,-3.119,-3.119,-3.119,-3.119,-3.119,-3.119,-3.119,-3.119,-3.119,-3.119,-3.119,-3.119,-3.119,-3.119,-3.119,-3.119,-3.119]},{"header":{"parameterUnit":"m.s-1","parameterCategory":1,"la1":30.6,"la2":29.2853,"lo1":-89.7004,"lo2":-87.6739,"dy":0.0162,"dx":0.0183,"nx":112,"ny":82,"refTime":"2025-07-11T12:00:00:Z","depth":0,"parameterNumber":3,"parameterNumberName":"V-component_of_WINDS"},"data":[0.0,0.0,0.0,0.0,0.0,0.0,0.0,0.0,0.0,0.0,0.0,0.0,0.0,0.0,0.0,0.0,0.0,0.0,0.0,0.0,0.0,0.0,0.0,0.0,0.0,0.0,0.0,0.0,0.0,0.0,0.0,0.0,0.0,0.0,0.0,0.0,0.0,0.0,0.0,0.0,0.0,0.0,0.0,0.0,0.0,0.0,0.0,0.0,0.0,0.0,0.0,0.0,0.0,0.0,0.0,0.0,0.0,0.0,0.0,0.0,0.0,0.0,0.0,0.0,0.0,0.0,0.0,0.0,0.0,0.0,0.0,0.0,0.0,0.0,0.0,0.0,0.0,0.0,0.0,0.0,0.0,0.0,0.0,0.0,0.0,0.0,0.0,0.0,0.0,0.0,0.0,-1.5723,-1.8103,-1.9584,-1.9584,-1.8593,-1.6959,-1.4559,0.0,0.0,0.0,0.0,0.0,0.0,0.0,0.0,0.0,0.0,0.0,0.0,0.0,0.0,0.0,0.0,0.0,0.0,0.0,0.0,0.0,0.0,0.0,0.0,0.0,0.0,0.0,0.0,0.0,0.0,0.0,0.0,0.0,0.0,0.0,0.0,0.0,0.0,0.0,0.0,0.0,0.0,0.0,0.0,0.0,0.0,0.0,0.0,0.0,0.0,0.0,0.0,0.0,0.0,0.0,0.0,0.0,0.0,0.0,0.0,0.0,0.0,0.0,0.0,0.0,0.0,0.0,0.0,0.0,0.0,0.0,0.0,0.0,0.0,0.0,0.0,0.0,0.0,0.0,0.0,0.0,0.0,0.0,0.0,0.0,0.0,0.0,0.0,0.0,0.0,0.0,0.0,0.0,0.0,0.0,0.0,0.0,0.0,0.0,0.0,0.0,0.0,0.0,0.0,-1.4422,-1.7844,-1.8699,-1.9024,-1.9024,-1.8046,-1.6691,-1.4996,0.0,0.0,0.0,0.0,0.0,0.0,0.0,0.0,0.0,0.0,0.0,0.0,0.0,0.0,0.0,0.0,0.0,0.0,0.0,0.0,0.0,0.0,0.0,0.0,0.0,0.0,0.0,0.0,0.0,0.0,0.0,0.0,0.0,0.0,0.0,0.0,0.0,0.0,0.0,0.0,0.0,0.0,0.0,0.0,0.0,0.0,0.0,0.0,0.0,0.0,0.0,0.0,0.0,0.0,0.0,0.0,0.0,0.0,0.0,0.0,0.0,0.0,0.0,0.0,0.0,0.0,0.0,0.0,0.0,0.0,0.0,0.0,0.0,0.0,0.0,0.0,0.0,0.0,0.0,0.0,0.0,0.0,0.0,0.0,0.0,0.0,0.0,0.0,0.0,0.0,0.0,0.0,0.0,0.0,0.0,0.0,0.0,0.0,0.0,0.0,0.0,0.0,0.0,-1.4182,-1.5411,-1.8491,-1.9104,-1.9114,-1.8516,-1.8027,-1.6864,-1.4859,-1.3133,0.0,0.0,0.0,0.0,0.0,0.0,0.0,0.0,0.0,0.0,0.0,0.0,0.0,0.0,0.0,0.0,0.0,0.0,0.0,0.0,0.0,0.0,0.0,0.0,0.0,0.0,0.0,0.0,0.0,0.0,0.0,0.0,0.0,0.0,0.0,0.0,0.0,0.0,0.0,0.0,0.0,0.0,0.0,0.0,0.0,0.0,0.0,0.0,0.0,0.0,0.0,0.0,0.0,0.0,0.0,0.0,0.0,0.0,0.0,0.0,0.0,0.0,0.0,0.0,0.0,0.0,0.0,0.0,0.0,0.0,0.0,0.0,0.0,0.0,0.0,0.0,0.0,0.0,0.0,0.0,0.0,0.0,0.0,0.0,0.0,0.0,0.0,0.0,0.0,0.0,0.0,0.0,0.0,0.0,0.0,0.0,0.0,0.0,0.0,0.0,0.0,0.0,-1.5657,-1.6457,-1.8646,-1.9043,-1.8798,-1.7987,-1.7642,-1.6596,-1.4559,-1.2847,0.0,0.0,0.0,0.0,0.0,0.0,0.0,0.0,0.0,0.0,0.0,0.0,0.0,0.0,0.0,0.0,0.0,0.0,0.0,0.0,0.0,0.0,0.0,0.0,0.0,0.0,0.0,0.0,0.0,0.0,0.0,0.0,0.0,0.0,0.0,0.0,0.0,0.0,0.0,0.0,0.0,0.0,0.0,0.0,0.0,0.0,0.0,0.0,0.0,0.0,0.0,0.0,0.0,0.0,0.0,0.0,0.0,0.0,0.0,0.0,0.0,0.0,0.0,0.0,0.0,0.0,0.0,0.0,0.0,0.0,0.0,0.0,0.0,0.0,0.0,0.0,0.0,0.0,0.0,0.0,0.0,0.0,0.0,0.0,0.0,0.0,0.0,0.0,0.0,0.0,0.0,0.0,0.0,0.0,0.0,0.0,0.0,0.0,0.0,0.0,0.0,0.0,-1.5622,-1.732,-1.8749,-1.8046,-1.7442,-1.7374,-1.6284,-1.5196,-1.4279,-1.2251,0.0,0.0,0.0,0.0,0.0,0.0,0.0,0.0,0.0,0.0,0.0,0.0,0.0,0.0,0.0,0.0,0.0,0.0,0.0,0.0,0.0,0.0,0.0,0.0,0.0,0.0,0.0,0.0,0.0,0.0,0.0,0.0,0.0,0.0,0.0,0.0,0.0,0.0,0.0,0.0,0.0,0.0,0.0,0.0,0.0,0.0,0.0,0.0,0.0,0.0,0.0,0.0,0.0,0.0,0.0,0.0,0.0,0.0,0.0,0.0,0.0,0.0,0.0,0.0,0.0,0.0,0.0,0.0,0.0,0.0,0.0,0.0,0.0,0.0,0.0,0.0,0.0,0.0,0.0,0.0,0.0,0.0,0.0,0.0,0.0,0.0,0.0,0.0,0.0,0.0,0.0,0.0,0.0,0.0,0.0,0.0,0.0,0.0,0.0,0.0,0.0,0.0,-1.4701,-1.6281,0.0,-1.8145,-1.8027,-1.7374,-1.7458,-1.6763,-1.4816,0.0,0.0,0.0,0.0,0.0,0.0,0.0,0.0,0.0,0.0,0.0,0.0,0.0,0.0,0.0,0.0,0.0,0.0,0.0,0.0,0.0,0.0,0.0,0.0,0.0,0.0,0.0,0.0,0.0,0.0,0.0,0.0,0.0,0.0,0.0,0.0,0.0,0.0,0.0,0.0,0.0,0.0,0.0,0.0,0.0,0.0,0.0,0.0,0.0,0.0,0.0,0.0,0.0,0.0,0.0,0.0,0.0,0.0,0.0,0.0,0.0,0.0,0.0,0.0,0.0,0.0,0.0,0.0,0.0,0.0,0.0,0.0,0.0,0.0,0.0,0.0,0.0,0.0,0.0,0.0,0.0,0.0,0.0,0.0,0.0,0.0,0.0,0.0,0.0,0.0,0.0,0.0,0.0,0.0,0.0,0.0,0.0,0.0,0.0,0.0,0.0,0.0,-1.2804,-1.4376,-1.5855,0.0,-1.7967,-1.8106,-1.7374,-1.7882,-1.7225,-1.4825,0.0,0.0,0.0,0.0,0.0,0.0,0.0,0.0,0.0,0.0,0.0,0.0,0.0,0.0,0.0,0.0,0.0,0.0,0.0,0.0,0.0,0.0,0.0,0.0,0.0,0.0,0.0,0.0,0.0,0.0,0.0,0.0,0.0,0.0,0.0,0.0,0.0,0.0,0.0,0.0,0.0,0.0,0.0,0.0,0.0,0.0,0.0,0.0,0.0,0.0,0.0,0.0,0.0,0.0,0.0,0.0,0.0,0.0,0.0,0.0,0.0,0.0,0.0,0.0,0.0,0.0,0.0,0.0,0.0,0.0,0.0,0.0,0.0,0.0,0.0,0.0,0.0,0.0,0.0,0.0,0.0,0.0,0.0,0.0,0.0,0.0,0.0,0.0,0.0,0.0,0.0,0.0,0.0,0.0,0.0,0.0,0.0,0.0,0.0,0.0,0.0,0.0,-1.2891,-1.4805,-1.6415,-1.72,-1.7312,-1.7333,-1.7333,-1.7075,-1.61,0.0,0.0,0.0,0.0,0.0,0.0,0.0,0.0,0.0,0.0,0.0,0.0,0.0,0.0,0.0,0.0,0.0,0.0,0.0,0.0,0.0,0.0,0.0,0.0,0.0,0.0,0.0,0.0,0.0,0.0,0.0,0.0,0.0,0.0,0.0,0.0,0.0,0.0,0.0,0.0,0.0,0.0,0.0,0.0,0.0,0.0,0.0,0.0,0.0,0.0,0.0,0.0,0.0,0.0,0.0,0.0,0.0,0.0,0.0,0.0,0.0,0.0,0.0,0.0,0.0,0.0,0.0,0.0,0.0,0.0,0.0,0.0,0.0,0.0,0.0,0.0,0.0,0.0,0.0,0.0,0.0,0.0,0.0,0.0,0.0,0.0,0.0,0.0,0.0,0.0,0.0,0.0,0.0,0.0,0.0,0.0,0.0,0.0,0.0,0.0,0.0,0.0,0.0,0.0,-1.4659,-1.6508,-1.7221,-1.7987,-1.8438,-1.8438,-1.8709,-1.7827,-1.5433,0.0,0.0,0.0,0.0,0.0,0.0,0.0,0.0,0.0,0.0,0.0,0.0,0.0,0.0,0.0,0.0,0.0,0.0,0.0,0.0,0.0,0.0,0.0,0.0,0.0,0.0,0.0,0.0,0.0,0.0,0.0,0.0,0.0,0.0,0.0,0.0,0.0,0.0,0.0,0.0,0.0,0.0,0.0,0.0,0.0,0.0,0.0,0.0,0.0,0.0,0.0,0.0,0.0,0.0,0.0,0.0,0.0,0.0,0.0,0.0,0.0,0.0,0.0,0.0,0.0,0.0,0.0,0.0,0.0,0.0,0.0,0.0,0.0,0.0,0.0,0.0,0.0,0.0,0.0,0.0,0.0,0.0,0.0,0.0,0.0,0.0,0.0,0.0,0.0,0.0,0.0,0.0,0.0,0.0,0.0,0.0,0.0,0.0,0.0,0.0,0.0,0.0,-1.2513,-1.4948,-1.6785,-1.7247,-1.8263,-1.8893,-1.8893,-1.9387,-1.8502,-1.5699,0.0,0.0,0.0,0.0,0.0,0.0,0.0,0.0,0.0,0.0,0.0,0.0,0.0,0.0,0.0,0.0,0.0,0.0,0.0,0.0,0.0,0.0,0.0,0.0,0.0,0.0,0.0,0.0,0.0,0.0,0.0,0.0,0.0,0.0,0.0,0.0,0.0,0.0,0.0,0.0,0.0,0.0,0.0,0.0,0.0,0.0,0.0,0.0,0.0,0.0,0.0,0.0,0.0,0.0,0.0,0.0,0.0,0.0,0.0,0.0,0.0,0.0,0.0,0.0,0.0,0.0,0.0,0.0,0.0,0.0,0.0,0.0,0.0,0.0,0.0,0.0,0.0,0.0,0.0,0.0,0.0,0.0,0.0,0.0,0.0,0.0,0.0,0.0,0.0,0.0,0.0,0.0,0.0,0.0,0.0,0.0,0.0,0.0,0.0,0.0,0.0,0.0,-1.3156,-1.5513,-1.7199,-1.743,-1.8361,-1.8968,-1.8968,-1.9424,-1.8426,-1.5451,0.0,0.0,0.0,0.0,0.0,0.0,0.0,0.0,0.0,0.0,0.0,0.0,0.0,0.0,0.0,0.0,0.0,0.0,0.0,0.0,0.0,0.0,0.0,0.0,0.0,0.0,0.0,0.0,0.0,0.0,0.0,0.0,0.0,0.0,0.0,0.0,0.0,0.0,0.0,0.0,0.0,0.0,0.0,0.0,0.0,0.0,0.0,0.0,0.0,0.0,0.0,0.0,0.0,0.0,0.0,0.0,0.0,0.0,0.0,0.0,-1.5495,0.0,0.0,0.0,0.0,0.0,0.0,0.0,0.0,0.0,0.0,0.0,0.0,0.0,0.0,0.0,0.0,0.0,0.0,0.0,0.0,0.0,0.0,0.0,0.0,0.0,0.0,0.0,0.0,0.0,0.0,0.0,0.0,0.0,0.0,0.0,0.0,0.0,0.0,0.0,0.0,0.0,-1.3641,-1.5853,-1.758,-1.8478,-1.9151,-1.953,-1.953,-1.9621,-1.8794,-1.6654,0.0,0.0,0.0,0.0,0.0,0.0,0.0,0.0,0.0,0.0,0.0,0.0,0.0,0.0,0.0,0.0,0.0,0.0,0.0,0.0,0.0,0.0,0.0,0.0,0.0,0.0,0.0,0.0,0.0,0.0,0.0,0.0,0.0,0.0,0.0,0.0,0.0,0.0,0.0,0.0,0.0,0.0,0.0,0.0,0.0,0.0,0.0,0.0,0.0,0.0,0.0,0.0,0.0,0.0,0.0,0.0,0.0,0.0,0.0,0.0,0.0,-1.6674,0.0,0.0,0.0,0.0,0.0,0.0,0.0,0.0,0.0,0.0,0.0,0.0,0.0,0.0,0.0,0.0,0.0,0.0,0.0,0.0,0.0,0.0,0.0,0.0,0.0,0.0,0.0,0.0,0.0,0.0,0.0,0.0,0.0,0.0,0.0,0.0,0.0,0.0,0.0,0.0,-1.4722,-1.654,-1.8011,-1.8812,-1.9387,-1.9708,-1.9708,-1.946,-1.8797,-1.7542,-1.6125,0.0,0.0,0.0,0.0,0.0,0.0,0.0,0.0,0.0,0.0,0.0,0.0,0.0,0.0,0.0,0.0,0.0,0.0,0.0,0.0,0.0,0.0,0.0,0.0,0.0,0.0,0.0,0.0,0.0,0.0,0.0,0.0,0.0,0.0,0.0,0.0,0.0,0.0,0.0,0.0,0.0,0.0,0.0,0.0,0.0,0.0,0.0,0.0,0.0,0.0,0.0,0.0,0.0,0.0,0.0,-2.1394,-2.1996,-2.2977,-2.4046,-2.1318,-2.0224,-2.0221,0.0,0.0,0.0,0.0,0.0,0.0,0.0,0.0,0.0,0.0,0.0,0.0,0.0,0.0,0.0,0.0,0.0,0.0,0.0,0.0,0.0,0.0,0.0,0.0,0.0,-1.8242,-1.8091,0.0,0.0,0.0,0.0,0.0,0.0,0.0,0.0,0.0,0.0,0.0,0.0,-1.6022,-1.7442,-1.8438,-1.8987,-1.9442,-1.9708,-1.9708,-1.9281,-1.8807,-1.827,-1.685,-1.574,0.0,0.0,0.0,0.0,0.0,0.0,0.0,0.0,0.0,0.0,0.0,0.0,0.0,0.0,0.0,0.0,0.0,0.0,0.0,0.0,0.0,0.0,0.0,0.0,0.0,0.0,0.0,0.0,0.0,0.0,0.0,0.0,-0.8993,-1.009,0.0,0.0,0.0,0.0,0.0,0.0,0.0,0.0,0.0,0.0,0.0,0.0,0.0,0.0,-1.9083,-2.065,-2.1518,-2.1669,-2.3244,-2.4178,-2.4524,-2.5131,-2.583,-2.648,-2.5453,0.0,-2.1621,-2.1128,0.0,0.0,0.0,0.0,0.0,0.0,0.0,0.0,0.0,0.0,0.0,0.0,0.0,0.0,0.0,0.0,0.0,0.0,0.0,0.0,0.0,0.0,-1.887,-1.9856,-1.9882,-1.9518,0.0,-1.6704,-1.4416,-1.3331,0.0,0.0,0.0,0.0,0.0,0.0,0.0,0.0,-1.7239,-1.8251,-1.9006,-1.9548,-1.9657,-1.9708,-1.9708,-1.9639,-1.9376,-1.8834,-1.8155,-1.7322,-1.6316,-1.5089,0.0,0.0,0.0,0.0,0.0,0.0,0.0,0.0,0.0,0.0,0.0,0.0,0.0,0.0,0.0,0.0,0.0,0.0,0.0,0.0,0.0,0.0,0.0,0.0,0.0,0.0,0.0,0.0,0.0,-0.8417,-0.9795,-1.0606,-1.1027,-1.1123,0.0,0.0,0.0,0.0,0.0,0.0,0.0,0.0,0.0,-1.8479,-1.9811,-2.1041,-2.2146,-2.2887,-2.3565,-2.4167,-2.5281,-2.5992,-2.6358,-2.6906,-2.7617,-2.8337,-2.802,-2.701,-2.5448,-2.336,-2.1583,-2.0063,0.0,0.0,0.0,0.0,0.0,-1.8995,-2.0012,0.0,0.0,0.0,0.0,0.0,0.0,0.0,0.0,0.0,0.0,0.0,0.0,0.0,0.0,-2.0908,-2.0941,-2.077,-2.0756,-1.9411,-1.7612,0.0,-1.4809,-1.3986,-1.2442,0.0,0.0,0.0,0.0,0.0,-1.8616,-1.9192,-1.9667,-2.0203,-1.9914,-1.9708,-1.9708,-1.9424,-1.9281,-1.935,-1.8852,-1.847,-1.8302,-1.7111,-1.5901,0.0,0.0,0.0,0.0,0.0,0.0,0.0,0.0,0.0,0.0,0.0,0.0,0.0,0.0,0.0,0.0,0.0,0.0,0.0,0.0,0.0,0.0,0.0,0.0,0.0,0.0,0.0,0.0,-0.9666,-1.0678,-1.1428,-1.2449,-1.2892,0.0,0.0,0.0,0.0,0.0,0.0,-1.7892,-1.9296,-2.0562,-2.1722,-2.2799,-2.3853,-2.4833,-2.4983,-2.5448,-2.6239,-2.67,-2.7128,-2.7507,-2.7921,-2.8448,-2.909,-2.909,-2.8794,-2.8161,-2.5435,-2.3824,-2.305,-2.1974,-2.1546,-2.1571,-2.1807,-2.1744,-2.1785,-2.3427,-2.3715,-2.3208,-2.256,0.0,-2.1018,-1.9359,0.0,0.0,0.0,0.0,-2.0061,-2.1054,0.0,-2.1393,-2.1807,-2.1907,-2.187,-2.1732,-2.1408,-2.0351,0.0,-1.7227,-1.6494,-1.4474,0.0,0.0,0.0,0.0,-1.878,-2.0053,-2.0293,-2.0504,-2.0904,-2.0363,-1.9944,-1.9944,-1.942,-1.9277,-1.9672,-1.9332,-1.9281,-1.969,-1.8747,-1.7818,0.0,0.0,0.0,0.0,0.0,0.0,0.0,0.0,0.0,0.0,0.0,0.0,0.0,0.0,0.0,0.0,0.0,0.0,0.0,0.0,0.0,0.0,0.0,0.0,0.0,0.0,0.0,0.0,0.0,0.0,-1.359,-1.4635,0.0,0.0,0.0,0.0,-1.7818,-1.851,-1.9773,-2.1904,-2.2569,-2.3421,-2.455,-2.572,-2.6562,-2.7118,-2.7645,-2.7934,-2.7984,-2.8009,-2.8034,-2.8059,-2.8097,-2.8109,-2.817,-2.817,-2.8157,-2.8068,-2.7655,-2.6666,-2.5322,-2.4255,-2.3828,-2.3766,-2.3208,-2.3389,-2.3853,-2.3954,-2.3979,-2.4029,-2.4506,-2.3873,-2.2957,-2.2844,-2.2108,0.0,0.0,-2.2092,-2.2255,-2.2832,-2.2982,-2.2995,-2.3007,-2.302,-2.2882,-2.2355,-2.2246,-2.1719,0.0,-1.9208,-1.8518,-1.737,0.0,-1.8693,-1.8863,-1.9822,-2.0799,-2.1515,-2.16,-2.163,-2.165,-2.1051,-2.0643,-2.0643,-2.0045,-1.9672,-1.9708,-1.9672,-1.9672,-1.9708,-1.9648,-1.8986,-1.7684,-1.6646,0.0,0.0,0.0,0.0,0.0,0.0,0.0,0.0,0.0,0.0,0.0,0.0,0.0,0.0,0.0,0.0,0.0,0.0,0.0,0.0,0.0,0.0,0.0,0.0,0.0,0.0,0.0,0.0,-1.4432,-1.5436,0.0,0.0,-1.7381,-1.8613,-1.9853,-2.1011,-2.2329,-2.3822,-2.4782,-2.5624,-2.6389,-2.713,-2.7607,-2.7808,-2.8009,-2.8285,-2.8599,-2.8599,-2.8837,-2.9189,-2.9189,-2.9189,-2.9189,-2.9189,-2.9189,-2.9202,-2.9072,-2.8324,-2.718,-2.6791,-2.664,-2.6615,-2.6414,-2.6465,-2.659,-2.6239,-2.6113,-2.6025,-2.5485,-2.482,-2.4186,-2.4186,-2.3941,-2.3665,-2.3866,-2.3898,-2.3948,-2.4136,-2.3923,-2.369,-2.369,-2.3371,-2.3045,-2.2857,-2.2807,-2.2531,-2.1594,-2.0388,-1.9359,-1.89,-1.9222,-1.953,-1.949,-2.0909,-2.2054,-2.2313,-2.2343,-2.2343,-2.2343,-2.1739,-2.1171,-2.0733,-2.0483,-2.0154,-1.9738,-1.9708,-1.9708,-1.9708,-1.9708,-1.9592,-1.9368,-1.8238,-1.6774,0.0,0.0,0.0,0.0,0.0,0.0,0.0,0.0,0.0,0.0,0.0,0.0,0.0,0.0,0.0,0.0,0.0,0.0,0.0,0.0,0.0,0.0,0.0,0.0,0.0,0.0,-1.4265,-1.5195,-1.638,-1.7219,-1.749,-1.9287,-2.0878,-2.193,-2.3384,-2.4745,-2.5862,-2.6628,-2.7304,-2.7821,-2.8197,-2.8486,-2.8674,-2.8674,-2.8863,-2.9176,-2.9176,-2.9415,-2.9792,-2.9792,-2.9792,-2.9792,-2.9792,-2.9792,-2.9792,-2.9792,-2.9352,-2.8649,-2.8461,-2.8386,-2.836,-2.8172,-2.8109,-2.8059,-2.7682,-2.7444,-2.719,-2.6402,-2.5799,-2.5372,-2.5372,-2.5372,-2.5372,-2.5372,-2.5372,-2.5335,-2.5134,-2.4808,-2.4494,-2.4318,-2.3841,-2.3396,-2.3396,-2.3246,-2.2995,-2.2631,-2.1543,-2.0649,-2.0613,-2.0711,-2.0882,-2.1019,-2.2157,-2.3002,-2.3002,-2.3002,-2.3002,-2.3002,-2.2433,-2.1754,-2.1077,-2.0823,-2.0423,-1.9753,-1.9708,-1.9708,-1.9708,-1.9821,-2.0035,-2.0297,-1.928,-1.7997,-1.6462,0.0,0.0,0.0,0.0,0.0,0.0,0.0,0.0,0.0,0.0,0.0,0.0,0.0,0.0,0.0,0.0,0.0,0.0,0.0,0.0,0.0,0.0,0.0,-1.354,-1.4278,-1.5157,-1.6067,-1.7561,-1.853,-1.854,-2.0976,-2.3006,-2.4127,-2.5662,-2.7014,-2.8072,-2.8134,-2.8386,-2.89,-2.8913,-2.9227,-2.9779,-2.9792,-2.9792,-2.9792,-2.9792,-2.9792,-2.9792,-2.9792,-2.9792,-2.9792,-2.9792,-2.9792,-2.9792,-2.9792,-2.9792,-2.9741,-2.9176,-2.8913,-2.885,-2.8348,-2.8147,-2.8134,-2.8134,-2.777,-2.7306,-2.7306,-2.6977,-2.6549,-2.6524,-2.6512,-2.6512,-2.6499,-2.6499,-2.6361,-2.5774,-2.5611,-2.5473,-2.4938,-2.4406,-2.4004,-2.4004,-2.354,-2.3108,-2.3108,-2.2681,-2.2404,-2.2589,-2.2646,-2.2899,-2.3597,-2.3673,0.0,-2.3595,-2.3595,-2.3595,-2.3595,-2.3092,-2.2463,-2.1784,-2.1126,-2.0453,-1.9783,-1.9708,-1.9708,-1.9708,-2.0072,-2.0297,-2.0331,-1.9718,-1.8882,-1.7867,0.0,0.0,0.0,0.0,0.0,0.0,0.0,0.0,0.0,0.0,0.0,0.0,0.0,0.0,0.0,0.0,0.0,0.0,0.0,0.0,0.0,0.0,-1.4372,-1.4372,-1.6061,-1.7347,-1.7458,-1.8429,-1.9187,-1.9495,-2.1843,-2.361,-2.4223,-2.6396,-2.7959,-2.8624,-2.8662,-2.8963,-2.9528,-2.9553,-2.9628,-2.9792,-2.9792,-2.9792,-2.9792,-2.9792,-2.9792,-2.9792,-2.9792,-2.9792,-2.9792,-2.9792,-2.9792,-2.9792,-2.9792,-2.9792,-2.9779,-2.9616,-2.9553,-2.9528,-2.939,-2.9063,-2.8662,-2.8662,-2.8348,-2.7883,-2.7883,-2.777,-2.7582,-2.7216,-2.709,-2.7002,-2.6612,-2.6499,-2.6461,-2.6298,-2.5946,-2.5561,-2.5423,-2.4669,-2.4004,-2.4004,-2.354,-2.3108,-2.3108,-2.2982,-2.2946,-2.3139,-2.3699,-2.4042,-2.3726,0.0,0.0,-2.367,-2.3595,-2.3595,-2.3595,-2.3445,-2.3107,-2.2478,-2.1799,-2.1141,0.0,-1.9959,-1.9708,-1.9708,-1.9818,-2.0156,-2.0797,-1.9881,-1.9392,0.0,0.0,0.0,0.0,0.0,0.0,0.0,0.0,0.0,0.0,0.0,0.0,0.0,0.0,0.0,0.0,0.0,0.0,0.0,0.0,0.0,0.0,-1.5057,-1.5958,-1.6287,-1.7411,-1.8338,-1.8746,-1.9248,-1.9795,-2.041,-2.2552,-2.4232,-2.4891,-2.7095,-2.8699,-2.9264,-2.9289,-2.9453,-2.9779,-2.9792,-2.9792,-2.9792,-2.9792,-2.9792,-2.9792,-2.9792,-2.9792,-2.9792,-2.9792,-2.9792,0.0,-2.9792,-2.9792,-2.9792,-2.9792,-2.9792,0.0,0.0,0.0,0.0,0.0,-2.9283,-2.8627,-2.9124,-2.8925,-2.8448,-2.8448,-2.8298,-2.8047,-2.772,-2.7469,-2.7253,-2.6927,-2.6675,-2.6499,-2.6499,-2.6248,-2.5996,-2.5996,-2.5297,-2.4669,-2.4669,-2.4054,-2.3471,-2.3471,0.0,0.0,-2.417,-2.4414,-2.4665,-2.4882,-2.4964,-2.4769,0.0,-2.4007,-2.3924,-2.3625,-2.3595,-2.3355,-2.2748,-2.2343,0.0,0.0,0.0,-2.0065,-1.9962,0.0,0.0,0.0,0.0,0.0,0.0,0.0,0.0,0.0,-1.9466,-1.9313,0.0,0.0,0.0,0.0,0.0,0.0,0.0,0.0,0.0,0.0,0.0,0.0,0.0,0.0,0.0,0.0,-1.6486,-1.7822,-1.8627,-1.8422,-1.8643,-1.9785,-1.9961,-2.0351,-2.1302,-2.321,-2.484,-2.5905,-2.7859,-2.9252,-2.9767,0.0,0.0,0.0,0.0,-2.9792,-2.9792,-2.9792,-2.9792,-2.9792,-2.9792,-2.9792,-2.9792,-2.9792,-2.9792,-2.9792,-2.9792,-2.9792,-2.9792,-2.9792,-2.9792,-2.9792,-2.9792,-2.9792,-2.9792,-2.9792,-2.9145,0.0,0.0,0.0,0.0,-2.8988,-2.8699,-2.8285,-2.8222,-2.7808,-2.7369,-2.7341,-2.6927,-2.6499,-2.6499,-2.6499,-2.6499,-2.6499,-2.6047,-2.5598,-2.5598,-2.4757,-2.4004,-2.4004,-2.409,-2.4423,-2.5259,-2.4983,-2.5097,-2.6416,-2.6093,0.0,-2.4799,-2.4649,-2.4365,-2.3789,0.0,0.0,-2.2853,-2.2733,-2.2194,-2.1006,-2.0838,-2.0714,-2.0456,-2.0868,-2.1584,-2.2621,-2.3113,-2.371,-2.4397,-2.4475,-2.4541,-2.4558,-2.1789,-2.1586,0.0,0.0,0.0,0.0,0.0,0.0,0.0,0.0,0.0,0.0,0.0,0.0,0.0,0.0,0.0,-1.6741,-1.7734,-1.8656,-1.9514,-1.96,-1.9639,-1.9883,-2.0225,-2.1013,-2.2426,-2.4056,-2.5622,-2.7042,-2.8713,-2.9679,-2.9779,-2.9792,0.0,-2.9792,-2.9792,-2.9792,-2.9792,-2.9792,-2.9792,-2.9792,0.0,0.0,-2.9792,-2.9792,-2.9792,-2.9792,-2.9792,-2.9792,-2.9792,-2.9792,-2.9792,-2.9792,-2.9792,-2.9792,-2.9792,-2.9792,-2.9663,-2.9495,-2.9702,-2.9716,-2.9628,-2.9628,-2.9553,-2.9377,-2.8875,-2.8386,0.0,-2.7406,-2.6927,-2.6499,-2.6499,-2.6499,-2.6499,-2.6499,-2.6047,-2.5598,-2.5598,-2.4757,-2.4004,-2.4004,-2.3649,-2.3754,-2.5175,-2.5793,-2.6214,-2.6539,-2.6482,-2.6153,-2.5495,-2.4933,-2.456,-2.4425,-2.3924,-2.355,-2.343,-2.2987,-2.2583,-2.2328,-2.1819,-2.1479,-2.1426,-2.1523,-2.1819,-2.2376,-2.2895,-2.3388,-2.3868,-2.4303,-2.4812,-2.5372,-2.4186,-2.3864,0.0,0.0,0.0,0.0,0.0,0.0,0.0,0.0,0.0,0.0,0.0,-1.4065,0.0,0.0,-1.7324,-1.8193,-1.8867,-1.9465,-2.0146,-2.0244,-2.0244,-2.0244,-2.1148,-2.2117,-2.3113,-2.5111,-2.6769,-2.7719,-2.9049,-2.9792,-2.9792,-2.9792,-2.9792,-2.9792,-2.9792,-2.9792,-2.9792,-2.9792,-2.9792,-2.9792,-2.9792,-2.9792,-2.9792,-2.9792,-2.9792,-2.9792,-2.9792,-2.9495,-2.8937,-2.8937,-2.8937,-2.9028,-2.9573,-2.9456,-2.9028,-2.9585,-2.9443,-2.9028,-2.9585,-2.9792,-2.9792,-2.9792,-2.9792,-2.9741,-2.9453,-2.8963,-2.8398,-2.7846,-2.7293,-2.6839,-2.6562,-2.6499,-2.6499,-2.6499,-2.6273,-2.6059,-2.6059,-2.5385,-2.472,-2.4456,-2.3954,-2.3828,-2.4706,-2.5147,-2.5793,-2.6936,-2.7106,-2.6866,-2.6183,-2.5809,-2.5337,-2.4679,-2.4291,-2.3947,-2.3625,-2.3062,-2.2703,-2.2703,-2.2054,-2.1695,-2.1695,-2.1881,-2.2255,-2.2832,-2.3562,-2.4253,-2.4857,-2.5732,-2.6353,-2.6691,-2.6725,-2.6539,0.0,0.0,0.0,0.0,0.0,0.0,0.0,0.0,-1.3482,-1.4473,-1.5379,-1.6229,-1.6941,-1.7769,-1.8603,-1.9297,-1.9766,-2.0166,-2.0556,-2.0605,-2.0605,-2.0605,-2.171,-2.2825,-2.3719,-2.5784,-2.7442,-2.8338,-2.9287,-2.9792,-2.9792,-2.9792,-2.9792,-2.9792,-2.9792,-2.9792,-2.9792,-2.9792,-2.9792,-2.9792,-2.9792,-2.9792,-2.9792,-2.9792,-2.9792,-2.9792,-2.9573,-2.8819,-2.7804,-2.7804,-2.7804,-2.7896,-2.9028,-2.8897,-2.8255,-2.9365,-2.9236,-2.8557,-2.9495,-2.9792,-2.9792,-2.9792,-2.9792,-2.9792,-2.9792,-2.939,-2.88,-2.8398,-2.7795,-2.718,-2.6763,-2.6575,-2.6499,-2.6499,-2.6499,-2.6499,-2.6499,-2.6034,-2.5473,-2.5059,-2.4443,-2.4088,-2.4396,-2.4371,-2.4951,-2.689,-2.7291,-2.7189,-2.6644,-2.6589,-2.6183,-2.5098,-2.4874,-2.4575,-2.4029,-2.3556,-2.3272,-2.3272,-2.2757,-2.2458,-2.2458,-2.2656,-2.3088,-2.381,-2.4534,-2.5361,-2.626,-2.7332,-2.7921,-2.8043,-2.8687,-2.8653,-1.0078,-1.1132,0.0,-1.382,-1.4403,-1.5416,0.0,0.0,-1.7196,-1.8564,-1.8539,-1.8276,-1.8373,-1.9085,-1.9727,-1.9824,-2.0215,-2.0546,-2.0595,-2.0605,-2.0605,-2.0605,-2.0761,-2.1947,-2.4731,-2.5294,-2.6597,-2.942,-2.9714,-2.9792,-2.9792,-2.9792,-2.9792,-2.9792,-2.9792,-2.9792,-2.9792,-2.9792,-2.9792,-2.9792,-2.9792,-2.9792,-2.9792,-2.9792,-2.9792,-2.9753,-2.8727,-2.7695,-2.6678,-2.6678,-2.6678,-2.6801,-2.7855,-2.8215,-2.8255,-2.9365,-2.9702,-2.9624,-2.9753,-2.9792,-2.9792,-2.9792,-2.9792,-2.9792,-2.9792,-2.939,-2.8875,-2.8813,-2.8084,-2.7304,-2.7241,-2.6864,-2.6499,-2.6499,-2.6499,-2.6499,-2.6499,-2.6034,-2.5573,-2.5523,-2.4695,-2.4215,-2.4891,-2.4635,-2.4595,-2.5508,-2.6203,-2.6587,-2.6515,-2.6558,-2.6527,-2.6378,-2.5839,-2.5465,-2.5367,-2.5315,-2.5285,-2.5285,-2.5211,-2.5166,-2.5166,-2.4635,-2.4665,-2.5348,-2.5342,-2.5937,-2.7173,-2.7774,-2.8325,-2.8874,-2.8959,-2.8959,-1.2021,0.0,0.0,0.0,-1.6445,-1.7418,-1.9708,-1.8942,-1.8143,-1.9563,-1.9596,-1.9348,-1.9348,-1.9883,-2.0293,0.0,-2.0664,-2.0859,-2.0644,-2.0791,-2.0859,-2.0635,-2.0605,-2.1818,-2.4915,-2.6016,-2.7451,-2.9651,-2.9792,-2.9792,-2.9792,-2.9792,-2.9792,-2.9792,-2.9792,-2.9792,-2.9792,-2.9792,-2.9792,-2.9792,-2.9792,-2.9792,-2.9792,-2.9792,-2.9443,-2.8727,-2.6942,-2.5911,-2.5504,-2.5504,-2.5891,-2.6595,-2.7683,-2.8518,-2.9157,-2.9624,-2.9792,-2.9792,-2.9792,-2.9792,-2.9792,-2.9792,-2.9792,-2.9792,-2.9792,-2.9616,-2.9365,-2.8988,-2.8562,-2.8097,-2.7444,-2.714,-2.6889,-2.6562,-2.6499,-2.6499,-2.6499,-2.6298,-2.6034,-2.5661,-2.5234,-2.4816,-2.4515,-2.4269,-2.4107,-2.407,-2.5091,-2.6014,-2.6457,-2.6515,-2.6566,-2.6608,-2.6004,-2.5615,-2.5615,-2.5615,-2.5615,-2.5615,-2.5615,-2.5615,-2.5615,-2.5322,-2.5307,-2.5576,-2.5847,-2.6237,-2.6779,-2.7753,-2.8359,-2.86,-2.9026,-2.9222,-1.3451,0.0,0.0,-1.7294,-1.8198,-1.9198,-2.064,-1.9881,-1.9228,-2.0383,-2.0238,-1.9912,-1.9912,-2.0078,0.0,-2.04,-2.0762,-2.0937,-2.0644,-2.0947,-2.1064,-2.0664,-2.0605,-2.1767,-2.4686,-2.6109,-2.7618,-2.9426,-2.9704,-2.9792,-2.9792,-2.9792,-2.9792,-2.9792,-2.9792,-2.9792,-2.9792,-2.9792,-2.9792,-2.9792,-2.9792,-2.9792,-2.9792,-2.9495,-2.874,-2.7562,-2.5619,-2.4628,-2.4372,-2.466,-2.5294,-2.6171,-2.7562,-2.8597,-2.9365,-2.9663,-2.9792,-2.9792,-2.9792,-2.9792,-2.9792,-2.9792,-2.9792,-2.9792,-2.9792,-2.9792,-2.9704,-2.9289,-2.9013,-2.8675,-2.7758,-2.7394,-2.7178,-2.6625,-2.6499,-2.6499,-2.6499,-2.6499,-2.6373,-2.5912,-2.5699,-2.5347,-2.4569,-2.4192,-2.3853,-2.3409,-2.4151,-2.5035,-2.5783,-2.6256,-2.6599,-2.6867,-2.6437,-2.6153,-2.6153,-2.6153,-2.6153,-2.6153,-2.6153,-2.6153,-2.6153,-2.5974,-2.5959,-2.6153,-2.6343,-2.6627,-2.6994,-2.7913,-2.844,-2.8632,-2.9144,-2.9316,0.0,0.0,-1.7474,-1.8879,-2.0083,-2.1207,-2.2356,-2.1851,-2.1272,-2.1843,-2.0838,-1.9912,-1.9912,-1.959,-1.9463,-1.9873,-2.0303,-2.0615,-2.0605,-2.0947,-2.1064,-2.0664,-2.0605,-2.1596,0.0,-2.4889,-2.6302,-2.875,-2.9478,-2.9792,-2.9792,-2.9792,-2.9792,-2.9792,-2.9792,-2.9792,-2.9792,-2.9792,-2.9792,-2.9792,-2.9792,-2.9792,-2.9753,-2.8648,-2.7562,-2.6472,-2.5294,-2.4168,-2.3266,-2.4329,-2.483,-2.5083,-2.7267,-2.8136,-2.8307,-2.9404,-2.9792,-2.9792,-2.9792,-2.9792,-2.9792,-2.9792,-2.9792,-2.9792,-2.9792,-2.9792,-2.9792,-2.9779,-2.9365,-2.8762,-2.8235,-2.7682,-2.7178,-2.6625,-2.6499,-2.6499,-2.6499,-2.6499,-2.6487,-2.6474,-2.6009,-2.5586,-2.5548,-2.4682,-2.3991,-2.3979,-2.352,-2.3454,-2.4263,-2.5618,-2.6759,-2.7479,-2.754,-2.754,-2.754,-2.754,-2.754,-2.754,-2.754,-2.754,-2.754,-2.6926,-2.6881,-2.7525,-2.6911,-2.7197,-2.8425,-2.848,-2.8795,-2.9374,-2.939,-2.9088,0.0,0.0,-1.8868,-2.0018,-2.0723,-2.1496,-2.2906,-2.1956,-2.0969,-2.147,-2.0471,-1.9414,-1.9085,-1.8919,-1.8994,-1.9424,-2.0352,-2.1016,-2.1016,-2.1631,-2.1816,-2.1094,-2.1899,0.0,0.0,0.0,0.0,-2.87,-2.9076,-2.939,-2.9779,-2.9792,-2.9792,-2.9792,-2.9792,-2.9792,-2.9792,-2.9792,-2.9792,-2.9792,-2.9792,-2.9792,-2.9753,-2.7879,-2.6842,-2.6389,-2.451,-2.3464,-2.3178,-2.4339,-2.5252,-2.6047,-2.7522,-2.8557,-2.9275,-2.9663,-2.9792,-2.9792,-2.9792,-2.9792,-2.9792,-2.9792,-2.9792,-2.9792,-2.9792,-2.9792,-2.9792,-2.9792,-2.9654,-2.9365,-2.8762,-2.8247,-2.7695,-2.7165,-2.6763,-2.6499,-2.6499,-2.6499,-2.6499,-2.6499,-2.6336,-2.6084,-2.5661,-2.5297,-2.482,-2.4104,-2.3944,-2.4163,-2.4922,-2.5892,-2.6774,-2.7524,-2.76,-2.76,-2.76,-2.76,-2.76,-2.76,-2.76,-2.76,-2.76,-2.739,-2.7375,-2.76,-2.7375,-2.746,-2.791,-2.791,-2.8018,-2.8222,-2.8222,-2.8335,0.0,-1.8085,-1.9301,-2.0447,-2.0845,-2.1234,-2.2227,-2.1366,-2.0396,-2.0608,-1.9569,-1.8477,-1.8003,-1.7662,-1.775,-1.8682,-1.9795,-2.0664,-2.1132,-2.1931,-2.2362,-2.208,-2.2895,0.0,0.0,0.0,0.0,-2.87,-2.9076,-2.9402,-2.9779,-2.9792,-2.9792,-2.9792,-2.9792,-2.9792,-2.9792,-2.9792,-2.9792,-2.9792,-2.9792,-2.9792,-2.9702,-2.7516,-2.6719,-2.6964,-2.467,-2.393,-2.4392,-2.5535,-2.6408,-2.7168,-2.8267,-2.9157,-2.9792,-2.9792,-2.9792,-2.9792,-2.9792,-2.9792,-2.9792,-2.9792,-2.9792,-2.9792,-2.9792,-2.9792,-2.9792,-2.9792,-2.9792,-2.9666,-2.9076,-2.8511,-2.7959,-2.7419,-2.6901,-2.6499,-2.6499,-2.6499,-2.6499,-2.6499,-2.6499,-2.6373,-2.5996,-2.5737,-2.5234,-2.4155,-2.4093,-2.45,-2.5286,-2.581,-2.6496,-2.7484,-2.76,-2.76,-2.76,-2.76,-2.76,-2.76,-2.76,-2.76,-2.76,-2.76,-2.76,-2.76,-2.76,-2.76,-2.76,-2.76,-2.772,-2.7959,-2.7959,-2.8334,-1.7725,-1.8364,-1.8997,-2.0302,-2.0605,-2.0595,-2.0576,-2.0176,-1.9679,-1.9241,-1.8174,-1.7139,0.0,0.0,-1.5986,-1.7733,-1.8791,-1.9887,-2.1194,-2.2097,-2.2922,0.0,0.0,0.0,0.0,0.0,0.0,-2.885,0.0,-2.9767,-2.9792,-2.9792,-2.9792,-2.9792,-2.9792,-2.9792,-2.9792,-2.9792,-2.9792,-2.9792,-2.9792,-2.9753,-2.9624,-2.7464,-2.7035,-2.7804,-2.5692,-2.542,-2.6513,-2.7643,-2.8096,-2.8215,-2.9365,-2.9792,-2.9792,-2.9792,-2.9792,-2.9792,-2.9792,-2.9792,-2.9792,-2.9792,-2.9792,-2.9792,-2.9792,-2.9792,-2.9792,-2.9792,-2.9792,-2.9666,-2.9076,-2.8561,-2.8009,-2.7457,-2.6939,-2.6524,-2.6499,-2.6499,-2.6499,-2.6499,-2.6499,-2.6499,-2.6499,-2.6009,-2.5247,-2.423,-2.406,-2.4378,-2.5229,-2.5342,-2.5919,-2.7382,-2.7534,-2.756,-2.76,-2.76,-2.76,-2.76,-2.76,-2.76,-2.76,-2.76,-2.76,-2.76,-2.76,-2.7615,-2.7645,-2.7645,-2.8004,-2.8652,-2.8652,-2.9011,-1.8691,-1.9512,-2.0184,-2.0517,-2.0605,-2.0517,-2.0156,-1.9502,-1.8563,-1.731,-1.6447,-1.5535,0.0,0.0,0.0,-1.7916,-1.9668,0.0,-2.3723,-2.4465,0.0,0.0,0.0,-2.7014,-2.7234,-2.8301,0.0,0.0,-2.9315,-2.934,-2.9767,-2.9792,-2.9792,-2.9792,-2.9792,-2.9792,-2.9792,-2.9792,-2.9792,-2.9792,-2.9792,-2.9365,-2.8478,-2.7128,-2.6182,-2.5619,-2.5031,-2.4957,-2.5368,-2.7308,-2.8096,-2.8215,-2.9365,-2.9792,-2.9792,-2.9792,-2.9792,-2.9792,-2.9792,-2.9792,-2.9792,-2.9792,-2.9792,-2.9792,-2.9792,-2.9792,-2.9792,-2.9792,-2.9792,-2.9754,-2.9616,-2.9151,-2.8549,-2.8021,-2.7469,-2.7002,-2.6587,-2.6499,-2.6499,-2.6499,-2.6499,-2.6499,-2.6499,-2.6009,-2.5498,-2.5222,-2.4987,-2.4773,-2.4618,-2.4567,-2.5147,-2.6628,-2.6774,-2.7008,-2.7534,-2.76,-2.76,-2.76,-2.76,-2.76,-2.76,-2.76,-2.76,-2.76,-2.76,-2.7854,-2.8338,-2.8338,-2.8682,-2.9367,-2.9367,-2.9669,-1.9385,-2.0049,-2.0605,-2.0605,-2.0458,-2.0117,-1.9502,-1.8424,-1.7148,-1.5599,-1.4681,0.0,0.0,0.0,0.0,0.0,0.0,0.0,-2.376,-2.4957,-2.5909,0.0,-2.7587,0.0,-2.8482,-2.9269,-2.9792,0.0,0.0,-2.9453,-2.9779,-2.9792,-2.9792,-2.9792,-2.9792,-2.9792,-2.9792,-2.9792,-2.9792,-2.9792,-2.9792,-2.9197,-2.8044,-2.7005,-2.6141,-2.5504,0.0,-2.5083,-2.5672,-2.7389,-2.8096,-2.8215,-2.9365,-2.9792,-2.9792,-2.9792,-2.9792,-2.9792,-2.9792,-2.9792,-2.9792,-2.9792,-2.9792,-2.9792,-2.9792,-2.9792,-2.9792,-2.9792,-2.9792,-2.9792,-2.9792,-2.9365,-2.8813,-2.8499,-2.7858,-2.7241,-2.6927,-2.6663,-2.6499,-2.6499,-2.6499,-2.6499,-2.6499,-2.6515,-2.6449,-2.6205,-2.6009,-2.5704,-2.5153,-2.519,-2.5563,-2.6404,-2.68,-2.7152,-2.756,-2.76,-2.76,-2.76,-2.76,-2.76,-2.76,-2.76,-2.7735,-2.8034,-2.8049,-2.8353,-2.9026,-2.9026,-2.937,-2.9983,-2.9983,-3.0328,-1.9873,-2.0273,-2.0605,-2.0605,-2.0195,-1.9609,-1.8715,-1.722,-1.556,-1.4002,0.0,0.0,-1.1291,0.0,-1.3471,-1.5308,0.0,-2.0296,-2.2853,-2.4636,-2.6279,-2.7997,-2.8299,-2.8727,-2.9702,-2.9792,-2.9792,-2.9792,-2.9792,-2.9792,-2.9792,-2.9792,-2.9792,-2.9792,-2.9792,-2.9792,-2.9792,-2.9792,-2.9702,-2.9573,-2.9573,-2.8897,-2.7643,-2.6842,-2.6348,-2.6016,0.0,0.0,-2.6595,-2.7643,-2.8176,-2.8426,-2.9404,-2.9792,-2.9792,-2.9792,-2.9792,-2.9792,-2.9792,-2.9792,-2.9792,-2.9792,-2.9792,-2.9792,-2.9792,-2.9792,-2.9792,-2.9792,-2.9792,-2.9792,-2.9792,-2.9415,-2.8988,-2.8913,-2.8134,-2.7369,-2.7341,-2.6946,-2.6624,-2.6521,-2.6589,-2.6624,-2.6521,-2.7061,-2.7367,-2.6915,-2.6854,-2.6662,-2.613,-2.611,-2.625,-2.6438,-2.6974,-2.7382,-2.7575,-2.76,-2.76,-2.76,-2.76,-2.76,-2.76,-2.769,-2.8019,-2.8592,-2.8682,-2.9056,-2.9726,-2.9726,-3.0028,-3.0642,-3.0642,-3.0928,-2.0273,-2.0546,-2.0605,-2.0605,-2.0018,-1.917,-1.8311,-1.6192,0.0,0.0,0.0,-1.029,-1.004,-1.1503,0.0,-1.6203,0.0,0.0,0.0,0.0,-2.662,0.0,0.0,0.0,0.0,0.0,0.0,0.0,0.0,0.0,-2.9792,-2.9792,-2.9792,-2.9792,-2.9792,-2.9792,-2.9792,-2.9792,-2.9326,-2.8386,-2.8386,-2.7348,-2.541,-2.6171,-2.5484,-2.3767,0.0,0.0,-2.6595,-2.7643,-2.8648,-2.9534,-2.9702,-2.9792,-2.9792,-2.9792,-2.9792,-2.9792,-2.9792,-2.9792,-2.9792,-2.9792,-2.9792,-2.9792,-2.9792,-2.9792,-2.9792,-2.9792,-2.9792,-2.9792,-2.9792,-2.9716,-2.9528,-2.9001,-2.8436,-2.7833,-2.7381,-2.7404,-2.7284,-2.6624,-2.704,-2.7297,-2.6624,-2.6624,-2.6688,-2.6587,-2.666,-2.6492,-2.5777,-2.4968,-2.4885,-2.6115,-2.598,-2.6269,-2.7484,-2.76,-2.76,-2.76,-2.76,-2.76,-2.76,-2.8113,-2.8472,-2.8607,-2.9131,-2.9729,-3.0342,-3.0342,-3.0687,-3.1331,-3.1331,-3.1391,-2.0117,-2.0391,-2.0605,-2.0605,-1.9746,-1.8556,-1.7126,0.0,0.0,0.0,0.0,-0.9078,-0.9155,0.0,0.0,0.0,0.0,0.0,0.0,0.0,0.0,0.0,0.0,0.0,0.0,0.0,0.0,0.0,0.0,0.0,-2.9792,-2.9792,-2.9792,-2.9792,-2.9792,-2.9792,-2.9792,-2.9792,-2.9534,-2.8976,-2.8386,-2.755,-2.6521,-2.6513,-2.5891,-2.4935,0.0,0.0,-2.6595,-2.7643,-2.8426,-2.8976,-2.9573,-2.9792,-2.9792,-2.9792,-2.9792,-2.9792,-2.9792,-2.9792,-2.9792,-2.9792,-2.9792,-2.9792,-2.9792,-2.9792,-2.9792,-2.9792,-2.9792,-2.9792,-2.9792,-2.9792,-2.9729,-2.9453,-2.8725,-2.7979,-2.7597,-2.7613,-2.7571,-2.7196,-2.7451,-2.7451,-2.6658,-2.685,-2.7129,-2.7129,-2.717,-2.7085,-2.6736,-2.5605,-2.5141,-2.5962,-2.656,-2.7056,-2.7401,-2.7507,-2.7558,-2.759,-2.7565,-2.7543,-2.7615,-2.8588,-2.9116,-2.9116,-2.9729,-3.0387,-3.1017,-3.1017,-3.1182,-3.1511,-3.1511,-3.1511,-1.9863,-2.0234,-2.0605,-2.0605,-1.9531,-1.7967,-1.6104,-1.3818,0.0,0.0,0.0,-0.8192,-0.8729,0.0,0.0,0.0,0.0,0.0,0.0,0.0,0.0,0.0,0.0,0.0,0.0,0.0,0.0,0.0,0.0,0.0,0.0,-2.9792,-2.9792,-2.9792,-2.9792,-2.9792,-2.9792,-2.9792,-2.9663,-2.9443,-2.8518,-2.7964,-2.7723,-2.7116,-2.6719,-2.6513,0.0,0.0,0.0,-2.7763,-2.8255,-2.8557,-2.9456,-2.9792,-2.9792,-2.9792,-2.9792,-2.9792,-2.9792,-2.9792,-2.9792,-2.9792,-2.9792,-2.9792,-2.9792,-2.9792,-2.9792,-2.9792,-2.9792,-2.9792,-2.9792,-2.9792,-2.9729,-2.949,-2.8886,-2.8237,-2.7786,-2.7986,-2.8149,-2.7769,-2.7855,-2.767,-2.6692,-2.704,-2.7451,-2.7451,-2.7451,-2.7451,-2.7451,-2.6475,-2.5864,-2.5992,-2.7092,-2.764,-2.7272,-2.7327,-2.7417,-2.746,-2.74,-2.7403,-2.7471,-2.8616,-2.9248,-2.9248,-2.9851,-3.0527,-3.1248,-3.1248,-3.1322,-3.1511,-3.1511,-3.1511,-1.967,-2.0234,-2.0605,-2.0605,-1.9307,-1.7654,-1.6072,0.0,0.0,0.0,-0.7937,-0.7553,-0.8968,0.0,0.0,0.0,0.0,0.0,0.0,0.0,0.0,0.0,0.0,0.0,0.0,0.0,0.0,0.0,0.0,0.0,0.0,-2.9792,-2.9792,-2.9792,-2.9792,-2.9792,-2.9792,-2.9792,-2.9287,-2.8255,-2.8136,-2.7602,-2.6678,-2.7562,-2.74,-2.6554,0.0,0.0,0.0,-2.8044,-2.8727,-2.9663,-2.9753,-2.9792,-2.9792,-2.9792,-2.9792,-2.9792,-2.9792,-2.9792,-2.9792,-2.9792,-2.9792,-2.9792,-2.9792,-2.9792,-2.9792,-2.9792,-2.9792,-2.9792,-2.9792,-2.9792,-2.9528,-2.8499,-2.88,-2.9009,-2.792,-2.8939,-2.9597,-2.8019,-2.833,-2.8363,-2.6782,-2.6555,-2.6624,-2.6624,-2.6624,-2.6624,-2.6624,-2.6517,-2.642,-2.6438,-2.6245,-2.6357,-2.698,-2.7039,-2.7055,-2.7045,-2.7041,-2.7041,-2.7045,-2.7769,-2.8144,-2.8144,-2.8788,-2.9541,-3.0419,-3.0419,-3.0807,-3.1511,-3.1511,-3.1511,-1.8763,-1.9648,-2.0176,-2.0176,-1.8896,-1.7129,-1.5118,0.0,0.0,-0.8656,-0.7886,-0.7838,-0.8761,-0.9401,0.0,0.0,0.0,0.0,0.0,0.0,0.0,0.0,0.0,0.0,0.0,0.0,0.0,0.0,0.0,0.0,0.0,-2.9792,-2.9792,-2.9792,-2.9792,-2.9792,-2.9792,-2.9792,-2.9573,-2.9106,-2.8426,-2.8227,-2.8462,-2.8227,-2.8227,-2.8502,0.0,0.0,0.0,-2.9106,-2.9404,-2.9792,-2.9792,-2.9792,-2.9792,-2.9792,-2.9792,-2.9792,-2.9792,-2.9792,-2.9792,-2.9792,-2.9792,-2.9792,-2.9792,-2.9792,-2.9792,-2.9792,-2.9792,-2.9792,-2.9792,-2.9792,-2.9503,-2.8373,-2.8375,-2.8601,-2.8489,-2.862,-2.8684,-2.8524,-2.833,-2.7855,-2.6679,-2.6499,-2.6499,-2.6499,-2.6499,-2.6499,-2.6499,-2.6499,-2.6499,-2.6499,-2.6782,-2.6942,-2.6823,-2.689,-2.6958,-2.7001,-2.6965,-2.6945,-2.6987,-2.8013,-2.8402,-2.8013,-2.8667,-2.916,-2.9504,-2.9504,-2.995,-3.0777,-3.0777,-3.1029,-1.7407,-1.8602,-1.9512,-1.9385,-1.8114,-1.6349,0.0,0.0,-0.9867,-0.8332,-0.7961,-0.8118,-0.8797,-0.948,-1.0287,0.0,0.0,0.0,0.0,0.0,0.0,0.0,0.0,0.0,0.0,0.0,0.0,0.0,0.0,0.0,0.0,0.0,-2.9131,-2.9792,-2.9792,-2.9792,-2.9792,-2.9792,-2.9792,-2.9792,-2.8988,-2.9028,-2.9753,-2.8976,-2.9028,0.0,0.0,0.0,0.0,-2.9792,-2.9792,-2.9792,-2.9792,-2.9792,-2.9792,-2.9792,-2.9792,-2.9792,-2.9792,-2.9792,-2.9792,-2.9792,-2.9792,-2.9792,-2.9792,-2.9792,-2.9792,-2.9792,-2.9792,-2.9792,-2.9792,-2.9792,-2.9503,-2.8373,-2.8303,-2.8508,-2.8587,-2.833,-2.8182,-2.8556,-2.8117,-2.7451,-2.6658,-2.6499,-2.6499,-2.6499,-2.6499,-2.6499,-2.6499,-2.6499,-2.6499,-2.6499,-2.7007,-2.7148,-2.6667,-2.6739,-2.6797,-2.6854,-2.6795,-2.6816,-2.6841,-2.7758,-2.8045,-2.7565,-2.8032,-2.8363,-2.862,-2.8876,-2.9442,-3.0299,-3.0554,-3.097,-1.5545,-1.7144,-1.852,-1.8135,-1.685,-1.5246,0.0,-1.1243,-0.9357,-0.8476,-0.8081,-0.8221,-0.9299,-0.9507,-0.9964,-1.1373,0.0,0.0,0.0,0.0,0.0,0.0,0.0,0.0,0.0,0.0,0.0,0.0,0.0,0.0,0.0,0.0,-2.7557,-2.9714,-2.9792,-2.9792,-2.9792,-2.9792,-2.9792,-2.9792,-2.9792,-2.9792,-2.9792,-2.9792,0.0,0.0,0.0,0.0,0.0,-2.9792,-2.9792,-2.9792,-2.9792,-2.9792,-2.9792,-2.9792,-2.9792,-2.9792,-2.9792,-2.9792,-2.9792,-2.9792,-2.9792,-2.9792,-2.9792,-2.9792,-2.9792,-2.9792,-2.9792,-2.9792,-2.9792,-2.9792,-2.9503,-2.8373,-2.8746,-2.9078,-2.7953,-2.8363,-2.8716,-2.7887,-2.7703,-2.7451,-2.6658,-2.6499,-2.6499,-2.6499,-2.6499,-2.6499,-2.6499,-2.6499,-2.6499,-2.6499,-2.6499,-2.6521,-2.6487,-2.6487,-2.6508,-2.6508,-2.6508,-2.6508,-2.6508,-2.6521,-2.6521,-2.6521,-2.6521,-2.6905,-2.7736,-2.8588,-2.9442,-3.0329,-3.1117,-3.1511,-1.3226,-1.4326,-1.5124,-1.4796,-1.4049,-1.2958,-1.1431,-1.0066,-0.8965,-0.8424,-0.8384,-0.8655,-0.9359,-0.9804,-1.0569,-1.2227,-1.2484,0.0,0.0,0.0,0.0,0.0,0.0,0.0,0.0,0.0,0.0,0.0,0.0,0.0,0.0,0.0,-2.6812,-2.7516,-2.8239,-2.8636,-2.8636,-2.9404,-2.9792,-2.9792,-2.9792,-2.9792,-2.9792,-2.9792,0.0,0.0,0.0,0.0,0.0,-2.9792,-2.9792,-2.9792,-2.9792,-2.9792,-2.9792,-2.9792,-2.9792,-2.9792,-2.9792,-2.9792,-2.9792,-2.9792,-2.9792,-2.9792,-2.9792,-2.9792,-2.9792,-2.9792,-2.9792,-2.9792,-2.9792,-2.9792,-2.9503,-2.8373,-2.8303,-2.8379,-2.782,-2.7484,-2.7384,-2.7637,-2.7263,-2.6816,-2.6521,-2.6499,-2.6499,-2.6499,-2.6499,-2.6499,-2.6499,-2.6499,-2.6499,-2.6499,-2.6499,-2.6499,-2.6499,-2.6499,-2.6499,-2.6499,-2.6499,-2.6499,-2.6499,-2.6499,-2.6499,-2.6499,-2.6499,-2.6624,-2.6871,-2.7703,-2.8876,-3.0329,-3.1117,-3.1219,0.0,-1.2058,-1.2871,-1.2519,-1.1979,-1.1178,-0.9927,-0.9005,-0.8379,-0.8282,-0.8525,-0.8946,-0.9669,-1.0079,-1.0762,-1.2181,-1.2406,0.0,0.0,0.0,0.0,0.0,0.0,0.0,0.0,0.0,0.0,0.0,0.0,0.0,0.0,0.0,-2.5231,-2.5231,-2.6707,-2.7481,-2.7481,-2.8609,-2.9157,-2.9157,-2.9157,-2.9365,-2.9792,0.0,0.0,0.0,0.0,0.0,0.0,-2.9792,-2.9792,-2.9792,-2.9792,-2.9792,-2.9792,-2.9792,-2.9792,-2.9792,-2.9792,-2.9792,-2.9792,-2.9792,-2.9792,-2.9792,-2.9792,-2.9792,-2.9792,-2.9792,-2.9792,-2.9792,-2.9792,-2.9628,-2.9239,-2.8323,-2.7946,-2.7687,-2.7335,-2.685,-2.6658,-2.7162,-2.685,-2.6499,-2.6499,-2.6499,-2.6499,-2.6499,-2.6499,-2.6499,-2.6499,-2.6499,-2.6499,-2.6499,-2.6499,-2.6499,-2.6499,-2.6499,-2.6499,-2.6499,-2.6499,-2.6499,-2.6499,-2.6499,-2.6499,-2.6499,-2.6499,-2.6499,-2.6499,-2.7637,-2.9066,-3.0777,-3.1278,-3.1219,0.0,-1.0149,-1.1422,-1.0971,-1.0408,-0.9733,-0.8786,-0.807,0.0,-0.8125,-0.852,-0.9104,-1.0157,-1.0352,-1.0655,-1.1636,-1.1812,0.0,0.0,0.0,0.0,0.0,0.0,0.0,0.0,0.0,0.0,0.0,0.0,0.0,0.0,0.0,0.0,-2.3091,-2.5147,-2.6318,-2.6389,-2.7441,-2.7976,-2.7976,-2.7976,-2.8518,-2.9534,0.0,0.0,0.0,0.0,0.0,0.0,-2.9624,-2.9624,-2.9663,-2.9585,-2.9624,-2.9663,-2.9663,-2.9714,-2.9792,-2.9792,-2.9792,-2.9792,-2.9792,-2.9792,-2.9792,-2.9702,-2.9753,-2.9792,-2.9792,-2.9792,-2.9779,-2.9741,-2.934,-2.875,-2.8185,-2.7657,-2.7165,-2.6612,-2.6499,-2.6499,-2.6499,-2.6499,-2.6499,-2.6499,-2.6499,-2.6499,-2.6499,-2.6499,-2.6499,-2.6499,-2.6499,-2.6499,-2.6499,-2.6499,-2.6499,-2.6499,-2.6499,-2.6499,-2.6499,-2.6499,-2.6499,-2.6499,-2.6499,-2.6499,-2.6499,-2.6499,-2.6521,-2.6589,-2.8214,-2.9827,-3.1409,-3.1467,-3.1467,-0.6387,0.0,-0.7778,-0.7465,-0.7641,-0.7796,0.0,-0.7509,-0.7829,-0.8137,0.0,0.0,-1.0515,-1.0762,-1.1367,0.0,0.0,0.0,0.0,0.0,0.0,0.0,0.0,0.0,0.0,0.0,0.0,0.0,0.0,0.0,0.0,0.0,0.0,-2.3091,-2.3637,-2.4307,-2.521,-2.6295,-2.6883,-2.6883,-2.6883,-2.7017,-2.7302,0.0,0.0,0.0,0.0,0.0,-2.9663,-2.7959,-2.7747,-2.8426,-2.7585,-2.7787,-2.8518,-2.8518,-2.9067,-2.9792,-2.9792,-2.9792,-2.9792,-2.9792,-2.9792,-2.9624,-2.8767,-2.9106,-2.9792,-2.9792,-2.9792,-2.9691,-2.9252,-2.9001,-2.865,-2.7708,-2.7369,-2.7165,-2.6612,-2.6499,-2.6499,-2.6499,-2.6499,-2.6499,-2.6499,-2.6499,-2.6499,-2.6499,-2.6499,-2.6499,-2.6499,-2.6499,-2.6499,-2.6499,-2.6499,-2.6499,-2.6499,-2.6499,-2.6499,-2.6499,-2.6499,-2.6499,-2.6499,-2.6499,-2.6499,-2.6499,-2.6499,-2.6816,-2.7417,-2.8492,-2.9535,-3.0614,-3.1219,-3.1161,-0.5511,-0.6139,-0.6754,-0.6613,-0.7151,-0.7627,-0.7361,0.0,0.0,0.0,0.0,0.0,0.0,0.0,0.0,0.0,0.0,0.0,0.0,0.0,0.0,0.0,0.0,0.0,0.0,0.0,0.0,0.0,0.0,0.0,0.0,0.0,0.0,0.0,-2.3091,-2.3387,-2.4006,-2.5136,-2.5714,-2.5714,-2.5714,-2.5975,-2.6524,0.0,0.0,0.0,0.0,0.0,-2.8171,-2.6976,-2.6842,-2.7319,-2.6719,-2.6842,-2.7452,-2.7936,-2.8478,-2.9106,-2.9624,-2.9792,-2.9792,-2.9792,-2.9456,-2.8897,-2.8307,-2.8518,-2.9028,-2.9028,-2.8844,-2.8702,-2.885,-2.8512,-2.8021,-2.7419,-2.7128,-2.6851,-2.6562,-2.6499,-2.6499,-2.6499,-2.6499,-2.6499,-2.6499,-2.6499,-2.6499,-2.6499,-2.6499,-2.6499,-2.6499,-2.6499,-2.6499,-2.6499,-2.6499,-2.6499,-2.6499,-2.6499,-2.6499,-2.6499,-2.6499,-2.6499,-2.6499,-2.6499,-2.6499,-2.6499,-2.6499,-2.6905,-2.7703,-2.8182,-2.8844,-2.969,-3.0133,-3.0103,-0.5407,-0.6273,-0.7147,-0.7052,-0.7779,-0.8465,-0.8222,0.0,0.0,0.0,0.0,0.0,0.0,0.0,0.0,0.0,0.0,0.0,0.0,0.0,0.0,0.0,0.0,0.0,0.0,0.0,0.0,0.0,0.0,0.0,0.0,0.0,0.0,0.0,-2.3091,-2.3091,-2.3091,-2.4049,-2.4542,-2.4542,-2.4542,-2.5052,-2.5933,-2.5168,0.0,0.0,0.0,0.0,-2.6483,-2.6099,-2.6058,-2.6224,-2.6058,-2.6099,-2.6348,-2.7267,-2.7804,-2.8255,-2.9404,-2.9702,-2.9534,-2.9534,-2.8897,-2.8044,-2.7723,-2.7723,-2.7844,-2.7844,-2.7715,-2.7736,-2.8549,-2.8047,-2.7291,-2.7216,-2.6839,-2.6499,-2.6499,-2.6499,-2.6499,-2.6499,-2.6499,-2.6499,-2.6499,-2.6499,-2.6499,-2.6499,-2.6499,-2.6499,-2.6499,-2.6499,-2.6499,-2.6499,-2.6499,-2.6499,-2.6499,-2.6499,-2.6499,-2.6499,-2.6499,-2.6499,-2.6499,-2.6499,-2.6499,-2.6499,-2.6499,-2.685,-2.7517,-2.7637,-2.8084,-2.8812,-2.8939,-2.9002,-0.592,-0.6979,-0.781,-0.7303,-0.8342,-0.947,-0.9437,0.0,0.0,0.0,0.0,0.0,0.0,0.0,0.0,0.0,0.0,0.0,0.0,0.0,0.0,0.0,0.0,0.0,0.0,0.0,0.0,0.0,0.0,0.0,0.0,0.0,0.0,0.0,0.0,-2.3091,-2.3091,-2.3256,-2.3343,-2.3343,-2.3343,-2.343,-2.3637,-2.4414,-2.4914,0.0,0.0,-2.5588,-2.6348,-2.4435,-2.4178,-2.4957,-2.4016,-2.4221,-2.5083,-2.5241,-2.6479,-2.8255,-2.9404,-2.9157,-2.8347,-2.8347,-2.8255,-2.7752,-2.5859,-2.5994,-2.676,-2.676,-2.7648,-2.8575,-2.8311,-2.7758,-2.7203,-2.6738,-2.6549,-2.6499,-2.6499,-2.6499,-2.6499,-2.6499,-2.6499,-2.6499,-2.6499,-2.6499,-2.6499,-2.6499,-2.6499,-2.6499,-2.6499,-2.6499,-2.6499,-2.6499,-2.6499,-2.6499,-2.6499,-2.6499,-2.6499,-2.6499,-2.6499,-2.6499,-2.6499,-2.6499,-2.6499,-2.6499,-2.6499,-2.6555,-2.6679,-2.7384,-2.7769,-2.792,-2.8652,-2.9002,-0.5371,-0.6513,-0.7621,-0.7683,-0.9266,-1.0827,-1.0831,0.0,0.0,0.0,0.0,0.0,0.0,0.0,0.0,0.0,0.0,0.0,0.0,0.0,0.0,0.0,0.0,0.0,0.0,0.0,0.0,0.0,0.0,0.0,0.0,0.0,0.0,0.0,0.0,0.0,-2.3091,-2.3091,-2.3091,-2.3091,-2.3091,-2.3091,-2.3135,-2.3637,-2.3877,0.0,0.0,-2.4178,-2.4563,-2.3517,-2.343,-2.3844,-2.3299,-2.342,-2.3963,-2.4585,-2.6191,-2.8176,-2.8688,-2.8937,-2.8937,-2.8307,-2.7723,-2.7035,-2.6047,-2.6099,-2.6637,-2.7197,-2.7498,-2.7691,-2.8013,-2.7469,-2.6813,-2.6549,-2.6499,-2.6499,-2.6499,-2.6499,-2.6499,-2.6499,-2.6499,-2.6499,-2.6499,-2.6499,-2.6499,-2.6499,-2.6499,-2.6499,-2.6499,-2.6499,-2.6499,-2.6499,-2.6499,-2.6499,-2.6499,-2.6499,-2.6499,-2.6499,-2.6499,-2.6499,-2.6499,-2.6499,-2.6499,-2.6499,-2.6499,-2.6499,-2.6499,-2.6871,-2.704,-2.7074,-2.7451,-2.7637,-0.5075,-0.6244,-0.752,-0.8062,0.0,-1.149,-1.1996,0.0,0.0,0.0,0.0,0.0,0.0,0.0,0.0,0.0,0.0,0.0,0.0,0.0,0.0,0.0,0.0,0.0,0.0,0.0,0.0,0.0,0.0,0.0,0.0,0.0,0.0,0.0,0.0,0.0,-2.3091,-2.3091,-2.3091,-2.3091,-2.3091,-2.3091,-2.3091,-2.3091,-2.3091,-2.3091,-2.3091,-2.3091,-2.3091,-2.3091,-2.3091,-2.3091,-2.3091,-2.3091,-2.3266,-2.4382,-2.5692,-2.7023,-2.7522,-2.8108,-2.849,-2.7602,-2.6789,-2.6099,-2.6099,-2.6307,-2.6696,-2.7662,-2.7225,-2.6762,-2.784,-2.7139,-2.6129,-2.6129,-2.6129,-2.6129,-2.6129,-2.6349,-2.6499,-2.6499,-2.6499,-2.6499,-2.6499,-2.6499,-2.6418,-2.6164,-2.6129,-2.6047,-2.5826,-2.5791,-2.5791,-2.5791,-2.6013,-2.6245,-2.6487,-2.6499,-2.6499,-2.6499,-2.6499,-2.6499,-2.6499,-2.6499,-2.6499,-2.6499,-2.6499,-2.6499,-2.6499,-2.6499,-2.6499,-2.6499,-2.6499,-2.6499,-0.5856,-0.7003,-0.8033,-0.839,-0.9255,0.0,-1.2555,-1.267,0.0,-1.537,0.0,0.0,0.0,0.0,0.0,0.0,0.0,0.0,0.0,0.0,0.0,0.0,0.0,0.0,0.0,0.0,0.0,0.0,0.0,0.0,0.0,0.0,0.0,0.0,0.0,0.0,-2.3091,-2.3091,-2.3091,-2.3091,-2.3091,-2.3091,-2.3091,-2.3091,-2.3091,-2.3091,-2.3091,-2.3091,-2.3091,-2.3091,-2.3091,-2.3091,-2.3091,-2.3091,-2.3266,-2.4382,-2.4211,-2.3757,-2.5891,-2.5964,-2.5157,-2.5073,-2.4999,-2.4914,-2.4914,-2.5672,-2.6628,-2.7187,-2.6993,-2.6839,-2.7828,-2.6613,-2.5123,-2.5123,-2.5123,-2.5123,-2.5123,-2.5838,-2.6499,-2.6499,-2.6499,-2.6499,-2.6499,-2.6499,-2.6164,-2.5264,-2.5123,-2.4779,-2.3854,-2.3708,-2.3708,-2.3708,-2.4552,-2.5476,-2.6418,-2.6499,-2.6499,-2.6499,-2.6499,-2.6499,-2.6499,-2.6499,-2.6499,-2.6499,-2.6499,-2.6499,-2.6499,-2.6499,-2.6499,-2.6499,-2.6499,-2.6499,-0.5182,-0.6091,-0.6989,-0.7454,-0.8783,0.0,0.0,-1.3219,-1.4403,-1.5725,0.0,0.0,0.0,0.0,0.0,0.0,0.0,0.0,0.0,0.0,0.0,0.0,0.0,0.0,0.0,0.0,0.0,0.0,0.0,0.0,0.0,0.0,0.0,0.0,0.0,0.0,0.0,-2.3091,-2.3091,-2.3091,-2.3091,-2.3091,-2.3091,-2.3091,-2.3091,-2.3091,-2.3091,-2.3091,-2.3091,-2.3091,-2.3091,-2.3091,-2.3091,-2.3091,-2.3135,-2.3594,-2.392,-2.4296,-2.5126,-2.563,-2.5755,-2.5041,-2.5294,-2.585,-2.585,-2.6411,-2.7179,-2.8051,-2.7245,-2.6187,-2.6578,-2.537,-2.4072,-2.4072,-2.4072,-2.4228,-2.4862,-2.4814,-2.4981,-2.6267,-2.5499,-2.4838,-2.5441,-2.5063,-2.4516,-2.4108,-2.4072,-2.3927,-2.3562,-2.3514,-2.3514,-2.3514,-2.4409,-2.5406,-2.6418,-2.6499,-2.6499,-2.6499,-2.6499,-2.6499,-2.6499,-2.6499,-2.6499,-2.6499,-2.6499,-2.6499,-2.6499,-2.6499,-2.6499,-2.6499,-2.6499,-2.6499,-0.5026,-0.5896,-0.6887,0.0,0.0,0.0,-1.1598,-1.3666,-1.5574,0.0,0.0,0.0,0.0,0.0,0.0,0.0,0.0,0.0,0.0,0.0,0.0,0.0,0.0,0.0,0.0,0.0,0.0,0.0,0.0,0.0,0.0,0.0,0.0,0.0,0.0,0.0,0.0,-2.3091,-2.3091,-2.3091,-2.3091,-2.3091,-2.3091,-2.3091,-2.3091,-2.3091,-2.3091,-2.3091,-2.3091,-2.3091,-2.3091,-2.3091,-2.3091,-2.3091,-2.3091,-2.3091,-2.3594,-2.4253,-2.4253,-2.4755,-2.5305,-2.45,-2.4798,-2.5473,-2.5839,-2.6113,-2.6521,-2.7402,-2.6318,-2.4834,-2.4636,-2.3824,-2.3036,-2.3036,-2.3036,-2.322,-2.3891,-2.3745,-2.3927,-2.5276,-2.4433,-2.3708,-2.4409,-2.3963,-2.3404,-2.3073,-2.3036,-2.2925,-2.2627,-2.2601,-2.2824,-2.3441,-2.412,-2.5063,-2.6383,-2.6499,-2.6499,-2.6499,-2.6499,-2.6499,-2.6499,-2.6499,-2.6499,-2.6499,-2.6499,-2.6499,-2.6499,-2.6499,-2.6499,-2.6499,-2.6499,-2.6499,-0.5694,-0.6777,0.0,0.0,0.0,0.0,0.0,-1.3933,-1.6219,0.0,0.0,0.0,0.0,0.0,0.0,0.0,0.0,0.0,0.0,0.0,0.0,0.0,0.0,0.0,0.0,0.0,0.0,0.0,0.0,0.0,0.0,0.0,0.0,0.0,0.0,0.0,0.0,-2.3081,-2.3081,-2.3081,-2.3091,-2.3091,-2.3091,-2.3091,-2.3091,-2.3091,-2.3091,-2.3091,-2.3091,-2.3091,-2.3091,-2.3091,-2.3091,-2.3091,-2.3091,-2.3091,-2.3091,-2.3091,-2.3091,-2.3091,-2.3091,-2.3091,-2.3091,-2.3343,-2.4447,-2.4504,-2.4287,-2.4853,-2.3978,-2.2741,-2.2153,-2.1989,-2.1989,-2.1989,-2.1989,-2.1989,-2.1989,-2.2776,-2.3489,-2.3514,-2.3478,-2.3489,-2.3478,-2.3478,-2.3147,-2.214,-2.1989,-2.1669,-2.0712,-2.0605,-2.1346,-2.3294,-2.3478,-2.4325,-2.6314,-2.6487,-2.6499,-2.6499,-2.6499,-2.6499,-2.6499,-2.6499,-2.6499,-2.6499,-2.6499,-2.6499,-2.6499,-2.6499,-2.6499,-2.6499,-2.6499,-2.6499,-0.5427,0.0,0.0,0.0,0.0,0.0,0.0,0.0,0.0,0.0,0.0,0.0,0.0,0.0,0.0,0.0,0.0,0.0,0.0,0.0,0.0,0.0,0.0,0.0,0.0,0.0,0.0,0.0,0.0,0.0,0.0,0.0,0.0,0.0,0.0,0.0,0.0,0.0,-2.2256,-2.2266,-2.2559,-2.2808,-2.3091,-2.3091,-2.3091,-2.3091,-2.3091,-2.3091,-2.3091,-2.3091,-2.3091,-2.3091,-2.3091,-2.3091,-2.3091,-2.3091,-2.3091,-2.3091,-2.3091,-2.3091,-2.3091,-2.3091,-2.3428,-2.396,-2.4273,-2.4325,-2.431,-2.4473,-2.3438,-2.2244,-2.2069,-2.1517,-2.1011,-2.1011,-2.1011,-2.1193,-2.1849,-2.1707,-2.1859,-2.322,-2.2414,-2.168,-2.2328,-2.1886,-2.1375,-2.1039,-2.1011,-2.0895,-2.0644,-2.0605,-2.1088,-2.2291,-2.3073,-2.4036,-2.5335,-2.6094,-2.6499,-2.6499,-2.6499,-2.6499,-2.6499,-2.6499,-2.6499,-2.6499,-2.6499,-2.6499,-2.6499,-2.6499,-2.6499,-2.6499,-2.6499,-2.6499,-0.5905,0.0,0.0,0.0,0.0,0.0,0.0,0.0,0.0,0.0,0.0,0.0,0.0,0.0,0.0,0.0,0.0,0.0,0.0,0.0,0.0,0.0,0.0,0.0,0.0,0.0,0.0,0.0,0.0,0.0,0.0,0.0,0.0,0.0,0.0,0.0,0.0,0.0,0.0,-2.1894,-2.2139,-2.2402,-2.2613,-2.2945,-2.3091,-2.3091,-2.3091,-2.3091,-2.3091,-2.3091,-2.3091,-2.3091,-2.3091,-2.3091,-2.3091,-2.3091,-2.2984,-2.2847,-2.2847,-2.2783,-2.2604,-2.2604,-2.2906,-2.3299,-2.3299,-2.3179,-2.3079,-2.3079,-2.229,-2.1441,-2.1441,-2.1011,-2.0605,-2.0605,-2.0605,-2.075,-2.1336,-2.1001,-2.0934,-2.2113,-2.1423,-2.0789,-2.1336,-2.0972,-2.0605,-2.0605,-2.0605,-2.0605,-2.0605,-2.0605,-2.0972,-2.1886,-2.2553,-2.3294,-2.4337,-2.5335,-2.5908,-2.5908,-2.628,-2.6499,-2.6499,-2.6499,-2.6499,-2.6499,-2.6499,-2.6499,-2.6499,-2.6499,-2.6499,-2.6499,-2.6499,-2.6499,0.0,0.0,0.0,0.0,0.0,0.0,0.0,0.0,0.0,0.0,0.0,0.0,0.0,0.0,0.0,0.0,0.0,0.0,0.0,0.0,0.0,0.0,0.0,0.0,0.0,0.0,0.0,0.0,0.0,0.0,0.0,0.0,0.0,0.0,0.0,0.0,0.0,0.0,0.0,0.0,-2.1807,-2.1826,-2.1855,-2.2656,-2.2984,-2.2984,-2.3023,-2.3042,-2.3042,-2.3042,-2.3062,-2.3091,-2.3091,-2.3091,-2.3091,-2.3052,-2.2799,-2.251,-2.2471,-2.2207,-2.1885,-2.1885,-2.1855,-2.1826,-2.1826,-2.1523,-2.1132,-2.1132,-2.0879,-2.0605,-2.0605,-2.0605,-2.0605,-2.0605,-2.0605,-2.0605,-2.0605,-2.0605,-2.0605,-2.0605,-2.0605,-2.0605,-2.0605,-2.0605,-2.0605,-2.0605,-2.0605,-2.0605,-2.0605,-2.0605,-2.0934,-2.1773,-2.1962,-2.2366,-2.3294,-2.4301,-2.4898,-2.5004,-2.5873,-2.6383,-2.6499,-2.6499,-2.6499,-2.6499,-2.6499,-2.6499,-2.6499,-2.6499,-2.6499,-2.6499,-2.6499,-2.6499,0.0,0.0,0.0,0.0,0.0,0.0,0.0,0.0,0.0,0.0,0.0,0.0,0.0,0.0,0.0,0.0,0.0,0.0,0.0,0.0,0.0,0.0,0.0,0.0,0.0,0.0,0.0,0.0,0.0,0.0,0.0,0.0,0.0,0.0,0.0,0.0,-2.0889,-2.0889,-2.0889,0.0,-2.1201,-2.1337,-2.1356,-2.1914,-2.2158,-2.2178,-2.251,-2.2646,-2.2646,-2.2646,-2.2799,-2.3091,-2.3091,-2.3091,-2.3052,-2.2773,-2.2588,-2.2461,-2.2139,-2.1963,-2.1885,-2.1885,-2.165,-2.1337,-2.1337,-2.1064,-2.0752,-2.0752,-2.0674,-2.0605,-2.0605,-2.0605,-2.0605,-2.0605,-2.0605,-2.0605,-2.0605,-2.0605,-2.0605,-2.0605,-2.0605,-2.0605,-2.0605,-2.0605,-2.0605,-2.0605,-2.0605,-2.0605,-2.0605,-2.0605,-2.0673,-2.0895,-2.1555,-2.2103,-2.2291,-2.3257,-2.4156,-2.4933,-2.5194,-2.5699,-2.6452,-2.6499,-2.6499,-2.6499,-2.6499,-2.6499,-2.6499,-2.6499,-2.6499,-2.6499,-2.6499,-2.6499,0.0,0.0,0.0,0.0,0.0,0.0,0.0,0.0,0.0,0.0,0.0,0.0,0.0,0.0,0.0,0.0,0.0,0.0,0.0,0.0,0.0,0.0,0.0,0.0,0.0,0.0,0.0,0.0,0.0,0.0,0.0,0.0,0.0,0.0,0.0,0.0,-2.0605,-2.0605,-2.0605,-2.0605,-2.0801,-2.0918,-2.0937,-2.1592,-2.1885,-2.1894,-2.2119,-2.2207,-2.2207,-2.2207,-2.2344,-2.2539,-2.2539,-2.2539,-2.251,-2.2295,-2.208,-2.1865,-2.165,-2.1435,-2.129,-2.129,-2.1103,-2.0918,-2.0918,-2.0752,-2.0605,-2.0605,-2.0605,-2.0605,-2.0605,-2.0605,-2.0605,-2.0605,-2.0605,-2.0605,-2.0605,-2.0605,-2.0605,-2.0605,-2.0605,-2.0605,-2.0605,-2.0605,-2.0605,-2.0605,-2.0605,-2.0605,-2.0605,-2.0605,-2.0605,-2.0605,-2.1049,-2.1336,-2.1336,-2.2215,-2.2999,-2.3514,-2.4011,-2.4516,-2.5052,-2.5063,-2.5534,-2.6487,-2.6499,-2.6499,-2.6499,-2.6499,-2.6499,-2.6499,-2.6499,-2.6499,0.0,0.0,0.0,0.0,0.0,0.0,0.0,0.0,0.0,0.0,0.0,0.0,0.0,0.0,0.0,0.0,0.0,0.0,0.0,0.0,0.0,0.0,0.0,0.0,0.0,0.0,0.0,0.0,0.0,0.0,0.0,0.0,0.0,0.0,0.0,-2.0605,-2.0605,-2.0605,-2.0605,-2.0605,-2.0605,-2.0605,-2.0625,-2.1368,-2.1701,-2.166,-2.1738,-2.1777,-2.1777,-2.1777,-2.1816,-2.1885,-2.1885,-2.1885,-2.1875,-2.1807,-2.1543,-2.1181,-2.1103,-2.0879,-2.0605,-2.0605,-2.0605,-2.0605,-2.0605,-2.0605,-2.0605,-2.0605,-2.0605,-2.0605,-2.0605,-2.0605,-2.0605,-2.0605,-2.0605,-2.0605,-2.0605,-2.0605,-2.0605,-2.0605,-2.0605,-2.0605,-2.0605,-2.0605,-2.0605,-2.0605,-2.0605,-2.0605,-2.0605,-2.0605,-2.0605,-2.0605,-2.0605,-2.0605,-2.0605,-2.1298,-2.1849,-2.1989,-2.2776,-2.3331,-2.3478,-2.3514,-2.4289,-2.5943,-2.6164,-2.6245,-2.6245,-2.6418,-2.6499,-2.6499,-2.6499,-2.6499,0.0,0.0,0.0,0.0,0.0,0.0,0.0,0.0,0.0,0.0,0.0,0.0,0.0,0.0,0.0,0.0,0.0,0.0,0.0,0.0,0.0,0.0,0.0,0.0,0.0,0.0,0.0,0.0,0.0,0.0,0.0,0.0,-1.9029,-1.9962,-2.041,0.0,-2.0605,-2.0605,-2.0605,-2.0605,-2.0605,-2.0605,-2.0605,-2.0723,-2.0781,-2.0801,-2.1152,-2.1278,-2.1278,-2.1278,-2.1543,-2.1885,-2.1885,-2.1885,-2.1836,-2.1455,-2.1239,-2.1142,-2.0791,-2.0654,-2.0605,-2.0605,-2.0605,-2.0605,-2.0605,-2.0605,-2.0605,-2.0605,-2.0605,-2.0605,-2.0605,-2.0605,-2.0605,-2.0605,-2.0605,-2.0605,-2.0605,-2.0605,-2.0605,-2.0605,-2.0605,-2.0605,-2.0605,-2.0605,-2.0605,-2.0605,-2.0605,-2.0605,-2.0605,-2.0605,-2.0605,-2.0605,-2.0605,-2.0605,-2.0605,-2.0712,-2.1116,-2.1962,-2.214,-2.259,-2.3478,-2.3514,-2.3624,-2.3879,-2.4743,-2.5194,-2.5194,-2.6094,-2.6499,-2.6499,-2.6499,-2.6499,0.0,0.0,0.0,0.0,0.0,0.0,0.0,0.0,0.0,0.0,0.0,0.0,0.0,0.0,0.0,0.0,0.0,0.0,0.0,0.0,0.0,0.0,0.0,0.0,0.0,0.0,0.0,0.0,0.0,0.0,0.0,-1.6047,-1.7136,-1.8723,-1.8976,0.0,-2.0195,-2.0195,-2.0322,-2.0605,-2.0605,-2.0605,-2.0605,-2.0605,-2.0605,-2.0615,-2.0771,-2.0859,-2.0859,-2.0859,-2.0977,-2.1182,-2.1182,-2.1182,-2.1163,-2.0928,-2.0859,-2.083,-2.0674,-2.0605,-2.0605,-2.0605,-2.0605,-2.0605,-2.0605,-2.0605,-2.0605,-2.0605,-2.0605,-2.0605,-2.0605,-2.0605,-2.0605,-2.0605,-2.0605,-2.0605,-2.0605,-2.0605,-2.0605,-2.0605,-2.0605,-2.0605,-2.0605,-2.0605,-2.0605,-2.0605,-2.0605,-2.0605,-2.0605,-2.0605,-2.0605,-2.0605,-2.0605,-2.0605,-2.0605,-2.0605,-2.0789,-2.1193,-2.1231,-2.1413,-2.1859,-2.1859,-2.1859,-2.1859,-2.3927,-2.5004,-2.5004,-2.6025,-2.6499,-2.6499,-2.6499,-2.6499,0.0,0.0,0.0,0.0,0.0,0.0,0.0,0.0,0.0,0.0,0.0,0.0,0.0,0.0,0.0,0.0,0.0,0.0,0.0,0.0,0.0,0.0,0.0,0.0,0.0,0.0,0.0,0.0,0.0,0.0,-1.447,-1.4851,-1.5878,-1.7668,-1.7842,-1.849,-1.9756,-1.9863,-2.0078,-2.0439,-2.0546,-2.0605,-2.0605,-2.0605,-2.0605,-2.0605,-2.0605,-2.0605,-2.0605,-2.0605,-2.0605,-2.0605,-2.0605,-2.0605,-2.0605,-2.0605,-2.0605,-2.0605,-2.0605,-2.0605,-2.0605,-2.0605,-2.0605,-2.0605,-2.0605,-2.0605,-2.0605,-2.0605,-2.0605,-2.0605,-2.0605,-2.0605,-2.0605,-2.0605,-2.0605,-2.0605,-2.0605,-2.0605,-2.0605,-2.0605,-2.0605,-2.0605,-2.0605,-2.0605,-2.0605,-2.0605,-2.0605,-2.0605,-2.0605,-2.0605,-2.0605,-2.0605,-2.0605,-2.0605,-2.0605,-2.0605,-2.0605,-2.0605,-2.0605,-2.0605,-2.0605,-2.0605,-2.0605,-2.0605,-2.301,-2.4373,-2.4636,-2.5873,-2.6499,-2.6499,-2.6499,-2.6499,0.0,0.0,0.0,0.0,0.0,0.0,0.0,0.0,0.0,0.0,0.0,0.0,0.0,0.0,0.0,0.0,0.0,0.0,0.0,0.0,0.0,0.0,0.0,0.0,0.0,0.0,0.0,0.0,0.0,0.0,-1.3761,-1.5032,-1.6201,-1.7216,-1.766,-1.835,-1.9316,-1.9717,-1.9922,-1.9951,-2.041,-2.0605,-2.0605,-2.0605,-2.0605,-2.0605,-2.0605,-2.0605,-2.0605,-2.0605,-2.0605,-2.0605,-2.0605,-2.0605,-2.0605,-2.0605,-2.0605,-2.0605,-2.0605,-2.0605,-2.0605,-2.0605,-2.0605,-2.0605,-2.0605,-2.0605,-2.0605,-2.0605,-2.0605,-2.0605,-2.0605,-2.0605,-2.0605,-2.0605,-2.0605,-2.0605,-2.0605,-2.0605,-2.0605,-2.0605,-2.0605,-2.0605,-2.0605,-2.0605,-2.0605,-2.0605,-2.0605,-2.0605,-2.0605,-2.0605,-2.0605,-2.0605,-2.0605,-2.0605,-2.0605,-2.0605,-2.0605,-2.0605,-2.0605,-2.0605,-2.0605,-2.0605,-2.0605,-2.0605,-2.1631,-2.2627,-2.3588,-2.5534,-2.6499,-2.6499,-2.6499,-2.6499,0.0,0.0,0.0,0.0,0.0,0.0,0.0,0.0,0.0,0.0,0.0,0.0,0.0,0.0,0.0,0.0,0.0,0.0,0.0,0.0,0.0,0.0,0.0,0.0,0.0,0.0,0.0,0.0,0.0,0.0,-1.2806,-1.3271,-1.4267,-1.5862,-1.6071,-1.7018,-1.8831,-1.9297,-1.9512,-1.9512,-1.9705,-1.9783,-1.9756,-2.0019,-2.0146,-2.0166,-2.0478,-2.0605,-2.0605,-2.0605,-2.0605,-2.0605,-2.0605,-2.0605,-2.0605,-2.0605,-2.0605,-2.0605,-2.0605,-2.0605,-2.0605,-2.0605,-2.0605,-2.0605,-2.0605,-2.0605,-2.0605,-2.0605,-2.0605,-2.0605,-2.0605,-2.0605,-2.0605,-2.0605,-2.0605,-2.0605,-2.0605,-2.0605,-2.0605,-2.0605,-2.0605,-2.0605,-2.0605,-2.0605,-2.0605,-2.0605,-2.0605,-2.0605,-2.0605,-2.0605,-2.0605,-2.0605,-2.0605,-2.0605,-2.0605,-2.0605,-2.0605,-2.0605,-2.0303,-2.0146,-2.0146,-2.0146,-2.0146,-2.0146,-2.1374,-2.2178,-2.2553,-2.4552,-2.5376,-2.5036,-2.5629,-2.5724,-0.2215,0.0,0.0,0.0,0.0,0.0,0.0,0.0,0.0,0.0,0.0,0.0,0.0,0.0,0.0,0.0,0.0,0.0,0.0,0.0,0.0,0.0,0.0,0.0,0.0,0.0,0.0,0.0,0.0,0.0,-1.2335,-1.2592,-1.352,-1.5163,-1.5807,-1.6886,-1.8383,-1.8848,-1.9072,-1.9072,-1.9219,-1.9287,-1.9297,-1.958,-1.9785,-1.9932,-2.0225,-2.0468,-2.0605,-2.0605,-2.0605,-2.0605,-2.0605,-2.0605,-2.0605,-2.0605,-2.0605,-2.0605,-2.0605,-2.0605,-2.0605,-2.0605,-2.0605,-2.0605,-2.0605,-2.0605,-2.0605,-2.0605,-2.0605,-2.0605,-2.0605,-2.0605,-2.0605,-2.0605,-2.0605,-2.0605,-2.0605,-2.0605,-2.0605,-2.0605,-2.0605,-2.0605,-2.0605,-2.0605,-2.0556,-2.041,-2.039,-2.039,-2.039,-2.039,-2.0449,-2.0586,-2.0605,-2.0605,-2.0605,-2.0468,-2.039,-2.039,-1.9941,-1.9707,-1.9707,-1.9707,-1.9707,-1.9707,-2.0626,-2.1104,-2.1104,-2.3525,-2.4481,-2.3992,-2.4892,-2.5146,0.0,0.0,0.0,0.0,0.0,0.0,0.0,0.0,0.0,0.0,0.0,0.0,0.0,0.0,0.0,0.0,0.0,0.0,0.0,0.0,0.0,0.0,0.0,0.0,0.0,0.0,0.0,0.0,0.0,-1.3215,-1.2315,-1.3186,-1.4199,-1.5163,-1.701,-1.8008,-1.8008,-1.8383,-1.8588,-1.8588,-1.9043,-1.9248,-1.9248,-1.9268,-1.9492,-1.9883,-1.9893,-2.0137,-2.0566,-2.0595,-2.0605,-2.0605,-2.0605,-2.0605,-2.0605,-2.0605,-2.0605,-2.0605,-2.0605,-2.0605,-2.0605,-2.0605,-2.0605,-2.0605,-2.0605,-2.0605,-2.0605,-2.0566,-2.0557,-2.0566,-2.0518,-2.0527,-2.0557,-2.0557,-2.0566,-2.0605,-2.0605,-2.0605,-2.0605,-2.0605,-2.0605,-2.0595,-2.0586,-2.0586,-2.0439,-1.9961,-1.9893,-1.9893,-1.9893,-1.9893,-2.0059,-2.0517,-2.0566,-2.0566,-2.0566,-2.0137,-1.9893,-1.9893,-1.9502,-1.9268,-1.9268,-1.9268,-1.9268,-1.9268,-1.9277,-1.9277,-1.9304,-2.2529,-2.3866,-2.3411,-2.4304,-2.4705,-0.2049,0.0,0.0,0.0,0.0,0.0,0.0,0.0,0.0,0.0,0.0,0.0,0.0,0.0,0.0,0.0,0.0,0.0,0.0,0.0,0.0,0.0,0.0,0.0,0.0,0.0,0.0,0.0,0.0,-1.1908,-1.167,-1.3419,-1.4646,-1.519,-1.701,-1.8008,-1.8008,-1.8125,-1.8184,-1.8184,-1.8311,-1.8359,-1.8379,-1.8682,-1.8841,-1.8968,-1.9326,-1.9531,-1.9725,-2.0351,-2.0605,-2.0605,-2.0605,-2.0605,-2.0605,-2.0605,-2.0605,-2.0605,-2.0605,-2.0605,-2.0605,-2.0605,-2.0605,-2.0605,-2.0605,-2.0605,-2.044,-1.9638,-1.9441,-1.9234,-1.843,-1.8829,-1.9441,-1.9441,-2.004,-2.0605,-2.0605,-2.0605,-2.0605,-2.0605,-2.0605,-2.0507,-2.0146,-2.0088,-1.9951,-1.9531,-1.9463,-1.9463,-1.9463,-1.9463,-1.9512,-1.9666,-1.9639,-1.9639,-1.9639,-1.9531,-1.9463,-1.9463,-1.9053,-1.8783,-1.8783,-1.8783,-1.8783,-1.8783,-1.9131,-1.9131,-1.8818,-2.0783,-2.1461,-2.0936,-2.2151,-2.2708,0.0,0.0,0.0,0.0,0.0,0.0,0.0,0.0,0.0,0.0,0.0,0.0,0.0,0.0,0.0,0.0,0.0,0.0,0.0,0.0,0.0,0.0,0.0,0.0,0.0,0.0,0.0,0.0,-1.1389,-1.1389,-1.1389,-1.3006,-1.4261,-1.4959,-1.6435,-1.7465,-1.7974,-1.8008,-1.8008,-1.8008,-1.8008,-1.8008,-1.8018,-1.8227,-1.8222,-1.8031,-1.8313,-1.8283,-1.8128,-1.8635,-1.9316,-2.0087,-2.0225,-2.0293,-2.0312,-2.0537,-2.0605,-2.0605,-2.0605,-2.0323,-1.9923,-1.9923,-1.9599,-1.9234,-1.9234,-1.9234,-1.9107,-1.847,-1.831,-1.8149,-1.7464,-1.7787,-1.831,-1.831,-1.9116,-1.9923,-1.9923,-2.014,-2.039,-2.0566,-2.0605,-2.0468,-1.999,-1.9912,-1.9717,-1.9111,-1.9014,-1.9014,-1.9014,-1.9014,-1.9082,-1.9268,-1.9287,-1.9287,-1.9287,-1.9121,-1.9014,-1.9014,-1.8578,-1.8344,-1.8344,-1.8344,-1.8344,-1.8344,-1.8623,-1.8633,-1.8344,-1.9764,-2.0345,-2.0212,-2.0982,-2.1365,0.0,0.0,0.0,0.0,0.0,0.0,0.0,-0.3878,0.0,0.0,0.0,0.0,0.0,0.0,0.0,0.0,0.0,0.0,0.0,0.0,0.0,0.0,0.0,0.0,0.0,0.0,0.0,-1.1295,-1.1295,-1.1309,-1.1342,-1.2284,-1.337,-1.4476,-1.5542,-1.6624,-1.7794,-1.792,-1.8008,-1.8008,-1.8008,-1.794,-1.7828,-1.7828,-1.7536,-1.6965,-1.6965,-1.6715,-1.6255,-1.6255,-1.7333,-1.9014,-1.9389,-1.9524,-1.9572,-1.9995,-2.013,-2.014,-2.0188,-1.9536,-1.8712,-1.8757,-1.8054,-1.7227,-1.7219,-1.7243,-1.717,-1.7057,-1.6968,-1.6871,-1.6871,-1.7025,-1.7131,-1.7131,-1.7954,-1.8806,-1.8894,-1.9323,-1.9838,-2.0352,-2.0468,-2.0321,-1.9844,-1.9775,-1.9502,-1.8656,-1.8529,-1.8529,-1.8529,-1.8529,-1.8676,-1.9102,-1.915,-1.915,-1.915,-1.8789,-1.8529,-1.8529,-1.8213,-1.8008,-1.8008,-1.8008,-1.8008,-1.8008,-1.8008,-1.8008,-1.8008,-1.9141,-1.9889,-2.0301,-2.0398,-2.0462,0.0,0.0,0.0,0.0,0.0,0.0,0.0,-0.3035,0.0,0.0,0.0,0.0,0.0,0.0,0.0,0.0,0.0,0.0,0.0,0.0,0.0,0.0,0.0,0.0,0.0,0.0,-1.076,-1.076,-1.076,-1.0861,-1.1062,-1.1985,-1.2725,-1.3227,-1.5101,-1.6209,-1.6468,-1.7475,-1.8008,-1.8008,-1.8008,-1.7613,-1.6888,-1.6888,-1.6403,-1.5591,-1.5591,-1.5518,-1.5441,-1.5441,-1.6038,-1.6954,-1.7061,-1.7087,-1.7104,-1.7173,-1.7208,-1.7251,-1.7523,-1.7312,-1.6954,-1.722,-1.6993,-1.6646,-1.6907,-1.679,-1.6404,-1.5529,-1.4834,-1.4322,-1.4322,-1.5148,-1.6026,-1.6026,-1.6694,-1.7518,-1.8276,-1.8362,-1.8527,-1.9401,-1.9541,-1.9394,-1.8929,-1.8851,-1.8676,-1.8178,-1.8135,-1.8135,-1.8135,-1.8135,-1.8164,-1.8252,-1.8262,-1.8262,-1.8262,-1.8184,-1.8135,-1.8135,-1.8057,-1.8008,-1.8008,-1.8008,-1.8008,-1.8008,-1.8008,-1.8008,-1.8008,-1.8256,-1.8417,-1.8529,-1.9243,-1.9562,0.0,0.0,0.0,-0.3531,0.0,0.0,0.0,0.0,0.0,0.0,0.0,0.0,0.0,0.0,0.0,0.0,0.0,0.0,0.0,0.0,0.0,0.0,0.0,0.0,0.0,0.0,-1.0211,-1.0327,-1.0341,-1.0468,-1.0794,-1.1251,-1.1876,-1.2618,-1.3696,-1.4561,-1.5213,-1.5979,-1.6594,-1.7043,-1.6762,-1.6611,-1.6567,-1.6105,-1.5376,-1.445,-1.445,-1.4199,-1.373,-1.373,-1.3998,-1.4485,-1.5629,-1.6105,-1.613,-1.6342,-1.6409,-1.6434,-1.6588,-1.6185,-1.5619,-1.5794,-1.5389,-1.4824,-1.4997,-1.493,-1.4678,-1.4155,-1.3698,-1.3387,-1.3387,-1.3925,-1.4434,-1.4434,-1.5162,-1.5966,-1.6431,-1.7076,-1.7706,-1.8152,-1.8459,-1.8643,-1.8607,-1.8598,-1.8461,-1.8076,-1.8008,-1.8008,-1.8008,-1.8008,-1.8008,-1.8008,-1.8008,-1.8008,-1.8008,-1.8008,-1.8008,-1.8008,-1.8008,-1.8008,-1.8008,-1.8008,-1.8008,-1.8008,-1.8008,-1.8008,-1.8008,-1.8008,-1.8008,-1.8008,-1.8462,-1.8654,0.0,0.0,0.0,0.0,0.0,-0.3646,0.0,0.0,0.0,0.0,0.0,0.0,0.0,0.0,0.0,0.0,0.0,0.0,0.0,0.0,0.0,0.0,0.0,0.0,0.0,0.0,-0.9659,-1.0007,-0.9927,-1.004,-1.0486,-1.0506,-1.0982,-1.2022,-1.2283,-1.2888,-1.3909,-1.4396,-1.5019,-1.5838,-1.5333,-1.5441,-1.6035,-1.5261,-1.4378,-1.3419,-1.3419,-1.2989,-1.2305,-1.2305,-1.2305,-1.2502,-1.4382,-1.5117,-1.5185,-1.5495,-1.56,-1.5608,-1.568,-1.5103,-1.4315,-1.4374,-1.3836,-1.3113,-1.3053,-1.308,-1.3113,-1.3053,-1.308,-1.312,-1.312,-1.3166,-1.3213,-1.3213,-1.3807,-1.4473,-1.4666,-1.5634,-1.6633,-1.7027,-1.7416,-1.79,-1.8387,-1.8481,-1.8364,-1.8057,-1.8008,-1.8008,-1.8008,-1.8008,-1.8008,-1.8008,-1.8008,-1.8008,-1.8008,-1.8008,-1.8008,-1.8008,-1.8008,-1.8008,-1.8008,-1.8008,-1.8008,-1.8008,-1.8008,-1.8008,-1.8008,-1.8008,-1.8008,-1.8008,-1.8008,-1.8008,0.0,0.0,0.0,0.0,-0.4058,0.0,0.0,0.0,0.0,0.0,0.0,0.0,0.0,0.0,0.0,0.0,0.0,0.0,0.0,0.0,0.0,0.0,0.0,0.0,0.0,0.0,0.0,-0.9693,-0.9252,-0.9312,-1.0127,-1.0167,-1.0362,-1.0785,-1.1843,-1.2457,-1.2624,-1.377,-1.4538,-1.4849,-1.4797,-1.4501,-1.4027,-1.3918,-1.3346,-1.2445,-1.2445,-1.2409,-1.2305,-1.2305,-1.2305,-1.2342,-1.259,-1.2714,-1.2714,-1.2748,-1.2762,-1.2797,-1.311,-1.2914,-1.2624,-1.2934,-1.2946,-1.2784,-1.2485,-1.263,-1.2784,-1.2478,-1.2636,-1.2837,-1.2837,-1.3006,-1.3213,-1.3213,-1.3109,-1.3244,-1.411,-1.4184,-1.4621,-1.6316,-1.6707,-1.7044,-1.793,-1.8076,-1.8066,-1.8018,-1.8008,-1.8008,-1.8008,-1.8008,-1.8008,-1.8008,-1.8008,-1.8008,-1.8008,-1.8008,-1.8008,-1.8008,-1.8008,-1.8008,-1.8008,-1.8008,-1.8008,-1.8008,-1.8008,-1.8008,-1.8008,-1.8008,-1.8008,-1.8008,-1.8008,-1.8008,0.0,0.0,0.0,0.0,0.0,0.0,0.0,0.0,-0.3587,0.0,0.0,0.0,0.0,0.0,0.0,0.0,0.0,0.0,0.0,0.0,0.0,0.0,0.0,0.0,0.0,0.0,0.0,0.0,0.0,-0.8439,-0.9064,-0.9748,-1.0174,-1.0301,-1.0992,-1.1376,-1.1376,-1.2025,-1.2707,-1.3341,-1.2965,-1.3028,-1.3461,-1.2899,-1.2537,-1.2305,-1.2305,-1.2305,-1.2305,-1.2305,-1.2305,-1.2305,-1.2305,-1.2305,-1.2305,-1.2305,-1.2305,-1.2318,-1.2445,-1.2405,-1.2325,-1.2445,-1.2522,-1.2465,-1.2338,-1.2392,-1.2496,-1.2338,-1.2392,-1.2522,-1.2522,-1.2585,-1.2685,-1.2685,-1.2585,-1.2635,-1.3,-1.3404,-1.3954,-1.4764,-1.5403,-1.5904,-1.6298,-1.7295,-1.8008,-1.8008,-1.8008,-1.8008,-1.8008,-1.8008,-1.8008,-1.8008,-1.8008,-1.8008,-1.8008,-1.8008,-1.8008,-1.8008,-1.8008,-1.8008,-1.8008,-1.8008,-1.8008,-1.8008,-1.8008,-1.8008,-1.8008,-1.8008,-1.8008,-1.8008,-1.8008,-1.8008,-0.4491,0.0,0.0,0.0,0.0,0.0,0.0,0.0,0.0,0.0,0.0,0.0,0.0,0.0,0.0,0.0,0.0,0.0,0.0,0.0,0.0,0.0,0.0,0.0,0.0,0.0,0.0,0.0,0.0,0.0,-0.8233,-0.9198,-0.9837,-1.0077,-1.0327,-1.0512,-1.0593,-1.0801,-1.1267,-1.1996,-1.1531,-1.1799,-1.2751,-1.2184,-1.202,-1.2184,-1.2265,-1.2305,-1.2305,-1.2305,-1.2305,-1.2305,-1.2305,-1.2305,-1.2305,-1.2305,-1.2305,-1.2305,-1.2305,-1.2305,-1.2305,-1.2305,-1.2305,-1.2305,-1.2305,-1.2305,-1.2305,-1.2305,-1.2305,-1.2305,-1.2305,-1.2305,-1.2305,-1.2305,-1.2305,-1.2305,-1.2305,-1.2842,-1.3382,-1.3637,-1.4271,-1.4879,-1.5163,-1.6541,-1.7613,-1.7613,-1.7828,-1.8008,-1.8008,-1.8008,-1.8008,-1.8008,-1.8008,-1.8008,-1.8008,-1.8008,-1.8008,-1.8008,-1.8008,-1.8008,-1.8008,-1.8008,-1.8008,-1.8008,-1.8008,-1.8008,-1.8008,-1.8008,-1.8008,-1.8008,-1.8008,-1.8008,0.0,0.0,0.0,0.0,0.0,0.0,0.0,0.0,-0.3785,0.0,0.0,0.0,0.0,0.0,0.0,-0.3346,0.0,0.0,0.0,0.0,0.0,0.0,0.0,0.0,0.0,0.0,0.0,0.0,0.0,0.0,-0.7844,-0.8506,-0.9239,-1.0057,-1.0097,-1.0267,-1.0586,-1.06,-1.0747,-1.1022,-1.1035,-1.1156,-1.1484,-1.1772,-1.1906,-1.1933,-1.2178,-1.2305,-1.2305,-1.2305,-1.2305,-1.2305,-1.2305,-1.2305,-1.2305,-1.2305,-1.2305,-1.2305,-1.2305,-1.2305,-1.2305,-1.2305,-1.2305,-1.2305,-1.2305,-1.2305,-1.2305,-1.2305,-1.2305,-1.2305,-1.2305,-1.2305,-1.2305,-1.2305,-1.2305,-1.2305,-1.2305,-1.2335,-1.2629,-1.3528,-1.3745,-1.4063,-1.5021,-1.6,-1.6636,-1.6636,-1.7432,-1.8008,-1.8008,-1.8008,-1.8008,-1.8008,-1.8008,-1.8008,-1.8008,-1.8008,-1.8008,-1.8008,-1.8008,-1.8008,-1.8008,-1.8008,-1.8008,-1.8008,-1.8008,-1.8008,-1.8008,-1.8008,-1.8008,-1.8008,-1.8008,-1.8008,0.0,0.0,-0.4443,-0.4193,0.0,0.0,0.0,0.0,0.0,0.0,0.0,0.0,0.0,0.0,0.0,-0.3534,0.0,0.0,0.0,0.0,0.0,0.0,0.0,0.0,0.0,0.0,0.0,0.0,0.0,0.0,0.0,-0.8231,-0.9291,-0.9813,-1.0013,-1.0261,-1.0586,-1.0593,-1.064,-1.074,-1.074,-1.0894,-1.1142,-1.1243,-1.1396,-1.159,-1.1891,-1.2053,-1.2067,-1.2225,-1.2305,-1.2305,-1.2305,-1.2305,-1.2305,-1.2305,-1.2305,-1.2305,-1.2305,-1.2305,-1.2305,-1.2305,-1.2305,-1.2305,-1.2305,-1.2305,-1.2305,-1.2305,-1.2305,-1.2305,-1.2305,-1.2305,-1.2305,-1.2305,-1.2305,-1.2305,-1.2305,-1.2305,-1.2372,-1.2696,-1.2769,-1.2879,-1.3237,-1.4055,-1.4906,-1.5579,-1.6463,-1.707,-1.707,-1.7613,-1.8008,-1.8008,-1.8008,-1.8008,-1.8008,-1.8008,-1.8008,-1.8008,-1.8008,-1.8008,-1.8008,-1.8008,-1.8008,-1.8008,-1.8008,-1.8008,-1.8008,-1.8008,-1.8008,-1.8008,-1.8008,-1.8008,-0.4012,-0.407,0.0,0.0,-0.4123,0.0,0.0,0.0,0.0,0.0,0.0,0.0,0.0,0.0,0.0,-0.3645,-0.3368,0.0,0.0,0.0,0.0,0.0,0.0,0.0,0.0,0.0,-0.2993,-0.3286,0.0,0.0,0.0,0.0,-0.8978,-0.9512,-0.9806,-1.0107,-1.0432,-1.0539,-1.0593,-1.0593,-1.0593,-1.0687,-1.0874,-1.0949,-1.1096,-1.1289,-1.1583,-1.171,-1.1724,-1.1911,-1.2051,-1.2144,-1.2144,-1.2211,-1.2305,-1.2305,-1.2305,-1.2305,-1.2305,-1.2305,-1.2305,-1.2305,-1.2305,-1.2305,-1.2305,-1.2305,-1.2305,-1.2305,-1.2305,-1.2305,-1.2305,-1.2305,-1.2305,-1.2305,-1.2305,-1.2305,-1.2305,-1.2305,-1.2305,-1.2305,-1.2305,-1.2305,-1.2305,-1.2806,-1.3528,-1.4522,-1.5473,-1.6105,-1.6105,-1.6932,-1.7501,-1.7501,-1.7794,-1.8008,-1.8008,-1.8008,-1.8008,-1.8008,-1.8008,-1.8008,-1.8008,-1.8008,-1.8008,-1.8008,-1.8008,-1.8008,-1.8008,-1.8008,-1.8008,-1.8008,-1.8008,-1.8008]}]]